     2              OBSERVATION DATA    GPS                 RINEX VERSION / TYPE
teqc 1997Jun30 19970702                                     PGM / RUN BY / DATE
                                                            COMMENT
BIT 2 OF LLI FLAGS DATA COLLECTED UNDER A-S CONDITION       COMMENT
BIT 2 OF LLI FLAGS DATA COLLECTED UNDER A-S CONDITION       COMMENT
Original Marker Name: HMCP                                  COMMENT
Campaign Name: HMC San Gabriel Valley 1993-1996             COMMENT
4-Character Station Name: HMCP                              COMMENT
6-Character Antenna Code: DMRCHT                            COMMENT
Vertical Measurement Point: BPA                             COMMENT
Vertical Offset to Rinex Ref. Point: 0.0000                 COMMENT
Radial Measurement Point: RRP                               COMMENT
Radial Offset to Rinex Ref. Point: 0.0000                   COMMENT
Antenna Height from Field Measurement: 0.0000 m             COMMENT
Additional Antenna Identification Info.:                    COMMENT
Turborogue and Ashtech Choke Ring                           COMMENT
Fixed antenna mounting on roof of Parsons                   COMMENT
building, HMC.                                              COMMENT
Original XYZ: -2458600.1677 -4680495.5614 3556453.7092      COMMENT
New XYZ position is based on association with SCEC monument COMMENT
E1D0R2C7+0011. Position of that monument is believed to be  COMMENT
valid to within 1 m horizontally; vertical accuracy         COMMENT
should be no worse than 3-times this value.                 COMMENT
                                                            COMMENT
Revised Rinex header created by UCSD GPS archive for        COMMENT
GSAC on 13-Apr-1999 (1999:103) 18:44:55 GMT                 COMMENT
For assistance contact dagnew@ucsd.edu or hjohnson@ucsd.edu COMMENT
                                                            COMMENT
HARVEY MUDD COLLEGE PHYSICS                                 MARKER NAME
GAL HARVEY MUDD COLLEGE                                     OBSERVER / AGENCY
T-262/263 TURBOROGUE SNR-8000 95.03.08                      REC # / TYPE / VERS
260/329 DORNE-MARGOL. TYPE T                                ANT # / TYPE
 -2458598.0000 -4680494.0000  3556451.0000                  APPROX POSITION XYZ
        0.0000        0.0000        0.0000                  ANTENNA: DELTA H/E/N
     1     1     0                                          WAVELENGTH FACT L1/2
     5    L1    L2    C1    P2    P1                        # / TYPES OF OBSERV
     0                                                      INTERVAL
  1995     6    15     0     0    0.000000                  TIME OF FIRST OBS
  1995     6    15    20    55    0.000000                  TIME OF LAST OBS
     0                                                      # OF SATELLITES
                                                            END OF HEADER
 95  6 15  0  0  0.0000000  0  7G17G22G23G20G26G 6G16
 -20437326.49244 -15925168.78744  21194009.0144   21194011.9914
   -780634.04444   -608285.46244  24401153.4474   24401157.2494
 -13926481.02144 -10851779.10844  22494745.3704   22494749.1944
 -10797715.11944  -8413798.91344  22846264.4384   22846269.8314
  -6807159.25844  -5304271.54744  22696523.3294   22696525.0554
 -25516324.70944 -19882839.01044  20192610.7294   20192612.3274
  -6164300.26244  -4803333.14344  23240709.5334   23240711.6504
 95  6 15  0  0 30.0000000  0  7G17G22G23G20G26G 6G16
 -20472963.31344 -15952937.71244  21187227.6384   21187230.5914
   -843074.24344   -656940.09644  24389270.5194   24389277.6624
 -14011228.96944 -10917816.39644  22478617.6214   22478622.6184
 -10699171.02244  -8337011.39744  22865015.8074   22865021.7344
  -6861451.61844  -5346577.22344  22686191.2584   22686193.7884
 -25514228.16644 -19881205.34944  20193009.6854   20193011.3124
  -6070591.83644  -4730313.62844  23258541.3044   23258544.8624
 95  6 15  0  1  0.0000000  0  7G17G22G23G20G26G 6G16
 -20508369.53944 -15980526.95444  21180490.0884   21180492.8574
   -905043.87544   -705228.05444  24377477.0824   24377482.3454
 -14095631.68944 -10983584.67244  22462556.0414   22462561.4154
 -10600425.43444  -8260066.88844  22883807.2484   22883812.5384
  -6915313.59544  -5388547.53444  22675941.8664   22675944.8924
 -25511614.24644 -19879168.53544  20193507.1014   20193508.6774
  -5976658.10644  -4657118.54244  23276416.8064   23276419.6854
 95  6 15  0  1 30.0000000  0  7G17G22G23G20G26G 6G16
 -20543593.94244 -16007974.51844  21173786.8894   21173790.0244
   -966608.02444   -753200.06644  24365762.9384   24365769.0144
 -14179737.50744 -11049121.60044  22446551.5784   22446556.2904
 -10501541.94544  -8183014.90544  22902624.7724   22902629.7714
  -6968789.58944  -5430217.07944  22665765.6764   22665768.4074
 -25508535.40844 -19876769.44344  20194092.9504   20194094.5124
  -5882555.15844  -4583791.58744  23294323.7324   23294327.6254
 95  6 15  0  2  0.0000000  0  7G17G22G23G20G26G 6G16
 -20578624.59844 -16035271.11444  21167120.7494   21167123.9164
  -1027771.57944   -800859.95644  24354124.3804   24354129.0164
 -14263546.48244 -11114427.22544  22430603.3594   22430607.7524
 -10402528.25544  -8105861.47744  22921466.1964   22921471.1504
  -7021863.91544  -5471573.63344  22655665.5424   22655668.3214
 -25505021.81744 -19874031.58844  20194761.6004   20194763.0604
  -5788283.78544  -4510333.42244  23312262.7564   23312265.8424
 95  6 15  0  2 30.0000000  0  7G17G22G23G20G26G 6G16
 -20613406.20144 -16062373.63844  21160502.0664   21160505.1774
  -1088466.92244   -848154.99644  24342574.9034   24342576.0304
 -14347005.90244 -11179460.46444  22414721.1104   22414724.9164
 -10303318.96744  -8028555.62044  22940345.1164   22940351.0014
  -7074476.30844  -5512570.25244  22645654.6104   22645656.2934
 -25501026.23744 -19870918.15144  20195521.9384   20195523.6384
  -5693786.39144  -4436699.12044  23330245.0234   23330247.5844
 95  6 15  0  3  0.0000000  0  7G17G22G23G20G26G 6G16
 -20647981.18344 -16089315.16044  21153922.4364   21153925.6594
  -1148758.44044   -895135.36044  24331100.9314   24331106.3434
 -14430170.98144 -11244264.35844  22398894.9044   22398899.1114
 -10203961.03044  -7951133.94844  22959252.2584   22959257.4014
  -7126692.95744  -5553258.50544  22635717.5784   22635719.8614
 -25496582.38544 -19867455.42144  20196367.6054   20196369.1474
  -5599109.06244  -4362924.60044  23348261.8614   23348265.0084
 95  6 15  0  3 30.0000000  0  7G17G22G23G20G26G 6G16
 -20682315.76944 -16116069.36144  21147388.9654   21147392.0254
  -1208625.52744   -941784.97744  24319709.3284   24319712.2994
 -14513023.37044 -11308824.59544  22383128.9434   22383133.0034
 -10104438.79744  -7873584.25844  22978190.5744   22978196.1584
  -7178486.48044  -5593617.03744  22625861.2814   22625863.8694
 -25491661.36544 -19863620.86244  20197304.0614   20197305.6014
  -5504228.55744  -4288991.78744  23366317.1614   23366320.3124
 95  6 15  0  4  0.0000000  0  7G17G22G23G20G26G 6G16
 -20716421.61044 -16142645.31944  21140898.8624   21140901.8984
  -1268048.23244   -988088.28944  24308400.8324   24308403.7974
 -14595554.42644 -11373134.42844  22367423.9634   22367428.0304
 -10004748.41544  -7795903.53944  22997161.2404   22997166.2074
  -7229857.66044  -5633646.47944  22616086.0904   22616087.5224
 -25486254.72244 -19859407.90344  20198332.8544   20198334.3614
  -5409134.45344  -4214892.50744  23384411.9684   23384414.4084
 95  6 15  0  4 30.0000000  0  7G17G22G23G20G26G 6G16
 -20750393.95944 -16169117.25644  21134434.0184   21134437.1134
  -1327094.94644  -1034098.67744  24297166.4334
 -14677841.23444 -11437253.96144  22351765.4794   22351769.2894
  -9904982.09344  -7718163.64244  23016145.5194   23016151.5104
  -7280889.41544  -5673411.44244  22606374.5044   22606377.1964
 -25480409.39044 -19854853.10544  20199445.2464   20199446.8594
  -5313895.64744  -4140680.47444  23402535.7074   23402538.5414
 95  6 15  0  5  0.0000000  0  7G17G22G23G20G26G 6G16
 -20784269.11344 -16195513.45944  21127987.7674   21127990.8704
  -1385793.01844  -1079837.38544  24285995.5894   24285994.8784
 -14759907.33744 -11501201.51844  22336149.1964   22336152.9964
  -9805177.69344  -7640394.08844  23035138.4694   23035144.5294
  -7331604.23044  -5712929.44544  22596724.1854   22596726.0694
 -25474149.88244 -19849975.57344  20200636.2114   20200638.0784
  -5218531.12344  -4066370.49444  23420683.0674   23420685.8154
 95  6 15  0  5 30.0000000  0  7G17G22G23G20G26G 6G16
 -20817967.84944 -16221772.19144  21121575.2614   21121578.3044
  -1444037.66244  -1125222.81844  24274911.9434
 -14841651.18144 -11564897.95544  22320593.7874   22320597.1464
  -9705244.24644  -7562523.96544  23054155.2254   23054160.7714
  -7381896.98844  -5752118.57344  22587153.6914   22587155.0664
 -25467410.26944 -19844723.93444  20201918.8974   20201920.3894
  -5122951.39944  -3991892.82644  23438871.2814   23438874.3974
 95  6 15  0  6  0.0000000  0  7G17G22G23G20G26G 6G16
 -20851445.83944 -16247858.91444  21115204.3984   21115207.4954
  -1501774.29444  -1170212.34644  24263924.7064   24263929.0954
 -14923013.73444 -11628297.27544  22305110.4414   22305114.5284
  -9605134.17344  -7484516.20044  23073205.3074   23073211.3244
  -7431722.78944  -5790943.83344  22577671.9304   22577673.6774
 -25460150.97544 -19839067.34844  20203300.1204   20203301.8934
  -5027118.65144  -3917217.97244  23457107.7014   23457109.6494
 95  6 15  0  6 30.0000000  0  7G17G22G23G20G26G 6G16
 -20884752.67944 -16273812.27444  21108866.5954   21108869.4664
  -1559083.71144  -1214869.00544  24253019.3904   24253022.8384
 -15004072.86344 -11691460.16744  22289684.8884   22289689.0864
  -9504930.65444  -7406435.64144  23092274.0954   23092280.0314
  -7481154.55444  -5829462.06144  22568265.4814   22568267.3444
 -25452450.73944 -19833067.17844  20204765.7794   20204767.1684
  -4931116.45144  -3842411.10244  23475376.8834   23475381.4294
 95  6 15  0  7  0.0000000  0  7G17G22G23G20G26G 6G16
 -20917815.83544 -16299575.75344  21102574.8034   21102577.7024
  -1615914.13044  -1259152.41844  24242204.1764   24242208.2594
 -15084774.92644 -11754344.82044  22274327.4734   22274331.9374
  -9404561.36944  -7328225.92344  23111372.8604   23111377.8334
  -7530145.97344  -5867637.14944  22558942.7644   22558944.7294
 -25444262.03144 -19826686.37744  20206323.6264   20206325.3594
  -4834913.65644  -3767447.92744  23493683.1014   23493684.7614
 95  6 15  0  7 30.0000000  0  7G17G22G23G20G26G 6G16
 -20950651.41344 -16325161.90144  21096326.1974   21096329.2054
  -1672302.47444  -1303091.39544  24231474.0084   24231472.8464
 -15165159.96944 -11816982.46144  22259031.5294   22259035.4954
  -9304053.96744  -7249908.56644  23130499.3744   23130506.6844
  -7578734.34044  -5905498.18644  22549696.3674   22549698.5064
 -25435608.46844 -19819943.35344  20207970.5664   20207972.0554
  -4738573.65944  -3692377.84544  23512016.7254   23512019.6684
 95  6 15  0  8  0.0000000  0  7G17G22G23G20G26G 6G16
 -20983230.50744 -16350548.18944  21090126.7204   21090129.8434
  -1728238.32444  -1346677.70844  24220828.6754   24220832.9304
 -15245219.71244 -11879366.62444  22243796.4704   22243800.4214
  -9203386.76844  -7171466.70744  23149656.0614   23149661.6674
  -7626898.83544  -5943028.91744  22540531.3244   22540532.9974
 -25426456.45144 -19812811.91844  20209712.0604   20209713.7184
  -4642085.44744  -3617192.24844  23530377.8964   23530378.9654
 95  6 15  0  8 30.0000000  0  7G17G22G23G20G26G 6G16
 -21015498.24744 -16375691.86944  21083986.2094   21083989.0764
  -1783669.06044  -1389870.47244  24210281.4184   24210283.3054
 -15324894.02544 -11941450.44244  22228634.6234   22228638.8124
  -9102486.26044  -7092843.04544  23168857.0924   23168861.8904
  -7674582.33344  -5980184.85444  22531457.1524   22531460.0384
 -25416749.23444 -19805247.86444  20211559.2494   20211560.9444
  -4545387.08844  -3541842.89544  23548777.5144   23548780.9454
 95  6 15  0  9  0.0000000  0  8G17G22G23G21G20G26G 6G16
 -21047502.71744 -16400630.39644  21077896.0304   21077899.0964
  -1838628.12344  -1432695.67844  24199823.2914   24199828.0564
 -15404200.79144 -12003247.85944  22213543.3994   22213547.1934
        -1.17354                  25586403.6594
  -9001378.38144  -7014057.78244  23188097.3934   23188102.2114
  -7721811.28244  -6016986.60844  22522469.4664   22522471.3464
 -25406523.07544 -19797279.44144  20213505.3524   20213506.9584
  -4448506.01344  -3466351.19344  23567214.2634   23567217.1634
 95  6 15  0  9 30.0000000  0  8G17G22G23G21G20G26G 6G16
 -21079344.60144 -16425442.23444  21071836.6364   21071839.6644
  -1893201.72444  -1475220.52944  24189438.9184   24189440.5244
 -15483217.24644 -12064819.06144  22198506.8534   22198510.7714
   -100314.10144    -78166.14144  25567313.8734
  -8900164.84744  -6935190.19744  23207357.4354   23207362.8454
  -7768646.19544  -6053481.29544  22513557.5644   22513558.9654
 -25395873.15644 -19788980.81744  20215531.9454   20215533.7174
  -4351508.48444  -3390768.71444  23585672.3224   23585675.5114
 95  6 15  0 10  0.0000000  0  8G17G22G23G21G20G26G 6G16
 -21111042.02644 -16450141.50744  21065804.5444   21065807.7184
  -1947385.86944  -1517441.91444  24179128.3424   24179131.5014
 -15561929.28844 -12126153.06144  22183528.2174   22183532.2654
   -200612.94644   -156320.88944  25548228.0324   25548234.1164
  -8798868.31844  -6856257.94144  23226632.7004   23226638.0194
  -7815077.15644  -6089661.22144  22504722.1204   22504724.2154
 -25384814.37044 -19780363.59144  20217636.4614   20217637.9454
  -4254369.33944  -3315075.90844  23604156.7364   23604159.7554
 95  6 15  0 10 30.0000000  0  8G17G22G23G21G20G26G 6G16
 -21142599.64344 -16474731.84244  21059799.3514   21059802.5884
  -2001166.04844  -1559348.49944  24168894.8394   24168898.4954
 -15640333.48844 -12187247.19444  22168608.4134   22168612.1734
   -300907.85344                  25529140.7384
  -8697511.26444  -6777278.54544  23245921.2644   23245926.2874
  -7861100.23444  -6125523.32044  22495963.6514   22495966.1254
 -25373345.16944 -19771426.56844  20219818.8924   20219820.8024
  -4157084.44744  -3239269.52944  23622669.9114   23622672.8094
 95  6 15  0 11  0.0000000  0  8G17G22G23G21G20G26G 6G16
 -21174003.74944 -16499202.55744  21053823.2084   21053826.4794
  -2054524.05344  -1600926.15644  24158739.5034   24158744.2524
 -15718434.86644 -12248105.34844  22153746.3054   22153750.4984
   -401173.79344                  25510059.9504
  -8596106.65944  -6698262.07944  23265218.2954   23265224.5864
  -7906684.72844  -6161043.64944  22487289.4604   22487291.4604
 -25361441.07344 -19762150.66444  20222084.4314   20222086.0534
  -4059648.94644  -3163345.79244  23641211.6474   23641214.7584
 95  6 15  0 11 30.0000000  0  8G22G23G21G20G17G26G 6G16
  -2107390.55544  -1642120.80644  24148677.7174   24148681.2744
 -15796196.37744 -12308698.67144  22138948.7934   22138952.6094
   -501347.76844                  25490995.9474
  -8494606.29944  -6619171.00544  23284533.8494   23284539.2884
 -21205190.67544 -16523504.04644  21047888.6624   21047891.8424
  -7951768.52644  -6196173.83444  22478710.5864   22478712.7814
 -25349048.58644 -19752494.19944  20224442.3744   20224444.1644
  -3962018.43444  -3087270.10444  23659790.2344   23659793.0564
 95  6 15  0 12  0.0000000  0  8G17G22G23G21G20G26G 6G16
 -21236212.01544 -16547676.50744  21041985.4314   21041988.5884
  -2159822.22544  -1682976.61044  24138700.6444   24138707.6094
 -15873687.90144 -12369081.62144  22124202.0934   22124206.6104
   -601509.18344                  25471929.2164
  -8393083.91544  -6540062.75744  23303852.0114   23303856.6154
  -7996442.40744  -6230984.61244  22470209.1124   22470211.4714
 -25336234.52144 -19742509.22944  20226880.8894   20226882.5724
  -3864285.38244  -3011114.50644  23678388.4014   23678391.2274
 95  6 15  0 12 30.0000000  0  8G17G22G23G21G20G26G 6G16
 -21267072.19644 -16571723.38844  21036113.0104   21036116.0604
  -2211837.62644  -1723508.06544  24128802.8124   24128809.0564
 -15950938.75144 -12429277.03144  22109501.8754   22109506.1354
   -701657.84744                  25452870.5494
  -8291538.94244  -6460936.95244  23323175.1144   23323181.1684
  -8040727.21944  -6265492.20644  22461781.8334   22461784.3294
 -25322994.74144 -19732192.53044  20229400.2974   20229401.9614
  -3766479.66244  -2934902.29244  23697000.2454   23697004.0844
 95  6 15  0 13  0.0000000  0  8G17G22G23G21G20G26G 6G16
 -21297691.74444 -16595582.76444  21030286.6064   21030289.2274
  -2263360.61344  -1763655.81844  24118997.6174   24119002.7144
 -16027849.55144 -12489207.47044  22094866.6594   22094870.4324
   -801697.29544                  25433834.9274
  -8189869.52744  -6381714.15344  23342521.7454   23342527.7354
  -8084539.20344  -6299631.38144  22453445.0334   22453447.5854
 -25309232.09244 -19721468.39744  20232019.3204   20232021.0684
  -3668515.00744  -2858566.24844  23715641.4074   23715643.4724
 95  6 15  0 13 30.0000000  0  8G17G22G23G21G20G26G 6G16
 -21328028.29144 -16619221.61244  21024513.5874   21024516.6184
  -2314344.63144  -1803383.59344  24109296.4154   24109300.9544
 -16104361.08444 -12548826.80544  22080307.1574   22080310.5734
   -901593.13844                  25414827.2694
  -8088031.05444  -6302359.62044  23361902.0754   23361908.2234
  -8127854.06344  -6333383.19044  22445201.9384   22445204.6954
 -25294905.99044 -19710305.21944  20234745.4164   20234746.9914
  -3570369.99444  -2782089.62144  23734317.7934   23734321.0004
 95  6 15  0 14  0.0000000  0  8G22G23G21G20G17G26G 6G16
  -2364918.73744  -1842791.95144  24099673.7934   24099677.7724
 -16180578.85044 -12608217.22244  22065803.5784   22065806.9134
  -1001469.00744                  25395823.0904
  -7986140.38544  -6222964.42744  23381290.2984   23381296.4924
 -21358213.83344 -16642742.79544  21018769.5214   21018772.3534
  -8170798.15544  -6366846.08044  22437029.9394   22437032.1634
 -25280114.00044 -19698779.00944  20237560.2844   20237561.9244
  -3472161.82844  -2705563.81544  23753007.0004   23753009.9514
 95  6 15  0 14 30.0000000  0  8G22G23G21G20G17G26G 6G16
  -2415003.82044  -1881819.25544  24090143.0434   24090146.5174
 -16256416.97344 -12667311.81844  22051371.4824   22051375.1894
  -1101227.12344   -858095.73444  25376842.0174   25376847.8274
  -7884099.32844  -6143452.04644  23400708.9924   23400716.8354
 -21388168.04944 -16666083.72844  21013069.3914   21013072.2094
  -8213261.78144  -6399934.59144  22428949.4334   22428951.5774
 -25264763.15044 -19686817.32044  20240481.4084   20240482.9544
  -3373790.99144  -2628911.23344  23771726.2714   23771729.5944
 95  6 15  0 15  0.0000000  0  8G22G23G21G20G17G26G 6G16
  -2464543.97344  -1920421.95844  24080715.4304   24080719.1244
 -16331830.48744 -12726075.54644  22037021.0104   22037025.0594
  -1200838.84744   -935715.02444  25357886.7914   25357894.2874
  -7781884.10444  -6063803.94044  23420160.1404   23420166.7604
 -21417849.56544 -16689212.16544  21007421.1364   21007424.0304
  -8255196.06644  -6432610.63644  22420969.8654   22420971.3814
 -25248835.44444 -19674406.13844  20243512.2304   20243514.1554
  -3275221.08044  -2552103.53344  23790483.2684   23790486.6114
 95  6 15  0 15 30.0000000  0  8G22G23G21G20G17G26G 6G16
  -2513659.32644  -1958693.61344  24071367.7194   24071372.3504
 -16406953.06844 -12784612.57544  22022725.3354   22022729.3394
  -1300427.25444  -1013316.12244  25338936.9684   25338943.2294
  -7679628.47444  -5984124.37444  23439619.3034   23439625.0974
 -21447368.73044 -16712214.09844  21001803.7824   21001806.7784
  -8296713.38344  -6464961.75144  22413069.3004   22413071.5124
 -25232475.17444 -19661657.89444  20246625.8264   20246627.3214
  -3176579.97744  -2475240.38744  23809253.4584   23809256.6694
 95  6 15  0 16  0.0000000  0  8G22G23G21G20G17G26G 6G16
  -2562350.90344  -1996635.06544  24062101.9534   24062106.4234
 -16481773.64244 -12842914.27244  22008487.6354   22008491.3004
  -1399970.73444  -1090882.22144  25319993.9894   25320001.0314
  -7577325.04644  -5904407.55544  23459086.8934   23459091.9364
 -21476708.19344 -16735076.00444  20996220.7364   20996223.6494
  -8337779.90944  -6496961.60044  22405254.3274   22405257.0004
 -25215673.23944 -19648565.49944  20249822.8014   20249824.4864
  -3077813.69044  -2398279.67144  23828047.6144   23828051.6394
 95  6 15  0 16 30.0000000  0  8G22G23G21G20G17G26G 6G16
  -2610600.64344  -2034232.25044  24052921.5994   24052926.0784
 -16556283.29344 -12900973.68144  21994308.5194   21994312.3104
  -1499446.05844  -1168395.20544  25301063.8674   25301069.2224
  -7474977.96744  -5824656.73144  23478563.2584   23478569.8494
 -21505848.76244 -16757782.92644  20990675.6724   20990678.3064
  -8378372.13544  -6528591.86644  22397530.0714   22397531.6314
 -25198423.29344 -19635123.99944  20253105.7214   20253107.2364
  -2978915.08044  -2321215.85444  23846868.7304   23846872.6024
 95  6 15  0 17  0.0000000  0  8G22G23G21G20G17G26G 6G16
  -2658362.24244  -2071449.10144  24043832.0884   24043836.1894
 -16630431.23344 -12958751.25644  21980198.5704   21980202.0054
  -1598810.61344  -1245821.80144  25282153.9224   25282163.1064
  -7372561.47844  -5744851.79844  23498052.3404   23498058.8854
 -21534747.12444 -16780301.11744  20985176.3354   20985179.3024
  -8418454.59044  -6559824.91944  22389902.1734   22389903.8634
 -25180684.91244 -19621301.90344  20256481.0764   20256482.7584
  -2879858.55444  -2244028.99344  23865717.8544   23865721.9234
 95  6 15  0 17 30.0000000  0  7G22G23G20G17G26G 6G16
  -2705679.15044  -2108319.37644  24034828.8884   24034834.2104
 -16704235.68444 -13016261.17244  21966153.8854   21966157.7544
  -7270093.80344  -5665006.98444  23517550.6364   23517557.0054
 -21563436.10144 -16802656.15044  20979717.0354   20979719.7744
  -8458053.72044  -6590681.36044  22382366.3134   22382368.3554
 -25162483.46444 -19607118.97644  20259944.6894   20259946.3324
  -2780668.46544  -2166738.04644  23884593.1894   23884596.5214
 95  6 15  0 18  0.0000000  0  7G22G23G20G17G26G 6G16
  -2752627.15844  -2144902.25644  24025894.0154   24025898.1564
 -16777769.71644 -13073560.36544  21952160.3334   21952164.5594
  -7167658.32044  -5585187.25844  23537043.7864   23537049.2874
 -21592005.11744 -16824917.70344  20974280.3744   20974283.1994
  -8497260.29744  -6621231.90844  22374906.3594   22374908.4034
 -25143880.57044 -19592623.23044  20263484.7374   20263486.3244
  -2681432.66044  -2089411.48644  23903477.0524   23903480.6434
 95  6 15  0 18 30.0000000  0  7G22G23G20G17G26G 6G16
  -2799088.09044  -2181105.54144  24017052.5014   24017059.8484
 -16850933.09244 -13130570.73944  21938237.6934   21938241.9084
  -7065154.55144  -5505314.33244  23556549.9184   23556556.3204
 -21620356.01444 -16847009.29744  20968885.5614   20968888.2304
  -8535986.41744  -6651408.07544  22367536.7094   22367538.9674
 -25124781.44144 -19577740.80244  20267119.1594   20267120.8984
  -2582085.91644  -2011998.46644  23922382.8374   23922386.0574
 95  6 15  0 19  0.0000000  0  7G22G23G20G17G26G 6G16
  -2845046.61444  -2216917.34344  24008306.8734   24008312.8274
 -16923717.84844 -13187286.08544  21924387.6394   21924391.4974
  -6962570.70444  -5425379.00944  23576070.2444   23576075.7914
 -21648481.26444 -16868925.06044  20963533.3234   20963536.0674
  -8574229.92944  -6681208.18844  22360259.0384   22360260.2524
 -25105191.19144 -19562475.68644  20270847.1354   20270848.6924
  -2482606.74744  -1934482.27244  23941313.0834   23941316.5204
 95  6 15  0 19 30.0000000  0  8G22G23G21G20G17G26G 6G16
  -2890448.22644  -2252295.22644  23999667.9864   23999671.3474
 -16996074.81144 -13243668.08644  21910619.0064   21910622.5844
        -0.51454         0.90654  25187815.4244
  -6859853.57144  -5345339.83844  23595617.5404   23595624.1394
 -21676336.02444 -16890630.05644  20958232.6824   20958235.5354
  -8611930.39344  -6710585.14344  22353085.0174   22353087.3454
 -25085042.33144 -19546775.29244  20274681.1874   20274683.1104
  -2382930.10444  -1856812.19244  23960280.4244   23960283.5664
 95  6 15  0 20  0.0000000  0  8G22G23G21G20G17G26G 6G16
  -2935361.37844  -2287292.50044  23991119.4744   23991125.1864
 -17068088.05444 -13299782.25044  21896915.0784   21896918.7414
    -98800.62344    -76985.93544  25169014.8904   25169018.0164
  -6757099.09944  -5265271.53844  23615171.3594   23615177.7614
 -21703997.10144 -16912184.12644  20952968.8814   20952971.4634
  -8649171.01544  -6739603.78044  22345998.9554   22346000.9074
 -25064394.61344 -19530686.18044  20278610.4674   20278612.1414
  -2283142.54044  -1779055.69344  23979269.6434   23979272.9964
 95  6 15  0 20 30.0000000  0  8G22G23G21G20G17G26G 6G16
  -2979783.42944  -2321907.07544  23982666.4014   23982670.6534
 -17139759.34444 -13355629.95444  21883276.2944   21883279.7854
   -197484.73944   -153882.43844  25150235.4474   25150238.4524
  -6654305.49144  -5185172.77444  23634732.3554   23634739.3634
 -21731469.68744 -16933591.32044  20947741.1194   20947743.6464
  -8685944.11944  -6768258.12144  22339000.8784   22339002.7794
 -25043261.04444 -19514218.47844  20282631.9934   20282633.7074
  -2183239.38744  -1701209.09344  23998280.6774   23998283.8924
 95  6 15  0 21  0.0000000  0  8G22G23G21G20G17G26G 6G16
  -3023739.94544  -2356158.92044  23974301.8604   23974308.4884
 -17211104.26144 -13411223.34944  21869699.5184   21869703.3194
   -296082.20844   -230711.47544  25131473.0784   25131473.3674
  -6551490.75644  -5105057.55944  23654297.5014   23654303.5994
 -21758784.46844 -16954875.54744  20942543.5084   20942545.7994
  -8722253.92144  -6796551.44144  22332091.2574   22332092.9724
 -25021648.55144 -19497377.59144  20286744.8444   20286746.5124
  -2083241.73844  -1623288.89544  24017310.0364   24017312.2954
 95  6 15  0 21 30.0000000  0  8G22G23G21G20G17G26G 6G16
  -3067231.95244  -2390048.78744  23966026.0004   23966031.8954
 -17282100.10144 -13466544.74444  21856189.9464   21856193.7294
   -394583.20944   -307465.30044  25112727.6654
  -6448648.68944  -5024921.00344  23673867.3714   23673874.3004
 -21785932.07344 -16976029.50744  20937377.1954   20937379.5934
  -8758085.39144  -6824472.05844  22325272.7844   22325274.5884
 -24999532.95244 -19480144.67344  20290953.3124   20290955.0374
  -1983163.82044  -1545306.16544  24036353.7254   24036355.1554
 95  6 15  0 22  0.0000000  0  8G22G23G21G20G17G26G 6G16
  -3110228.98344  -2423552.94344  23957844.1374   23957847.3554
 -17352711.72644 -13521566.75844  21842752.9864   21842756.8084
   -492962.94744   -384124.61244  25094005.9254   25094007.7684
  -6345754.86044  -4944744.13644  23693448.0394   23693456.2304
 -21812879.11244 -16997027.18344  20932249.5374   20932251.8044
  -8793414.85544  -6852001.48444  22318549.7664   22318551.8134
 -24976901.32544 -19462509.66044  20295259.8334   20295261.5264
  -1882980.59344  -1467241.32244  24055417.7144   24055423.4544
 95  6 15  0 22 30.0000000  0  8G22G23G21G20G17G26G 6G16
  -3152777.35244  -2456707.52644  23949747.1984   23949754.2714
 -17422984.03144 -13576324.36744  21829380.8574   21829384.2394
   -591289.44344   -460742.42044  25075294.3654   25075297.4504
  -6242847.73844  -4864556.92944  23713030.6964   23713037.6924
 -21839673.22644 -17017905.69744  20927150.5364   20927153.1224
  -8828273.15444  -6879163.77244  22311916.1094   22311917.9584
 -24953808.07944 -19444514.94144  20299654.3494   20299656.0254
  -1782736.99144  -1389129.48344  24074493.2464   24074496.7124
 95  6 15  0 23  0.0000000  0  8G22G23G21G20G17G26G 6G16
  -3194858.24944  -2489497.79344  23941738.6624   23941745.8424
 -17492886.29244 -13630793.63144  21816078.4584   21816082.2464
   -689525.78344                  25056599.4544
  -6139906.51044  -4784343.14544  23732619.9804   23732626.5234
 -21866280.94744 -17038638.96944  20922087.0644   20922089.8554
  -8862636.49544  -6905940.37744  22305377.5454   22305379.3444
 -24930219.29344 -19426134.08344  20304143.3184   20304145.0184
  -1682410.81244  -1310953.27744  24093585.5524   24093588.4144
 95  6 15  0 23 30.0000000  0  7G22G23G20G17G26G 6G16
  -3236472.71144  -2521924.60744  23933821.0014   23933825.1524
 -17562423.75144 -13684978.63444  21802845.9204   21802849.9824
  -6036939.60844  -4704109.35544  23752213.9904   23752220.7374
 -21892695.56944 -17059221.77844  20917060.4954   20917063.4474
  -8896515.12844  -6932339.29644  22298930.6194   22298932.0004
 -24906147.56844 -19407376.91144  20308723.8614   20308725.5264
  -1581992.06444  -1232704.92344  24112693.9034   24112697.6034
 95  6 15  0 24  0.0000000  0  7G23G22G20G17G26G 6G16
 -17631615.58344 -13738894.31244  21789678.9924   21789682.5824
  -3277620.90244  -2553988.10344  23925991.0454   23925993.9324
  -5933943.64344  -4623852.90144  23771813.4694   23771820.1314
 -21918925.94744 -17079661.02144  20912069.0424   20912072.0674
  -8929909.36044  -6958360.75244  22292575.6164   22292577.7134
 -24881605.65344 -19388253.35944  20313394.1964   20313395.7964
  -1481473.61744  -1154378.92444  24131821.8584   24131828.3064
 95  6 15  0 24 30.0000000  0  7G22G23G20G17G26G 6G16
  -3318211.72844  -2585617.30344  23918268.3924   23918271.4824
 -17700375.50344 -13792473.43644  21776594.1984   21776598.1034
  -5830818.27544  -4543495.63044  23791437.2424   23791443.5584
 -21944884.57244 -17099888.51344  20907129.3304   20907132.1854
  -8962722.10044  -6983929.10244  22286331.6544   22286333.0944
 -24856495.96044 -19368687.38344  20318172.3624   20318174.1614
  -1380772.39744  -1075910.48144  24150983.9194   24150987.0144
 95  6 15  0 25  0.0000000  0  7G23G22G20G17G26G 6G16
 -17768783.22044 -13845778.11944  21763576.7464   21763580.2614
  -3358332.71944  -2616880.35844  23910633.1324   23910635.3794
  -5727657.86044  -4463111.06244  23811068.0994   23811074.8914
 -21970640.33644 -17119957.93044  20902228.0314   20902230.8524
  -8995039.81344  -7009111.71444  22280181.4314   22280183.3144
 -24830904.31844 -19348745.86444  20323042.3354   20323043.9764
  -1279971.36244   -997364.24244  24170166.7284   24170172.3004
 95  6 15  0 25 30.0000000  0  8G23G22G21G20G17G26G 6G16
 -17836852.71144 -13898819.24144  21750623.6364   21750627.2534
  -3397984.09544  -2647777.52444  23903087.9234   23903088.3644
        -0.62454                  24963454.0974
  -5624481.06744  -4382713.73644  23830702.2454   23830708.1344
 -21996192.64144 -17139868.80644  20897365.7674   20897368.5974
  -9026858.95644  -7033905.83344  22274126.5564   22274128.6884
 -24804831.14744 -19328429.12644  20328003.7734   20328005.5224
  -1179082.30444   -918749.43444  24189366.1424   24189370.4354
 95  6 15  0 26  0.0000000  0  8G23G22G21G20G17G26G 6G16
 -17904561.20844 -13951579.07944  21737739.0484   21737742.2324
  -3437145.47944  -2678292.92044  23895634.9954   23895638.1694
    -97543.80444    -76006.68144  24944892.5144   24944900.9534
  -5521274.85944  -4302293.47444  23850342.8324   23850347.9064
 -22021517.80244 -17159602.68744  20892546.4254   20892549.4844
  -9058158.92644  -7058295.39244  22268170.3264   22268172.2184
 -24778252.03944 -19307718.15844  20333061.7234   20333063.4444
  -1078102.61344   -840063.98944  24208581.5954   24208585.4724
 95  6 15  0 26 30.0000000  0  8G23G22G21G20G17G26G 6G16
 -17971964.51444 -14004101.10344  21724912.7224   21724916.0144
  -3475873.14444  -2708470.28144  23888264.5474   23888267.6044
   -195020.01344   -151961.87644  24926344.0444   24926351.9304
  -5418124.70844  -4221916.87744  23869970.8774   23869975.7894
 -22046667.15244 -17179199.57244  20887760.7964   20887763.6464
  -9089002.47444  -7082329.29844  22262301.2004   22262303.1454
 -24751232.73044 -19286664.17244  20338203.4754   20338205.2264
   -977097.38944   -761358.65444  24227801.9734   24227805.1294
 95  6 15  0 27  0.0000000  0  8G23G22G21G20G17G26G 6G16
 -18039110.49344 -14056422.61344  21712135.1214   21712138.5074
  -3514218.32544  -2738349.66744  23880967.5154   23880970.5184
   -292482.18144   -227906.16144  24907797.0944   24907808.5124
  -5315097.91744  -4141636.43044  23889576.7114   23889583.4194
 -22071695.34544 -17198702.05244  20882998.3944   20883000.7504
  -9119440.41744  -7106047.15844  22256509.1764   22256511.0614
 -24723830.52644 -19265311.83144  20343417.6804   20343419.5514
   -876122.86344   -682677.24844  24247017.4984   24247022.7704
 95  6 15  0 27 30.0000000  0  8G23G22G21G20G17G26G 6G16
 -18105945.09844 -14108501.49144  21699416.7394   21699420.3924
  -3552117.06844  -2767881.13144  23873756.8094   23873758.6264
   -389880.78744   -303800.87944  24889263.0004   24889268.8094
  -5212123.26844  -4061396.61344  23909171.9784   23909177.9624
 -22096575.01144 -17218088.79244  20878263.8124   20878266.6824
  -9149414.77944  -7129403.77744  22250804.8084   22250806.9074
 -24695993.46244 -19243620.63744  20348715.0764   20348716.7404
   -775131.23144   -603982.52844  24266235.9124   24266238.1004
 95  6 15  0 28  0.0000000  0  8G23G22G21G20G17G26G 6G16
 -18172338.67244 -14160236.71144  21686782.7224   21686786.1984
  -3589429.81344  -2796955.98044  23866656.5724   23866659.4904
   -487075.66144   -379536.92144  24870767.6854   24870769.5664
  -5109056.54844  -3981085.05044  23928785.1574   23928792.3264
 -22121191.79344 -17237270.68644  20873579.2364   20873582.0184
  -9178802.43644  -7152303.21844  22245212.4914   22245214.2684
 -24667612.67644 -19221505.76144  20354115.6604   20354117.2374
   -673990.25444   -525171.40544  24285481.8854   24285485.6594
 95  6 15  0 28 30.0000000  0  8G23G22G21G20G17G26G 6G16
 -18238337.06244 -14211663.98544  21674223.4954   21674227.0334
  -3626195.35244  -2825604.47244  23859660.1354   23859664.9904
   -584108.54544   -455146.69844  24852302.1694   24852306.9984
  -5005933.80344  -3900729.85044  23948408.7254   23948416.2184
 -22145594.28944 -17256285.60544  20868935.5594   20868938.4994
  -9207635.26744  -7174770.33944  22239726.0694   22239728.0994
 -24638719.63744 -19198991.72744  20359613.8774   20359615.7454
   -572738.03944   -446273.62544  24304749.5964   24304752.7264
 95  6 15  0 29  0.0000000  0  8G23G22G21G20G17G26G 6G16
 -18303945.61544 -14262787.48144  21661738.4724   21661741.7554
  -3662415.15544  -2853827.66444  23852766.6714   23852770.2914
   -681000.36744   -530646.55444  24833863.0744   24833864.7864
  -4902750.90844  -3820327.77544  23968044.2304   23968051.3514
 -22169798.53244 -17275146.04644  20864329.7554   20864332.5844
  -9235925.90944  -7196814.98844  22234342.6504   22234344.1934
 -24609305.95144 -19176072.00244  20365211.0494   20365212.7834
   -471391.76344   -367302.55144  24324034.7404   24324038.4304
 95  6 15  0 29 30.0000000  0  8G23G22G21G20G17G26G 6G16
 -18369200.30144 -14313635.25744  21649321.2074   21649324.8894
  -3698115.65644  -2881646.22544  23845972.4964   23845977.4314
   -777776.25044   -606056.10844  24815446.9134   24815446.8944
  -4799548.14844  -3739910.20244  23987683.1184   23987690.7414
 -22193832.16844 -17293873.54644  20859756.1484   20859759.1784
  -9263722.72544  -7218474.81644  22229052.5874   22229054.3914
 -24579396.05344 -19152765.61644  20370902.9904   20370904.7244
   -369984.69644   -288284.06644  24343332.5344   24343336.3354
 95  6 15  0 30  0.0000000  0  8G23G22G21G20G17G26G 6G16
 -18434100.99244 -14364207.19844  21636971.3294   21636974.8204
  -3733310.11544  -2909070.45944  23839275.6804   23839279.9714
   -874448.94644   -681385.18644  24797050.3264   24797053.7894
  -4696363.00144  -3659506.35444  24007318.5034   24007325.9454
 -22217695.93044 -17312468.67444  20855214.9454   20855217.7594
  -9291035.26644  -7239757.29344  22223855.5004   22223857.2994
 -24548980.33744 -19129065.08844  20376690.8684   20376692.8274
   -268534.68444   -209232.10344  24362638.0054   24362641.3914
 95  6 15  0 30 30.0000000  0  8G23G22G21G20G17G26G 6G16
 -18498669.80344 -14414520.51144  21624683.8624   21624687.7094
  -3768056.92344  -2936145.86644  23832663.9214   23832667.0434
   -971063.60944   -756669.10444  24778663.8384
  -4593249.82544  -3579158.62244  24026940.2824   24026947.4944
 -22241424.78844 -17330958.68744  20850699.6134   20850702.5014
  -9317897.91144  -7260689.19644  22218743.2344   22218745.5114
 -24518085.37644 -19104991.12044  20382570.2244   20382571.9214
   -167096.70944   -130189.58544  24381940.9254   24381942.6724
 95  6 15  0 31  0.0000000  0  8G23G22G21G20G17G26G 6G16
 -18562866.33544 -14464543.74544  21612467.5154   21612471.1684
  -3802336.81544  -2962857.49744  23826141.5074   23826143.5734
  -1067592.81144                  24760291.0294
  -4490191.90344  -3498853.90744  24046551.8274   24046559.5194
 -22264990.06544 -17349321.22844  20846215.4014   20846218.2394
  -9344284.61344  -7281250.22744  22213722.0354   22213723.9934
 -24486705.26444 -19080539.10544  20388541.5944   20388543.2814
    -65645.25244    -51136.51644  24401245.9834   24401247.7134
 95  6 15  0 31 30.0000000  0  8G23G22G21G20G17G26G 6G16
 -18626608.74944 -14514213.11944  21600337.7094   21600341.3714
  -3836078.52544  -2989149.76844  23819720.6714   23819724.5864
  -1163928.16944                  24741957.3194
  -4387111.30144  -3418531.56444  24066166.9234   24066175.8594
 -22288297.63344 -17367482.95944  20841779.7794   20841782.8334
  -9370085.92744  -7301355.12544  22208812.7354   22208814.3604
 -24454770.42544 -19055654.83944  20394618.4294   20394620.0724
     35908.54844     27996.23744  24420571.7764   24420573.3034
 95  6 15  0 32  0.0000000  0  8G23G22G21G20G17G26G 6G16
 -18690003.39244 -14563611.51444  21588274.1574   21588277.6514
  -3869385.30244  -3015103.12444  23813381.9474   23813386.0604
  -1260160.98044                  24723647.4104
  -4284102.13744  -3338264.83044  24085769.3924   24085777.1274
 -22311438.35744 -17385514.68244  20837376.3204   20837379.2404
  -9395376.65944  -7321062.15844  22203999.9964   22204001.8094
 -24422393.47744 -19030426.07744  20400779.5214   20400781.3804
    137461.03944    107128.01744  24439896.4364   24439896.2944
 95  6 15  0 32 30.0000000  0  8G23G22G21G20G17G26G 6G16
 -18753067.88544 -14612752.64044  21576273.2194   21576276.6444
  -3902256.56144  -3040717.06744  23807126.2604   23807130.7354
  -1356276.30344                  24705358.5464
  -4181167.12744  -3258055.88944  24105357.8194   24105365.2184
 -22334400.11744 -17403406.95244  20833006.8764   20833009.8354
  -9420159.49544  -7340373.43344  22199283.8204   22199285.6924
 -24389590.23644 -19004865.14244  20407022.0124   20407023.7104
    239027.41744    186270.59844  24459222.5864   24459226.8454
 95  6 15  0 33  0.0000000  0  8G23G22G21G20G17G26G 6G16
 -18815763.05644 -14661605.97444  21564342.6634   21564346.5644
  -3934624.37144  -3065938.71944  23800966.2304   23800972.5144
  -1452202.78344  -1131581.42944  24687104.8434   24687115.0204
  -4078259.32444  -3177868.15844  24124940.9594   24124951.8814
 -22357118.41044 -17421109.51244  20828683.7814   20828686.5684
  -9444375.44844  -7359242.98344  22194675.6574   22194677.0384
 -24356296.52844 -18978922.02144  20413357.5504   20413359.4264
    340678.14844    265478.95444  24478566.5304   24478570.0424
 95  6 15  0 33 30.0000000  0  8G23G26G22G21G20G17G 6G16
 -18878056.38944 -14710146.18744  21552488.9034   21552492.1064
  -9467994.90644  -7377647.74144  22190181.2414   22190182.7014
  -3966446.75244  -3090735.36144  23794911.3844   23794914.6884
  -1547913.57244  -1206161.00244  24668892.3614   24668901.0494
  -3975348.06444  -3097677.73544  24144524.6654   24144534.3454
 -22379558.57644 -17438595.34544  20824413.8444   20824416.4324
 -24322450.35344 -18952548.40844  20419798.2564   20419800.1204
    442449.72444    344781.41244  24497933.9894   24497937.7634
 95  6 15  0 34  0.0000000  0  8G23G26G22G21G20G17G 6G16
 -18939892.28644 -14758329.94844  21540721.5644   21540725.3064
  -9491003.15244  -7395576.23444  22185802.9494   22185804.7584
  -3997675.99044  -3115069.81844  23788968.2934   23788972.9894
  -1643396.37944  -1280562.96044  24650721.9414   24650731.8694
  -3872388.54544  -3017449.72544  24164118.2814   24164125.3794
 -22401681.50544 -17455833.97944  20820203.7374   20820206.6314
 -24287995.58444 -18925700.56044  20426354.5154   20426356.4834
    544383.60644    424210.38144  24517332.3174   24517335.7934
 95  6 15  0 34 30.0000000  0  8G23G26G22G21G20G17G 6G16
 -19001297.01744 -14806177.75244  21529036.6454   21529040.1514
  -9513458.92144  -7413074.22844  22181528.9184   22181531.2684
  -4028361.78444  -3138980.82544  23783129.5814   23783134.1664
  -1738718.05944  -1354839.33444  24632583.8424   24632593.7704
  -3769421.83844  -2937216.07944  24183710.6844   24183716.8284
 -22423548.75044 -17472873.38144  20816042.7594   20816045.6784
 -24252964.09544 -18898403.31844  20433021.1234   20433023.0984
    646438.58244    503733.68144  24536751.6274   24536755.4894
 95  6 15  0 35  0.0000000  0  8G23G26G22G21G20G17G 6G16
 -19062380.16744 -14853774.98044  21517413.2314   21517416.4734
  -9535478.38544  -7430232.32144  22177339.0224   22177341.1554
  -4058620.78844  -3162559.27044  23777371.7504   23777377.7084
  -1834014.57144  -1429096.20744  24614450.2174   24614453.8024
  -3666547.40744  -2857054.40644  24203287.9164   24203292.6424
 -22445284.90644 -17489810.62944  20811906.4624   20811909.4004
 -24217471.85644 -18870747.05344  20439775.0514   20439776.5984
    748477.10544    583244.15344  24556167.7674   24556170.7314
 95  6 15  0 35 30.0000000  0  8G23G26G22G21G20G17G 6G16
 -19123070.91944 -14901066.43644  21505864.1094   21505867.4794
  -9556993.53444  -7446997.18544  22173244.8804   22173246.6204
  -4088381.93644  -3185749.74244  23771708.0434   23771714.4474
  -1929221.96344  -1503283.57144  24596332.8194   24596337.3434
  -3563677.02544  -2776895.82344  24222863.2334   24222872.6654
 -22466831.33444 -17506600.05844  20807806.0984   20807809.0864
 -24181464.39544 -18842689.32244  20446626.9644   20446628.7784
    850562.91144    662791.50244  24575593.9844   24575597.9424
 95  6 15  0 36  0.0000000  0  8G23G26G22G21G20G17G 6G16
 -19183435.22544 -14948103.51744  21494376.7524   21494380.3514
  -9578048.67144  -7463403.83344  22169238.3804   22169240.1534
  -4117698.39744  -3208593.79144  23766130.4374   23766133.6004
  -2024373.00744  -1577427.05444  24578225.4554   24578228.3684
  -3460856.04244  -2696775.76944  24242429.2514   24242436.8014
 -22488237.63344 -17523280.28444  20803732.6014   20803735.3884
 -24145017.81044 -18814289.41444  20453562.4994   20453564.2844
    952646.04044    742336.78544  24595021.7374   24595022.8314
 95  6 15  0 36 30.0000000  0  8G23G26G22G21G20G17G 6G16
 -19243448.58744 -14994867.14344  21482956.6654   21482960.0224
  -9598588.23644  -7479408.68544  22165330.0714   22165331.1984
  -4146529.59744  -3231059.69044  23760642.9774   23760646.1744
  -2119408.12244  -1651480.20944  24560141.0924   24560145.6484
  -3358063.95744  -2616678.20644  24261990.4794   24261999.1674
 -22509475.51044 -17539829.27144  20799691.1474   20799694.1474
 -24108112.05744 -18785531.71844  20460585.6404   20460587.4804
   1054757.48444    821904.13144  24614451.9114   24614455.6384
 95  6 15  0 37  0.0000000  0  8G23G26G22G21G20G17G 6G16
 -19303045.59844 -15041306.34444  21471615.9704   21471619.3304
  -9618527.95544  -7494946.11644  22161535.2374   22161536.9364
  -4174806.04444  -3253093.26144  23755262.0214   23755266.3944
  -2214243.79144  -1725377.96544  24542094.0494   24542098.6924
  -3255256.83544  -2536568.93144  24281553.4094   24281562.5934
 -22530466.69844 -17556186.03444  20795696.5024   20795699.4114
 -24070692.56844 -18756373.70244  20467706.3364   20467708.1084
   1156955.09944    901538.66444  24633899.5414   24633902.5024
 95  6 15  0 37 30.0000000  0  8G23G26G22G21G20G17G 6G16
 -19362228.96744 -15087423.22844  21460353.6374   21460356.7244
  -9637878.86644  -7510024.74344  22157853.1784   22157855.0314
  -4202541.38644  -3274705.21344  23749984.2004   23749987.5684
  -2308885.46344  -1799124.53644  24524083.4354   24524086.6584
  -3152469.52844  -2456475.10844  24301113.5404   24301121.4294
 -22551224.71644 -17572361.10544  20791746.7594   20791748.8974
 -24032774.10444 -18726826.87944  20474921.5834   20474923.4774
   1259228.80044    981232.42344  24653362.0184   24653366.3694
 95  6 15  0 38  0.0000000  0  8G23G26G22G21G20G17G 6G16
 -19420998.99144 -15133218.02244  21449169.8244   21449172.9934
  -9656649.30844  -7524651.05744  22154281.2784   22154283.2644
  -4229743.66344  -3295901.74044  23744808.2604   23744813.1514
  -2403354.98544  -1872737.00244  24506104.4824   24506110.9164
  -3049739.75444  -2376426.12544  24320661.2324   24320668.2014
 -22571758.90744 -17588361.77044  20787839.0154   20787841.2624
 -23994354.97444 -18696889.92744  20482232.8134   20482234.5984
   1361552.38344   1060965.08444  24672833.4634   24672838.7934
 95  6 15  0 38 30.0000000  0  8G23G26G22G21G20G17G 6G16
 -19479417.06444 -15178738.56344  21438053.3774   21438056.5564
  -9674918.13444  -7538886.49944  22150804.7104   22150806.3394
  -4256489.95644  -3316742.95744  23739717.4094   23739723.4244
  -2497745.55744  -1946287.92644  24488140.0994   24488148.5384
  -2947157.30744  -2296491.93644  24340183.3554   24340193.2844
 -22592151.39044 -17604252.00444  20783958.4174   20783961.1794
 -23955508.82844 -18666620.23544  20489625.0224   20489626.9114
   1463830.98344   1140662.66144  24692297.0434   24692298.8044
 95  6 15  0 39  0.0000000  0  8G23G26G22G21G20G17G 6G16
 -19537476.05644 -15223979.29644  21427005.1274   21427008.3474
  -9692677.30244  -7552724.81744  22147424.9594   22147426.6924
  -4282773.11744  -3337223.31644  23734717.2154   23734720.5134
  -2592065.61744  -2019783.86244  24470191.4344   24470201.8594
  -2844704.68844  -2216658.92344  24359679.4364   24359688.3724
 -22612388.17344 -17620020.91644  20780107.5194   20780110.1974
 -23916215.07244 -18636001.75144  20497102.4854   20497104.2874
   1566073.64144   1220332.15044  24711752.5154
 95  6 15  0 39 30.0000000  0  8G23G26G22G21G20G17G 6G16
 -19595148.62944 -15268918.92344  21416030.4464   21416033.8124
  -9709884.88144  -7566133.31344  22144150.8424   22144152.6564
  -4308537.06744  -3357299.13944  23729814.7304   23729817.5244
  -2686271.60144  -2093190.86644  24452262.9514   24452274.6174
  -2742321.12044  -2136879.74144  24379163.6554   24379173.5844
 -22632432.85144 -17635640.13944  20776293.0224   20776295.8624
 -23876421.58844 -18604993.86644  20504674.8914   20504676.5354
   1668329.06244                  24731211.1944
 95  6 15  0 40  0.0000000  0  8G23G26G22G21G20G17G 6G16
 -19652422.83444 -15313548.13444  21405131.3174   21405134.5984
  -9726521.72044  -7579097.08744  22140984.9344   22140986.3344
  -4333769.29244  -3376960.64244  23725012.8284   23725015.7614
  -2780348.92344  -2166497.65844  24434364.6474   24434369.5564
  -2639985.18144  -2057137.65444  24398637.0474   24398643.7664
 -22652267.62444 -17651095.80244  20772518.6574   20772521.4354
 -23836121.15944 -18573590.95644  20512343.6124   20512345.5084
   1770617.20944   1379716.72644  24750676.3324   24750680.0704
 95  6 15  0 40 30.0000000  0  8G23G26G22G21G20G17G 6G16
 -19709320.90744 -15357884.25944  21394304.1744   21394307.2674
  -9742597.71644  -7591623.83944  22137925.7134   22137927.6124
  -4358486.87144  -3396221.13444  23720309.0924   23720312.6304
  -2874300.71044  -2239706.65944  24416486.9794   24416491.5324
  -2537705.16544  -1977439.15744  24418099.8174   24418108.5044
 -22671909.80944 -17666401.39344  20768781.0484   20768783.8254
 -23795337.39344 -18541811.42644  20520104.7074   20520106.6964
   1872941.21544   1459449.72844  24770147.5174   24770150.5504
 95  6 15  0 41  0.0000000  0  8G23G26G22G21G20G17G 6G16
 -19765801.30544 -15401894.91844  21383556.1804   21383559.2054
  -9758051.58344  -7603665.81244  22134985.2664   22134987.3364
  -4382630.46144  -3415034.32844  23715714.7924   23715717.5254
  -2968040.06444  -2312750.11544  24398649.4784   24398654.8594
  -2435425.04144  -1897740.56344  24437564.6484   24437570.5264
 -22691296.89144 -17681508.20544  20765091.8984   20765094.3634
 -23754006.15344 -18509605.29344  20527969.9194   20527971.7404
   1975362.43744   1539258.45244  24789637.7004   24789640.9174
 95  6 15  0 41 30.0000000  0  8G23G26G22G21G20G17G 6G16
 -19821865.63244 -15445581.36844  21372887.5644   21372890.7874
  -9772907.17444  -7615241.61344  22132158.2174   22132159.7724
  -4406223.20944  -3433418.27544  23711224.2994   23711230.2544
  -3061554.44844  -2385618.27444  24380855.1694   24380860.0214
  -2333167.27844  -1818059.39444  24457021.4604   24457032.8784
 -22710444.11244 -17696428.11444  20761448.2294   20761450.7804
 -23712142.20044 -18476984.05544  20535936.2154   20535937.9424
   2077865.12644   1619130.61444  24809143.5734   24809148.9424
 95  6 15  0 42  0.0000000  0  8G23G26G22G21G20G17G 6G16
 -19877552.96144 -15488974.05644  21362290.4584   21362293.6534
  -9787228.90844  -7626401.40344  22129432.7254   22129434.7174
  -4429334.15944  -3451426.78444  23706827.1104   23706830.3314
  -3154886.11444  -2458344.04844  24363094.4024   24363098.3014
  -2230996.48644  -1738446.01744  24476465.7234   24476474.1624
 -22729406.16244 -17711203.73544  20757839.8364   20757842.7924
 -23669790.76144 -18443982.95944  20543995.6824   20543997.8544
   2180389.45944   1699019.64644  24828653.3644
 95  6 15  0 42 30.0000000  0  8G23G26G22G21G20G17G 6G16
 -19932919.81144 -15532117.02544  21351754.2724   21351757.6144
  -9801069.82344  -7637186.53844  22126798.9934   22126800.3624
  -4452003.15544  -3469090.94844  23702513.5514   23702516.3264
  -3248070.40644  -2530954.99644  24345362.4014   24345364.9834
  -2128961.03844  -1658938.07944  24495883.0894   24495890.7114
 -22748237.84444 -17725877.76844  20754256.2474   20754259.1094
 -23626987.44844 -18410629.75644  20552140.8304   20552142.9284
   2282879.78444   1778882.25444  24848157.4124
 95  6 15  0 43  0.0000000  0  8G23G26G22G21G20G17G 6G16
 -19987982.40844 -15575022.91244  21341276.0594   21341279.4514
  -9814460.25544  -7647620.62944  22124250.8964   22124252.4904
  -4474249.46544  -3486425.74544  23698280.2734   23698284.5914
  -3341127.47344  -2603466.81844  24327653.4414   24327657.9054
  -2027087.58144  -1579556.38744  24515267.3004   24515273.6624
 -22766956.98544 -17740464.11544  20750694.2054   20750696.9334
 -23583746.81644 -18376935.78844  20560369.3804   20560371.2304
   2385301.78044   1858691.54344  24867649.7684   24867654.0414
 95  6 15  0 43 30.0000000  0  8G23G26G22G21G20G17G 6G16
 -20042694.46144 -15617655.65144  21330864.8574   21330868.2454
  -9827382.26244  -7657689.72344  22121791.8684   22121793.1174
  -4496042.87644  -3503407.62544  23694133.5904   23694136.9594
  -3434056.50044  -2675878.88544  24309969.9124   24309972.4934
  -1925348.60244                  24534628.1884
 -22785543.74144 -17754947.29744  20747157.4524   20747159.8134
 -23540043.88544 -18342881.58144  20568685.7844   20568687.6184
   2487676.20844   1938463.73044  24887130.0744   24887131.1944
 95  6 15  0 44  0.0000000  0  8G23G26G22G21G20G17G 6G16
 -20096961.01444 -15659941.24444  21320538.2124   21320541.6834
  -9839721.88944  -7667305.00144  22119443.5974   22119445.4644
  -4517266.25744  -3519945.31744  23690095.3314   23690098.4584
  -3526765.80944  -2748119.74244  24292326.5084   24292329.6794
  -1823632.61544                  24553985.3524
 -22803883.66744 -17769238.14444  20743667.4684   20743669.8994
 -23495787.60244 -18308396.18644  20577107.3414   20577109.4904
   2590102.38144   2018276.34044  24906620.7164   24906622.3754
 95  6 15  0 44 30.0000000  0  8G23G26G22G21G20G17G 6G16
 -20150757.36844 -15701860.44944  21310301.2234   21310304.4144
  -9851445.93844  -7676440.61044  22117212.4574   22117214.7284
  -4537889.04044  -3536015.01944  23686170.9654   23686174.3194
  -3619239.40944  -2820176.90044  24274726.7704   24274736.9474
  -1721917.14144                  24573339.8424
 -22821945.64644 -17783312.41144  20740230.4474   20740232.6524
 -23450960.59044 -18273466.07144  20585637.8114   20585639.5504
   2692602.97244                  24926126.0294
 95  6 15  0 45  0.0000000  0  8G23G26G22G21G20G17G 6G16
 -20204136.40744 -15743454.47144  21300143.7424   21300147.0134
  -9862608.88844  -7685138.99844  22115088.5964   22115089.4434
  -4557978.68044  -3551669.27444  23682347.7924   23682350.9934
  -3711539.01344                  24257159.9634
  -1620268.26744                  24592684.0774
 -22839785.80544 -17797213.82744  20736835.2244   20736838.0234
 -23405631.12244 -18238144.43244  20594263.4424   20594265.3264
   2795108.11044                  24945631.4144
 95  6 15  0 45 30.0000000  0  8G23G26G22G21G20G17G 6G16
 -20257040.87244 -15784678.69644  21290076.2754   21290079.4384
  -9873144.63844  -7693348.65744  22113083.4134   22113085.7094
  -4577492.51244  -3566874.83944  23678634.3044   23678638.4824
  -3803619.00844                  24239638.2294
  -1518612.61244                  24612028.6724
 -22857340.13944 -17810892.52044  20733494.8744   20733497.3404
 -23359738.84144 -18202384.24044  20602996.5854   20602998.5674
   2897672.12744   2257941.06244  24965147.8374   24965150.9044
 95  6 15  0 46  0.0000000  0  8G23G26G22G21G20G17G 6G16
 -20309660.46444 -15825680.94344  21280062.8324   21280066.0494
  -9883227.17144  -7701205.16144  22111164.8844   22111166.8644
  -4596623.01644  -3581781.73544  23674993.4404   23674997.1934
  -3895670.61444  -3035577.21144  24222123.2374   24222133.6624
  -1417141.73444                  24631338.0214
 -22874799.10044 -17824496.90544  20730172.4144   20730174.9414
 -23313469.48644 -18166330.23144  20611801.5514   20611803.6924
   3000113.26044   2337765.31544  24984641.5274   24984642.8034
 95  6 15  0 46 30.0000000  0  7G23G26G22G21G20G17G 6
 -20361911.11344 -15866395.69744  21270119.5844   21270123.0404
  -9892770.75644  -7708641.69744  22109348.5094   22109350.0534
  -4615282.36144  -3596321.53344  23671442.5074
  -3987623.54644  -3107228.72344  24204625.4224   24204632.8134
  -1315795.01444  -1025304.06244  24650624.2244
 -22892102.33544 -17837979.94444  20726879.8624   20726882.4344
 -23266724.48044 -18129905.59044  20620696.7984   20620699.0244
 95  6 15  0 47  0.0000000  0  7G23G22G21G20G17G26G 6
 -20413793.25144 -15906823.30544  21260247.0064   21260250.3874
  -4633462.51644  -3610487.96744  23667982.6214
  -4079480.38944  -3178805.28544  24187146.6674   24187154.3244
  -1214571.15644                  24669887.2984
 -22909248.94944 -17851340.93444  20723616.9794   20723619.5764
  -9901762.60844  -7715648.32044  22107637.2584   22107639.0154
 -23219505.54944 -18093111.65244  20629682.2954   20629684.3084
 95  6 15  0 47 30.0000000  0  7G23G26G22G21G20G17G 6
 -20465296.01244 -15946955.29644  21250446.3534   21250449.7894
  -9910182.70844  -7722209.41844  22106035.5304   22106037.0594
  -4651146.79144  -3624268.46244  23664617.9334   23664617.8664
  -4171240.34844  -3250306.38644  24169685.5824   24169691.4294
  -1113473.30344   -867651.27944  24689124.6914
 -22926229.60544 -17864572.61244  20720385.5984   20720388.1854
 -23171803.53644 -18055941.28344  20638759.5694   20638761.5844
 95  6 15  0 48  0.0000000  0  7G23G26G22G21G20G17G 6
 -20516230.56644 -15986644.53144  21240754.0874   21240757.2494
  -9917839.50044  -7728175.73844  22104578.0484   22104580.2694
  -4668126.27744  -3637504.29444  23661386.0464   23661388.7294
  -4262687.54444  -3321563.78844  24152283.9664   24152288.1104
  -1012334.44244                  24708371.5954
 -22942859.25144 -17877530.77744  20717221.1314   20717223.5474
 -23123446.40844 -18018260.43144  20647961.8644   20647963.6924
 95  6 15  0 48 30.0000000  0  7G23G26G22G21G20G17G 6
 -20566759.39244 -16026017.61544  21231138.4764   21231141.7764
  -9924875.63544  -7733658.43644  22103239.1754   22103240.5794
  -4684536.17744  -3650291.49944  23658263.8244   23658266.4824
  -4353937.05744  -3392667.12144  24134919.1784   24134924.3734
   -911291.06044   -710107.15744  24727599.1944
 -22959261.26844 -17890311.56744  20714099.6034   20714102.3904
 -23074589.38644 -17980190.05744  20657258.9024   20657260.9464
 95  6 15  0 49  0.0000000  0  7G23G26G22G21G20G17G 6
 -20616948.23644 -16065125.77844  21221588.0514   21221591.2014
  -9931369.27844  -7738718.41044  22102003.5654   22102004.9244
  -4700463.04944  -3662696.64144  23655233.4314
  -4445030.66644  -3463648.97644  24117584.7764   24117589.1654
   -810394.59644   -631486.75244  24746798.7334
 -22975481.29644 -17902950.54844  20711013.2974   20711015.8774
 -23025314.16644 -17941793.81944  20666635.6244   20666637.6064
 95  6 15  0 49 30.0000000  0  7G23G26G22G21G20G17G 6
 -20666793.06744 -16103965.87644  21212102.6414   21212105.7854
  -9937335.28344  -7743367.23644  22100867.9984   22100869.5954
  -4715907.09144  -3674731.42844  23652294.7614   23652294.7744
  -4535953.15744  -3534497.50744  24100284.0884   24100287.2714
   -709641.75944                  24765973.6344
 -22991504.93644 -17915436.49744  20707964.1004   20707966.7124
 -22975616.27744 -17903068.22944  20676092.8144   20676094.7864
 95  6 15  0 50  0.0000000  0  7G23G26G22G21G20G17G 6
 -20716206.91844 -16142470.14544  21202699.7034   21202702.7324
  -9942699.90644  -7747547.44644  22099847.2874   22099848.7384
  -4730783.78344  -3686323.68844  23649463.6504   23649464.1484
  -4626606.70544  -3605136.52044  24083033.2274   24083035.6074
   -608929.35444                  24785151.2844
 -23007242.73144 -17927699.70544  20704969.1694   20704971.8394
 -22925409.14544 -17863945.81844  20685647.2384   20685649.2064
 95  6 15  0 50 30.0000000  0  7G23G26G22G21G20G17G 6
 -20765320.71044 -16180740.59844  21193353.6724   21193356.8034
  -9947606.00744  -7751370.36544  22098913.5494   22098915.1304
  -4745236.95244  -3697585.90644  23646713.3154   23646719.3364
  -4717142.50044  -3675683.73744  24065804.7784   24065807.9654
   -509112.10744                  24804264.6374
 -23022837.87444 -17939851.76544  20702001.3494   20702004.1334
 -22874815.37544 -17824522.13044  20695274.3914   20695276.4814
 95  6 15  0 51  0.0000000  0  6G23G26G22G21G17G 6
 -20814081.13744 -16218735.70044  21184074.3844   21184077.6044
  -9952037.72544  -7754823.64044  22098070.8244   22098071.8594
  -4759248.06444  -3708503.66344  23644047.4384   23644050.7144
  -4807544.61044  -3746126.75444  24048601.0844   24048604.8904
 -23038276.69044 -17951882.00644  20699063.4134   20699066.4514
 -22823798.92244 -17784769.07744  20704982.5824   20704984.6334
 95  6 15  0 51 30.0000000  0  7G23G26G22G21G20G17G 6
 -20862435.89944 -16256414.70244  21174873.2204   21174876.3364
  -9955936.68944  -7757861.76544  22097328.5764   22097330.1444
  -4772757.71344  -3719030.67744  23641476.0144   23641479.6984
  -4897777.98944  -3816438.30644  24031427.9474   24031433.9544
        -0.38854                  24842439.8464
 -23053533.38744 -17963770.33844  20696160.1884   20696163.0194
 -22772300.18644 -17744640.21644  20714782.6504   20714784.7874
 95  6 15  0 52  0.0000000  0  7G23G26G22G21G20G17G 6
 -20910312.06144 -16293720.77244  21165762.3234   21165765.4484
  -9959220.10744  -7760420.25644  22096703.4994   22096705.0204
  -4785695.28744  -3729111.92844  23639013.6314   23639018.5284
  -4987770.07644  -3886561.83544  24014302.2274   24014308.8024
    100150.81844     78039.10344  24861498.8674   24861505.4824
 -23068558.15844 -17975477.95044  20693301.1784   20693304.0274
 -22720243.16544 -17704076.33444  20724688.7984   20724690.9224
 95  6 15  0 52 30.0000000  0  7G23G26G22G21G20G17G 6
 -20957841.44744 -16330756.62344  21156717.8504   21156720.9994
  -9962004.71244  -7762590.06244  22096173.7274   22096175.2414
  -4798188.07644  -3738846.56044  23636636.2474   23636641.1854
  -5077646.40644  -3956595.18744  23997199.3524   23997208.0404
    200086.65144    155910.92544  24880516.4614   24880523.8274
 -23083473.44244 -17987100.24444  20690462.7184   20690465.7774
 -22667758.26444 -17663179.04444  20734676.1324   20734678.2614
 95  6 15  0 53  0.0000000  0  7G23G26G22G21G20G17G 6
 -21005023.47544 -16367521.80944  21147739.3274   21147742.4674
  -9964271.32644  -7764356.24344  22095742.5204   22095744.3174
  -4810233.78244  -3748232.80144  23634344.3674   23634348.1204
  -5167398.38944  -4026531.65644  23980120.7424   23980128.0104
    299812.90444    233619.37244  24899493.6584   24899504.5804
 -23098266.49344 -17998627.29144  20687647.9114   20687650.6194
 -22614837.45844 -17621942.08744  20744746.9264   20744749.0804
 95  6 15  0 53 30.0000000  0  7G23G26G22G21G20G17G 6
 -21051773.78744 -16403950.59844  21138842.8034   21138845.9944
  -9965908.07544  -7765631.60844  22095431.0124   22095432.9904
  -4821721.34944  -3757184.14944  23632158.1014   23632162.6124
  -5256933.42444  -4096299.04944  23963081.7244   23963091.4054
    399439.27744    311250.02744  24918452.4644   24918459.1734
 -23112829.65144 -18009975.20544  20684876.4904   20684879.3464
 -22561382.78244 -17580289.12544  20754919.2664   20754921.3994
 95  6 15  0 54  0.0000000  0  7G23G26G22G21G20G17G 6
 -21098075.23644 -16440029.61744  21130031.8604   21130035.0354
  -9966890.16144  -7766396.85144  22095244.0624   22095245.4294
  -4832620.87344  -3765677.28144  23630084.8434   23630089.0194
  -5346218.12944  -4165871.38044  23946090.5394   23946099.4754
    499003.18244    388831.97944  24937399.0414   24937406.1734
 -23127104.91544 -18021098.77944  20682159.7434   20682162.8024
 -22507380.48344 -17538209.43944  20765195.3854   20765197.2704
 95  6 15  0 54 30.0000000  0  7G23G26G22G21G20G17G 6
 -21143934.31944 -16475763.94144  21121305.5304   21121308.6494
  -9967227.17944  -7766659.43744  22095179.7854   22095181.4174
  -4842938.78244  -3773717.21044  23628120.8194   23628125.1374
  -5435273.73344  -4235265.21744  23929143.2824   23929154.2044
    598506.21944    466366.52544  24956333.4244   24956343.6014
 -23141080.00644 -18031988.45644  20679500.5724   20679503.3414
 -22452829.34944 -17495702.09344  20775576.2894   20775578.3074
 95  6 15  0 55  0.0000000  0  8G23G26G22G21G20G17G 6G28
 -21189417.16544 -16511205.09844  21112650.3174   21112653.4684
  -9966999.59544  -7766482.08444  22095223.0844   22095224.9184
  -4852761.74644  -3781371.47344  23626251.7254   23626255.2254
  -5524179.25944  -4304542.09144  23912225.6224   23912234.8064
    697866.22744                  24975241.4244
 -23154830.61444 -18042703.21444  20676884.0024   20676886.8054
 -22397798.89244 -17452821.25544  20786048.0494   20786050.1394
        -0.45914        -0.23214  25364442.743    25364440.095
 95  6 15  0 55 30.0000000  0  8G23G26G22G21G20G17G 6G28
 -21234533.92144 -16546360.97944  21104064.9604   21104068.0094
  -9966233.60044  -7765885.17944  22095368.7954   22095370.5754
  -4862101.37744  -3788649.12244  23624474.2824   23624478.6354
  -5612941.52244  -4373707.32944  23895336.0834   23895342.5584
    797066.06244                  24994118.7614
 -23168373.20644 -18053255.87744  20674306.8504   20674309.8514
 -22342316.14644 -17409587.97844  20796606.0554   20796608.4204
   -107680.750 4    -83906.900 4  25343950.274    25343949.579
 95  6 15  0 56  0.0000000  0  8G23G26G22G21G20G17G 6G28
 -21279358.10844 -16581288.88644  21095535.2164   21095538.2894
  -9965022.82344  -7764941.70944  22095599.3714   22095601.2074
  -4871059.34544  -3795629.37544  23622770.0984   23622774.2804
  -5701627.94944  -4442813.52044  23878460.5814   23878467.2314
    896013.56144    698189.47144  25012948.4974   25012958.4264
 -23181802.17844 -18063720.01044  20671751.3824   20671754.3464
 -22286464.65444 -17366067.36544  20807234.4074   20807236.6814
   -215474.412 4   -167901.929 4  25323437.699    25323436.927
 95  6 15  0 56 30.0000000  0  8G23G26G22G21G20G17G 6G28
 -21323772.69944 -16615897.62544  21087083.4214   21087086.6004
  -9963262.13944  -7763569.72444  22095934.3384   22095935.9264
  -4879541.19044  -3802238.62844  23621156.5294   23621159.4424
  -5790130.82844  -4511776.68444  23861618.2864   23861622.5284
    994800.06044    775165.61544  25031747.0684   25031757.2454
 -23195040.51444 -18074035.59544  20669232.1384   20669235.1494
 -22230133.26044 -17322172.80544  20817953.8034   20817956.1384
   -323279.249 4   -251905.639 4  25302923.502    25302922.953
 95  6 15  0 57  0.0000000  0  8G23G26G22G21G20G17G 6G28
 -21367702.79044 -16650128.83244  21078723.6004   21078726.7924
  -9960876.36644  -7761710.67844  22096388.5564   22096389.6094
  -4887463.60844  -3808411.95744  23619648.8334   23619652.3444
  -5878347.84344  -4580517.07844  23844830.8714   23844836.1354
   1093504.87644                  25050529.8594
 -23208027.47244 -18084155.29644  20666761.0784   20666763.4394
 -22173263.99344 -17277859.12444  20828775.8904   20828777.9664
   -431013.437 4   -335854.337 4  25282423.139    25282423.085
 95  6 15  0 57 30.0000000  0  8G23G26G22G21G20G17G 6G28
 -21411163.59244 -16683994.36844  21070453.3904   21070456.3344
  -9957862.48044  -7759362.18744  22096961.7874   22096963.8164
  -4894809.90744  -3814136.36744  23618250.6214   23618253.7354
  -5966282.94544  -4649037.80044  23828096.6244   23828104.8154
   1192124.50844                  25069298.0214
 -23220778.07344 -18094090.82244  20664334.7294   20664337.4184
 -22115858.22444 -17233127.38844  20839699.7424   20839702.0184
   -538676.948 4   -419747.964 4  25261935.223    25261935.366
 95  6 15  0 58  0.0000000  0  8G23G26G22G21G20G17G 6G28
 -21454287.89844 -16717597.69344  21062247.2924   21062250.3454
  -9954336.38644  -7756614.56844  22097632.7784   22097634.5214
  -4901706.62244  -3819510.43044  23616938.0004   23616941.3604
  -6054069.29744  -4717442.59044  23811392.7444   23811398.4774
   1290534.61844   1005607.21444  25088025.0714
 -23233412.44344 -18103935.77944  20661930.4864   20661932.9784
 -22058033.49844 -17188069.18244  20850703.3014   20850705.5004
   -646392.978 4   -503682.487 4  25241437.070    25241436.122
 95  6 15  0 58 30.0000000  0  8G23G26G22G21G20G17G 6G28
 -21496978.56044 -16750863.11044  21054123.3634   21054126.3184
  -9950186.51044  -7753380.88344  22098422.1274   22098424.0374
  -4908046.53044  -3824450.62844  23615731.7824   23615734.2074
  -6141619.21944  -4785663.16144  23794732.7844   23794737.3924
   1388836.63644                  25106730.2784
 -23245828.19244 -18113610.39144  20659567.7424   20659570.5044
 -21999695.55444 -17142611.06644  20861804.6364   20861806.6554
   -754055.660 4   -587575.427 4  25220948.798    25220948.967
 95  6 15  0 59  0.0000000  0  8G23G26G22G21G20G17G 6G28
 -21539261.73944 -16783811.01344  21046077.0704   21046079.9534
  -9945424.75744  -7749670.41544  22099328.7214   22099329.9374
  -4913849.46644  -3828972.44944  23614627.7624   23614631.1434
  -6228961.26844  -4853721.76244  23778112.4714   23778117.1494
   1487013.63844   1158707.05744  25125412.7814
 -23258031.28644 -18123119.28944  20657245.4364   20657247.8884
 -21940861.58044 -17096766.43544  20873000.2664   20873002.5024
   -861679.774 4   -671438.345 4  25200468.676    25200468.972
 95  6 15  0 59 30.0000000  0  8G23G26G22G21G20G17G 6G28
 -21581160.10444 -16816459.06044  21038103.7954   21038106.8444
  -9940064.62744  -7745493.67644  22100348.4834   22100349.6444
  -4919149.20844  -3833102.11444  23613618.5764   23613623.3764
  -6316138.29244  -4921651.83044  23761522.6974   23761525.6994
   1585031.19044                  25144065.8244
 -23270037.01044 -18132474.39544  20654960.7574   20654963.3314
 -21881550.66644 -17050550.16344  20884286.9044   20884288.9634
   -969291.205 4   -755291.296 4  25179991.598    25179992.147
 95  6 15  1  0  0.0000000  0  8G23G26G22G21G20G17G 6G28
 -21622708.58944 -16848834.47044  21030197.1714   21030200.3444
  -9934160.17144  -7740892.78944  22101472.2584   22101473.8884
  -4923992.51744  -3836876.13744  23612696.2664   23612702.3484
  -6403194.75144  -4989487.89244  23744955.6134   23744960.9844
   1682855.89844                  25162681.1664
 -23281880.25444 -18141702.89344  20652706.9844   20652709.8214
 -21821813.76244 -17004001.95744  20895654.5114   20895656.6224
  -1076931.553 4   -839166.882 4  25159508.157    25159507.445
 95  6 15  1  0 30.0000000  0  7G23G26G22G21G20G17G 6
 -21663906.54244 -16880936.73844  21022357.7934   21022360.7314
  -9927720.03744  -7735874.48744  22102698.0104   22102699.4924
  -4928381.12644  -3840295.85844  23611860.4834   23611865.7414
  -6490133.09744  -5057231.88844  23728411.3784   23728417.1024
   1780475.60144                  25181258.3394
 -23293570.27044 -18150811.98844  20650482.6954   20650485.0794
 -21761659.45744 -16957128.50844  20907101.5324   20907103.7124
 95  6 15  1  1  0.0000000  0  7G23G26G22G21G20G17G 6
 -21704732.86744 -16912749.42344  21014588.6104   21014591.6694
  -9920726.66344  -7730425.08944  22104028.4914   22104030.1734
  -4932296.17744  -3843346.56044  23611115.0934   23611120.3564
  -6576923.09044  -5124860.33344  23711896.3924   23711900.4564
   1877902.72144                  25199799.4494
 -23305076.87244 -18159778.16344  20648293.0994   20648295.4794
 -21701064.65044 -16909911.80444  20918632.2534   20918634.5324
 95  6 15  1  1 30.0000000  0  7G23G26G22G21G20G17G 6
 -21744998.91944 -16944125.53344  21006926.1294   21006929.0894
  -9913007.31544  -7724410.01144  22105497.5054   22105499.0524
  -4935539.11744  -3845873.54544  23610499.9444   23610502.9174
  -6663365.35544  -5192217.82544  23695446.3394   23695450.7914
   1975320.08444                  25218338.0204
 -23316217.79344 -18168459.39444  20646172.9474   20646175.6154
 -21639849.61244 -16862211.79844  20930281.2354   20930283.5044
 95  6 15  1  2  0.0000000  0  8G23G26G22G21G20G17G 6G28
 -21784899.73044 -16975217.04344  20999333.4114   20999336.3734
  -9904765.48744  -7717987.79444  22107065.6684   22107067.1424
  -4938311.13244  -3848033.58044  23609972.3294   23609977.3904
  -6749648.15444  -5259451.03944  23679026.8914   23679031.2044
   2072532.23144                  25236834.6924
 -23327182.90244 -18177003.63244  20644086.3814   20644088.9804
 -21578207.76744 -16814179.22044  20942011.3664   20942013.7154
        -0.53014        -0.72914  25077606.445    25077601.421
 95  6 15  1  2 30.0000000  0  7G23G26G22G21G20G17G 6
 -21824417.23644 -17006009.87244  20991813.2354   20991816.2924
  -9895979.75144  -7711141.75644  22108737.1124   22108738.9924
  -4940614.28944  -3849828.25844  23609533.3574   23609537.0834
  -6835744.15744  -5326538.71544  23662643.1784   23662648.5964
   2169531.76044                  25255294.4834
 -23337962.66644 -18185403.44744  20642035.1474   20642037.8684
 -21516124.76644 -16765802.88644  20953825.2544   20953827.6694
 95  6 15  1  3  0.0000000  0  6G26G22G21G23G17G 6
  -9886715.79644  -7703923.07744  22110500.3644   22110502.0994
  -4942499.09344  -3851296.96144  23609175.8124   23609179.8854
  -6921708.08244  -5393523.51544  23646283.5704   23646289.9814
 -21863620.17944 -17036557.58444  20984353.2164   20984356.3114
 -23348626.67744 -18193713.06144  20640005.8564   20640008.4574
 -21453663.64044 -16717131.90844  20965711.0784   20965713.6794
 95  6 15  1  3 30.0000000  0  6G26G22G21G23G17G 6
  -9876872.74244  -7696253.15544  22112373.5334   22112375.0044
  -4943848.63044  -3852348.58544  23608918.7084   23608922.1604
  -7007441.29944  -5460328.49944  23629969.1444   23629976.4004
 -21902418.42144 -17066789.94144  20976970.0384   20976973.0954
 -23359082.39844 -18201860.37044  20638016.0434   20638018.6554
 -21390728.87544 -16668091.85444  20977687.3694   20977689.9344
 95  6 15  1  4  0.0000000  0  6G26G 6G22G21G23G17
  -9866465.80944  -7688143.83644  22114353.7974   22114355.6604
 -21327350.36244 -16618706.02744  20989747.8814   20989750.0524
  -4944690.05544  -3853004.24144  23608758.5984   23608764.2444
  -7092971.16844  -5526975.05544  23613693.6694   23613699.6204
 -21940838.44544 -17096727.58544  20969658.9034   20969661.9354
 -23369351.00544 -18209861.87444  20636061.8864   20636064.4014
 95  6 15  1  4 30.0000000  0  6G26G 6G22G21G23G17
  -9855432.72444  -7679546.61944  22116453.3514   22116454.9704
 -21263472.29844 -16568930.94444  21001903.5234   21001905.8104
  -4944946.99744  -3853204.45644  23608710.2324   23608714.7424
  -7178228.16044  -5593408.98944  23597469.9114   23597475.7834
 -21978818.84144 -17126322.65844  20962431.5344   20962434.5794
 -23379375.26544 -18217672.97844  20634154.4284   20634156.9024
 95  6 15  1  5  0.0000000  0  6G26G 6G22G21G23G17
  -9843829.02144  -7670504.75444  22118661.4654   22118662.6374
 -21199142.56344 -16518803.91644  21014145.2774   21014147.4484
  -4944663.24444  -3852983.40044  23608763.2384   23608767.2434
  -7263270.65344  -5659675.77044  23581287.7124   23581294.0674
 -22016413.73544 -17155617.34244  20955277.2684   20955280.3474
 -23389186.68744 -18225318.23444  20632287.3324   20632289.8704
 95  6 15  1  5 30.0000000  0  6G26G 6G22G21G23G17
  -9831657.01744  -7661020.06344  22120977.7454   22120979.3454
 -21134367.77444 -16468330.08944  21026471.4414   21026473.7364
  -4943869.68744  -3852365.06744  23608914.6614   23608917.8554
  -7348106.37244  -5725781.40644  23565144.2784   23565149.1244
 -22053614.45644 -17184604.87544  20948198.3554   20948201.3394
 -23398770.34444 -18232786.01144  20630463.7284   20630466.4094
 95  6 15  1  6  0.0000000  0  7G26G 6G22G21G28G23G17
  -9818864.25644  -7651051.67444  22123412.0744   22123413.7594
 -21069084.11844 -16417459.74644  21038894.4414   21038897.0404
  -4942539.00444  -3851328.19544  23609167.9074   23609171.9344
  -7432675.71744  -5791679.50444  23549050.6664   23549056.4144
        -0.35514        -0.85814  24913980.504    24913976.643
 -22090346.58344 -17213227.27444  20941208.2514   20941211.2424
 -23408062.81744 -18240026.89144  20628695.3484   20628697.8994
 95  6 15  1  6 30.0000000  0  7G26G 6G22G21G28G23G17
  -9805616.84244  -7640728.99944  22125932.9144   22125934.8784
 -21003447.31144 -16366314.21744  21051384.7484   21051386.9394
  -4940846.42444  -3850009.35644  23609488.8674   23609495.8924
  -7517145.35644  -5857499.91244  23532976.8524   23532980.5134
   -107363.885 4    -83660.655 4  24893549.833    24893566.160
 -22126772.61944 -17241611.16544  20934276.6424   20934279.5994
 -23417225.06244 -18247166.29744  20626951.7334   20626954.3164
 95  6 15  1  7  0.0000000  0  7G26G 6G22G21G28G23G17
  -9791858.29144  -7630008.03944  22128550.9844   22128552.4354
 -20937405.06844 -16314852.76744  21063952.0654   21063954.7424
  -4938753.21144  -3848378.31344  23609886.8284   23609892.7484
  -7601477.43144  -5923213.13944  23516928.9354   23516933.0944
   -214728.213 4   -167320.908 4  24873116.631    24873132.728
 -22162842.12044 -17269717.23544  20927413.1164   20927416.0514
 -23426208.96644 -18254166.72944  20625242.1024   20625244.7284
 95  6 15  1  7 30.0000000  0  7G 6G26G22G21G28G23G17
 -20870842.93444 -16262986.20144  21076618.4994   21076620.8184
  -9777458.23344  -7618787.20144  22131291.3324   22131292.7614
  -4936139.50944  -3846341.67844  23610384.0784   23610391.9374
  -7685561.22344  -5988732.90344  23500928.8324   23500932.4684
   -321977.498 4   -250891.709 4  24852705.256    24852715.676
 -22198441.07644 -17297456.65144  20920638.8964   20920641.8154
 -23434918.68044 -18260953.51344  20623584.8504   20623587.3174
 95  6 15  1  8  0.0000000  0  7G 6G26G22G21G28G23G17
 -20803771.67044 -16210722.91944  21089381.6224   21089384.2434
  -9762438.13844  -7607083.22244  22134149.5234   22134151.1014
  -4933004.98544  -3843899.21644  23610980.7494   23610986.9244
  -7769426.68144  -6054082.54344  23484969.4534   23484973.6144
   -429131.631 4   -334388.449 4  24832318.455    24832324.465
 -22233600.92844 -17324853.90644  20913948.1494   20913951.2424
 -23443395.63044 -18267558.92244  20621971.9694   20621974.5224
 95  6 15  1  8 30.0000000  0  7G26G 6G22G21G28G23G17
  -9746901.21544  -7594976.51844  22137106.1134   22137107.3624
 -20736305.65844 -16158152.03944  21102220.0494   21102222.8504
  -4929440.52144  -3841121.76444  23611659.0304   23611663.7204
  -7853187.27544  -6119350.46344  23469030.0444   23469033.2814
   -536301.205 4   -417897.059 4  24811921.772    24811929.052
 -22268435.16144 -17351997.43144  20907319.4244   20907322.2434
 -23451751.94844 -18274070.33244  20620381.6704   20620384.0994
 95  6 15  1  9  0.0000000  0  7G26G 6G22G21G28G23G17
  -9730773.66144  -7582409.58244  22140175.2204   22140176.7614
 -20668378.07244 -16105221.48344  21115146.4304   21115148.6954
  -4925377.86244  -3837956.09144  23612432.9624   23612438.2304
  -7936769.29744  -6184479.21844  23453125.1354   23453129.6114
   -643418.856 4   -501365.182 4  24791535.924    24791545.119
 -22302868.71344 -17378828.73444  20900766.8304   20900769.7364
 -23459923.34644 -18280437.64444  20618826.5484   20618828.9954
 95  6 15  1  9 30.0000000  0  7G26G 6G22G21G28G23G17
  -9714034.95544  -7569366.42544  22143360.1664   22143362.0254
 -20599964.57644 -16051912.30344  21128165.2194   21128167.6344
  -4920777.77344  -3834371.64444  23613309.8104   23613313.7174
  -8020129.16044  -6249434.88244  23437261.7264   23437266.9364
   -750455.308 4   -584770.012 4  24771164.827    24771189.725
 -22336876.00944 -17405327.89344  20894295.2584   20894298.2394
 -23467878.00644 -18286636.07544  20617312.6874   20617315.4234
 95  6 15  1 10  0.0000000  0  7G26G 6G22G21G28G23G17
  -9696678.16444  -7555841.63944  22146663.0174   22146664.5984
 -20531063.90444 -15998223.50844  21141276.6624   21141279.1754
  -4915634.06044  -3830363.61444  23614288.2254   23614291.6094
  -8103228.28444  -6314187.34944  23421447.6264   23421453.3624
   -857387.936 4   -668094.246 4  24750817.060    24750827.838
 -22370440.56544 -17431482.05944  20887908.1484   20887911.0264
 -23475585.58144 -18292641.96944  20615846.0924   20615848.6234
 95  6 15  1 10 30.0000000  0  6G26G22G21G 6G23G17
  -9678755.55244  -7541875.96744  22150073.5904   22150074.8624
  -4910027.73144  -3825995.08344  23615354.6874   23615360.1154
  -8186111.65544  -6378771.71144  23405675.6134   23405681.0244
 -20461755.46344 -15944216.96644  21154465.8084   21154468.3884
 -22403619.59844 -17457335.81844  20881594.0884   20881597.0764
 -23483091.04944 -18298490.37244  20614417.8044   20614420.2294
 95  6 15  1 11  0.0000000  0  6G26G22G21G 6G23G17
  -9660248.09644  -7527454.56344  22153595.8774   22153597.2814
  -4903934.54444  -3821247.17744  23616514.1214   23616519.5364
  -8268755.82844  -6443169.69244  23389948.7594   23389951.9804
 -20392029.91444 -15889885.40744  21167734.0494   21167736.5504
 -22436413.76044 -17482889.67744  20875353.7784   20875356.6944
 -23490373.95344 -18304165.35544  20613031.8964   20613034.3084
 95  6 15  1 11 30.0000000  0  6G26G22G21G 6G23G17
  -9641128.66244  -7512556.28344  22157234.1664   22157235.4404
  -4897307.90844  -3816083.59244  23617775.3664   23617778.8334
  -8351120.53144  -6507349.92044  23374275.5374   23374279.0844
 -20321862.41744 -15835209.46944  21181086.3444   21181088.8054
 -22468803.57944 -17508128.46744  20869190.2204   20869192.6544
 -23497400.80744 -18309640.81744  20611695.0044   20611697.4494
 95  6 15  1 12  0.0000000  0  6G26G22G21G 6G23G17
  -9621422.44944  -7497200.79144  22160983.7054   22160985.2204
  -4890186.82144  -3810534.76144  23619130.3644   23619134.1704
  -8433231.76044  -6571332.61444  23358649.3084   23358655.9234
 -20251273.43344 -15780205.10844  21194518.9594   21194521.3954
 -22500805.77144 -17533065.20944  20863100.3864   20863103.3394
 -23504208.40144 -18314945.42544  20610399.2764   20610401.9464
 95  6 15  1 12 30.0000000  0  6G26G22G21G 6G23G17
  -9601123.39444  -7481383.32744  22164846.9864   22164847.8514
  -4882537.29244  -3804574.11944  23620586.1414   23620590.9584
  -8515090.66544  -6635118.70344  23343071.9564   23343079.3624
 -20180222.02644 -15724840.41644  21208039.7584   21208042.0624
 -22532399.10344 -17557683.37044  20857088.5074   20857091.1634
 -23510790.22044 -18320074.10644  20609146.7654   20609149.2874
 95  6 15  1 13  0.0000000  0  6G26G22G21G 6G23G17
  -9580311.94644  -7465166.60644  22168806.6134   22168808.7074
  -4874408.43444  -3798239.98544  23622133.0484   23622138.0674
  -8596760.25244  -6698757.27344  23327531.2764   23327537.5394
 -20108761.69944 -15669157.08444  21221638.1334   21221640.5984
 -22563648.41344 -17582033.45744  20851141.7324   20851144.6214
 -23517216.89244 -18325081.89544  20607924.1044   20607926.3284
 95  6 15  1 13 30.0000000  0  6G26G22G21G 6G23G17
  -9558938.93644  -7448512.31244  22172873.9984   22172875.4394
  -4865754.86544  -3791496.97844  23623779.3224   23623784.7934
  -8678183.52144  -6762203.91444  23312037.3004   23312043.3424
 -20036823.13844 -15613101.09144  21235327.4654   21235330.2814
 -22594470.25444 -17606050.45144  20845276.4134   20845279.2324
 -23523441.33644 -18329932.10644  20606739.4504   20606741.6404
 95  6 15  1 14  0.0000000  0  6G26G22G21G 6G23G17
  -9537025.81544  -7431437.14544  22177044.1754   22177045.6134
  -4856611.69444  -3784372.47544  23625519.5344   23625524.2144
  -8759404.98944  -6825493.32344  23296581.6464   23296584.8634
 -19964417.06544 -15556680.81744  21249106.1594   21249108.5924
 -22624878.47744 -17629745.14244  20839490.0764   20839492.9624
 -23529481.16844 -18334638.46144  20605590.1714   20605592.6184
 95  6 15  1 14 30.0000000  0  7G22G21G28G26G23G17G 6
  -4846906.78344  -3776810.23444  23627367.0804   23627371.8334
  -8840361.39244  -6888576.15544  23281176.2754   23281181.3894
         0.07814         0.32214  24568257.346    24568252.758
  -9514500.98444  -7413885.32144  22181330.5394   22181331.8574
 -22654822.59844 -17653078.19444  20833791.6894   20833794.7404
 -23535256.77244 -18339138.92244  20604491.3924   20604493.5314
 -19891484.95344 -15499850.64344  21262984.6354   21262987.4964
 95  6 15  1 15  0.0000000  0  7G22G21G28G26G23G17G 6
  -4836749.79244  -3768895.75144  23629299.4144   23629304.5204
  -8921137.33444  -6951518.37444  23265804.8824   23265809.1504
   -106163.054 4    -82724.091 4  24548054.775    24548050.867
  -9491442.27844  -7395917.48544  22185718.4784   22185720.1564
 -22684400.43144 -17676125.82244  20828163.3454   20828166.1784
 -23540859.59044 -18343504.74444  20603425.0174   20603427.3924
 -19818143.26844 -15442701.31444  21276940.9904   21276943.8444
 95  6 15  1 15 30.0000000  0  7G22G21G28G26G23G17G 6
  -4826197.72344  -3760673.40044  23631307.6474   23631310.9724
  -9001777.11344  -7014354.49144  23250459.2664   23250464.8294
   -212319.459 4   -165443.376 4  24527852.268    24527850.646
  -9467885.05344  -7377561.20744  22190200.9484   22190202.5104
 -22713652.82544 -17698919.86544  20822596.8874   20822599.8304
 -23546323.34044 -18347762.20344  20602385.1464   20602387.4644
 -19744441.26344 -15385271.22644  21290966.3594   21290968.5184
 95  6 15  1 16  0.0000000  0  7G22G21G28G26G 6G23G17
  -4815222.72344  -3752121.45944  23633396.2154   23633400.3944
  -9082240.10944  -7077052.85944  23235147.9554   23235152.1614
   -318448.133 4   -248141.076 4  24507658.980    24507655.369
  -9443789.99144  -7358785.82644  22194785.9824   22194787.7784
 -19670356.88944 -15327543.18644  21305064.0544   21305066.7594
 -22742569.12444 -17721452.01644  20817094.4104   20817097.0464
 -23551597.64144 -18351872.04344  20601381.5074   20601383.7504
 95  6 15  1 16 30.0000000  0  7G22G21G28G26G 6G23G17
  -4803767.67644  -3743195.50644  23635575.9104   23635581.3904
  -9162445.58744  -7139550.56644  23219885.6914   23219889.8664
   -424490.968 4   -330771.791 4  24487478.319    24487475.495
  -9419094.08644  -7339542.25644  22199485.6514   22199487.6624
 -19595850.16044 -15269486.02744  21319242.1604   21319245.0224
 -22771094.61744 -17743679.64844  20811665.7894   20811668.7414
 -23556624.76744 -18355789.27444  20600424.8364   20600427.0134
 95  6 15  1 17  0.0000000  0  7G22G21G28G26G 6G23G17
  -4791867.47544  -3733922.66244  23637840.7144   23637846.0964
  -9242428.75744  -7201875.03944  23204665.3244   23204669.4734
   -530467.771 4   -413350.953 4  24467309.570    24467308.783
  -9393831.55544  -7319857.15544  22204292.8274   22204294.4914
 -19520948.44244 -15211121.08944  21333495.3394   21333498.0754
 -22799243.93444 -17765614.15744  20806309.0754   20806311.8504
 -23561424.62344 -18359529.41644  20599511.4334   20599513.7444
 95  6 15  1 17 30.0000000  0  7G22G21G28G26G 6G23G17
  -4779561.85544  -3724333.90344  23640182.1664   23640185.5704
  -9322237.16044  -7264063.32944  23189477.9044   23189483.7754
   -636410.815 4   -495904.059 4  24447150.062    24447147.327
  -9368047.74644  -7299765.87244  22209199.5604   22209201.0134
 -19445677.76344 -15152468.65744  21347819.0514   21347821.3984
 -22827060.30744 -17787289.23044  20801015.7894   20801018.6964
 -23566032.40644 -18363119.89544  20598634.7914   20598637.2344
 95  6 15  1 18  0.0000000  0  7G22G21G28G26G23G17G 6
  -4766760.09744  -3714358.56144  23642617.8704   23642623.1924
  -9401794.27644  -7326055.81244  23174337.7014   23174342.5534
   -742235.061 4   -578364.406 4  24427012.404    24427008.608
  -9341659.70244  -7279203.75544  22214221.1964   22214222.4524
 -22854469.36144 -17808646.91244  20795800.1464   20795802.8404
 -23570380.09444 -18366507.70844  20597807.3784   20597810.1334
 -19369959.37944 -15093467.36744  21362227.8594   21362230.7904
 95  6 15  1 18 30.0000000  0  7G22G21G28G26G23G17G 6
  -4753489.33744  -3704017.77544  23645142.4824   23645149.1884
  -9481152.01744  -7387892.94244  23159236.5724   23159242.2944
   -847964.396 4   -660750.793 4  24406891.760    24406889.420
  -9314713.87844  -7258207.00044  22219348.4444   22219350.0614
 -22881489.97744 -17829701.90744  20790658.4244   20790660.8774
 -23574512.64544 -18369727.87644  20597020.8394   20597023.3124
 -19293831.60744 -15034147.06944  21376714.2934   21376716.4054
 95  6 15  1 19  0.0000000  0  7G22G21G28G26G23G17G 6
  -4739692.35744  -3693266.90744  23647768.4564   23647773.0164
  -9560262.65144  -7449537.51344  23144181.8384   23144187.4474
   -953538.624 4   -743016.458 4  24386801.713    24386799.316
  -9287160.84544  -7236737.10944  22224591.6134   22224593.1364
 -22908064.60044 -17850409.38144  20785601.2934   20785604.1074
 -23578377.29944 -18372739.29344  20596285.4844   20596287.9264
 -19217239.39844 -14974464.87044  21391289.5494   21391292.0864
 95  6 15  1 19 30.0000000  0  7G22G21G28G26G23G17G 6
  -4725390.51044  -3682122.66544  23650490.9874   23650495.1124
  -9639141.09344  -7511001.15144  23129172.3784   23129176.9804
  -1058984.909 4   -825182.315 4  24366735.435    24366733.486
  -9259021.71044  -7214810.49744  22229946.3894   22229948.3044
 -22934223.49744 -17870792.91444  20780623.3444   20780626.0324
 -23582013.82744 -18375572.94844  20595593.6464   20595596.1674
 -19140218.86044 -14914448.91044  21405945.8984   21405948.3354
 95  6 15  1 20  0.0000000  0  7G22G21G28G26G23G17G 6
  -4710603.78244  -3670600.57544  23653304.8204   23653309.5064
  -9717808.88044  -7572300.62444  23114203.1924   23114206.4064
  -1164324.550 4   -907265.046 4  24346689.576    24346688.821
  -9230335.73544  -7192457.77444  22235404.8664   22235406.9344
 -22959984.55544 -17890866.44044  20775721.3974   20775724.2214
 -23585445.83744 -18378247.23544  20594940.3194   20594942.8384
 -19062810.56844 -14854130.80844  21420676.4284   21420679.0764
 95  6 15  1 20 30.0000000  0  7G22G21G28G26G23G17G 6
  -4695328.71544  -3658697.99444  23656211.5614   23656216.7584
  -9796250.99644  -7633424.27944  23099276.0684   23099279.1544
  -1269536.124 4   -989248.062 4  24326668.136    24326668.998
  -9201093.18144  -7169671.37144  22240969.4244   22240971.5664
 -22985325.72444 -17910612.77644  20770899.1064   20770901.8254
 -23588641.02144 -18380736.98744  20594332.1594   20594334.5534
 -18985001.62544 -14793500.51044  21435482.7534   21435485.3004
 95  6 15  1 21  0.0000000  0  7G22G21G28G26G23G17G 6
  -4679549.64044  -3646402.66344  23659213.2304   23659218.4084
  -9874431.28344  -7694343.90144  23084397.9824   23084402.3174
  -1374600.992 4  -1071116.788 4  24306675.678    24306674.292
  -9171263.25244  -7146427.26744  22246646.1414   22246647.8114
 -23010234.25744 -17930021.99244  20766158.9214   20766161.8124
 -23591569.90644 -18383019.22944  20593775.0604   20593777.4194
 -18906755.15444 -14732529.28344  21450372.9524   21450375.2964
 95  6 15  1 21 30.0000000  0  7G22G21G28G26G23G17G 6
  -4663231.49644  -3633687.25044  23662318.9954   23662323.2694
  -9952314.32144  -7755031.89644  23069577.5864   23069582.0424
  -1479483.720 4  -1152843.510 4  24286717.753    24286716.487
  -9140826.91244  -7122710.63444  22252437.9054   22252439.5184
 -23034676.74944 -17949068.05644  20761507.6314   20761510.3584
 -23594197.44744 -18385066.66244  20593275.1914   20593277.6364
 -18828018.93044 -14671176.42844  21465355.8954   21465358.5244
 95  6 15  1 22  0.0000000  0  7G22G21G28G23G17G26G 6
  -4646488.04844  -3620640.47744  23665505.5974   23665511.3354
 -10030006.67044  -7815571.30244  23054793.1034   23054797.7844
  -1584291.505 4  -1234511.828 4  24266773.731    24266771.044
 -23058769.23544 -17967841.39244  20756923.0414   20756925.9144
 -23596636.01744 -18386966.83844  20592810.7084   20592813.4594
  -9109900.99744  -7098612.50544  22258323.0154   22258325.2314
 -18748893.67244 -14609520.42944  21480413.0654   21480416.0074
 95  6 15  1 22 30.0000000  0  7G22G21G28G23G17G26G 6
  -4629403.24544  -3607327.68444  23668756.9474   23668761.3784
 -10107568.75944  -7876009.20844  23040033.2004   23040038.6494
  -1689100.208 4  -1316180.920 4  24246829.092    24246826.583
 -23082593.66344 -17986405.85144  20752389.5574   20752392.2874
 -23598970.15144 -18388785.64044  20592366.8634   20592369.4814
  -9078540.56644  -7074175.80744  22264290.6144   22264292.2824
 -18669442.43444 -14547610.43044  21495532.1744   21495535.0574
 95  6 15  1 23  0.0000000  0  7G22G21G28G23G17G26G 6
  -4611752.81844  -3593574.14644  23672115.7084   23672120.1294
 -10184759.85244  -7936158.02144  23025344.0834   23025348.1294
  -1793681.365 4  -1397672.658 4  24226929.111    24226924.589
 -23105931.04744 -18004590.79744  20747948.3574   20747951.0434
 -23600988.12144 -18390358.07844  20591982.7474   20591985.2374
  -9046516.97044  -7049222.36544  22270384.4804   22270386.3024
 -18589432.51344 -14485265.08144  21510757.7864   21510760.4804
 95  6 15  1 23 30.0000000  0  7G22G21G28G23G17G26G 6
  -4593664.91344  -3579479.70544  23675556.9194   23675561.9424
 -10261699.29844  -7996110.74344  23010703.1014   23010707.6054
  -1898153.773 4  -1479079.692 4  24207048.702    24207043.281
 -23128909.23944 -18022495.85144  20743575.7974   20743578.5594
 -23602832.08244 -18391794.92644  20591631.9074   20591634.5694
  -9013950.73144  -7023846.06944  22276581.7414   22276583.5574
 -18509006.89944 -14422595.81444  21526062.3914   21526064.7974
 95  6 15  1 24  0.0000000  0  7G22G21G28G23G17G26G 6
  -4575167.31844  -3565066.07044  23679077.1944   23679081.1654
 -10338408.71644  -8055884.24344  22996106.0574   22996109.5244
  -2002537.004 4  -1560417.245 4  24187183.748    24187180.141
 -23151546.75344 -18040135.44544  20739268.1134   20739270.5954
 -23604519.95144 -18393110.14844  20591310.8254   20591313.3944
  -8980837.69144  -6998043.69144  22282882.7564   22282884.9124
 -18428195.69244 -14359626.09044  21541440.2964   21541443.2884
 95  6 15  1 24 30.0000000  0  7G22G21G28G23G17G26G 6
  -4556247.23344  -3550323.14644  23682677.5144   23682682.4984
 -10414889.11144  -8115479.28244  22981551.7824   22981556.2714
  -2106817.287 4  -1641674.554 4  24167340.186    24167336.876
 -23173829.20144 -18057498.36444  20735027.9164   20735030.5834
 -23606031.32444 -18394287.83844  20591023.1324   20591025.4494
  -8947162.65944  -6971803.39944  22289291.0464   22289292.2434
 -18346996.84444 -14296354.30344  21556891.5114   21556894.4594
 95  6 15  1 25  0.0000000  0  7G22G21G28G23G17G26G 6
  -4536868.71244  -3535223.07244  23686365.6094   23686369.7584
 -10491128.68844  -8174886.66044  22967043.1994   22967049.2314
  -2210959.916 4  -1722824.614 4  24147522.886    24147519.920
 -23195728.28144 -18074562.55744  20730860.5274   20730863.0534
 -23607328.49144 -18395298.61944  20590776.2224   20590778.6164
  -8912909.64644  -6945112.74544  22295808.8894   22295810.6634
 -18265388.11744 -14232763.13244  21572421.1624   21572424.3894
 95  6 15  1 25 30.0000000  0  7G22G21G28G23G17G26G 6
  -4517031.63244  -3519765.65644  23690139.4044   23690144.2674
 -10567156.32844  -8234128.90044  22952575.8404   22952580.1804
  -2314975.839 4  -1803875.915 4  24127729.189    24127727.204
 -23217245.37044 -18091329.09244  20726765.7944   20726768.5814
 -23608411.66544 -18396142.65244  20590570.4834   20590572.9074
  -8878096.56144  -6917985.67744  22302434.0024   22302435.6394
 -18183393.67644 -14168871.40244  21588024.1034   21588026.9674
 95  6 15  1 26  0.0000000  0  7G22G21G28G23G17G26G 6
  -4496745.92144  -3503958.62544  23694000.1884   23694004.6264
 -10642998.84544  -8293226.87744  22938143.7294   22938148.1854
  -2418883.054 4  -1884842.488 4  24107955.646    24107953.908
 -23238389.23344 -18107804.80644  20722742.3304   20722744.9794
 -23609278.69344 -18396818.25844  20590405.1954   20590407.4644
  -8842751.96444  -6890444.43444  22309159.8214   22309161.2984
 -18101032.16644 -14104693.64544  21603697.3464   21603699.9974
 95  6 15  1 26 30.0000000  0  7G22G21G28G23G17G26G 6
  -4475989.69744  -3487784.97244  23697950.6284   23697954.1994
 -10718619.63944  -8352152.09544  22923753.7774   22923757.7074
  -2522651.938 4  -1965701.349 4  24088208.966    24088207.653
 -23259140.30344 -18123974.44844  20718793.2814   20718795.9704
 -23609896.50544 -18397299.66844  20590287.8514   20590290.0764
  -8806862.75044  -6862478.81044  22315989.4874   22315991.0104
 -18018298.41944 -14040225.83444  21619440.6624   21619443.5444
 95  6 15  1 27  0.0000000  0  7G22G21G28G23G17G26G 6
  -4454800.50244  -3471273.96844  23701982.8334   23701988.0214
 -10794038.79544  -8410920.19744  22909402.1414   22909406.1714
  -2626309.593 4  -2046473.479 4  24068483.734    24068481.455
 -23279520.86844 -18139855.38344  20714915.1794   20714917.9534
 -23610288.56744 -18397605.17144  20590212.9854   20590215.2744
  -8770466.65944  -6834118.22544  22322915.5444   22322917.3234
 -17935221.61744 -13975490.71244  21635250.0654   21635253.1684
 95  6 15  1 27 30.0000000  0  7G22G21G28G23G17G26G 6
  -4433175.32544  -3454423.21544  23706097.8394   23706103.0394
 -10869245.70644  -8469522.89544  22895090.5394   22895094.7934
  -2729856.543 4  -2127159.421 4  24048778.754    24048776.097
 -23299526.46644 -18155444.13844  20711108.3284   20711110.8464
 -23610453.83644 -18397733.95544  20590181.5904   20590183.7954
  -8733559.56444  -6805359.45744  22329938.6064   22329939.9194
 -17851810.68944 -13910495.24444  21651122.8014   21651125.6434
 95  6 15  1 28  0.0000000  0  7G22G21G28G23G17G26G 6
  -4411073.24944  -3437200.88044  23710303.5144   23710306.7564
 -10944186.31444  -8527918.10644  22880829.9844   22880833.8514
  -2833240.681 4  -2207718.465 4  24029105.740    24029102.265
 -23319121.11644 -18170712.67344  20707379.5964   20707382.1204
 -23610349.59144 -18397652.73344  20590201.4374   20590203.8564
  -8696091.23044  -6776163.34644  22337068.4434   22337069.9654
 -17768018.40444 -13845202.61944  21667067.3644   21667070.3494
 95  6 15  1 28 30.0000000  0  7G22G21G28G23G17G26G 6
  -4388460.70344  -3419580.74144  23714607.5424   23714610.9114
 -11018827.76744  -8586080.20144  22866625.8314   22866629.0444
  -2936413.883 4  -2288113.101 4  24009472.776    24009468.914
 -23338281.70144 -18185642.97844  20703733.3764   20703736.0354
 -23609946.25744 -18397338.45244  20590278.1094   20590280.4044
  -8658020.29044  -6746497.68144  22344312.6214   22344314.6594
 -17683799.95444 -13779577.91344  21683093.7654   21683096.9364
 95  6 15  1 29  0.0000000  0  7G22G21G28G23G17G26G 6
  -4365347.00844  -3401570.10044  23719006.0104   23719008.7034
 -11093199.85744  -8644032.41044  22852473.2014   22852476.9954
  -3039389.678 4  -2368353.974 4  23989877.813    23989874.273
 -23357025.44644 -18200248.46544  20700166.5704   20700169.0164
 -23609278.43844 -18396818.07844  20590405.2474   20590407.4004
  -8619361.52644  -6716373.98344  22351669.4564   22351670.9964
 -17599147.68644 -13713615.16344  21699202.6274   21699205.5024
 95  6 15  1 29 30.0000000  0  7G22G21G23G28G17G26G 6
  -4341828.51644  -3383244.06744  23723481.7094   23723484.8004
 -11167399.84944  -8701850.51444  22838353.0604   22838357.3534
 -23375462.90944 -18214615.29844  20696658.1734   20696660.7584
  -3142262.054 4  -2448514.226 4  23970301.555    23970298.603
 -23608455.18144 -18396176.58644  20590561.7084   20590564.1904
  -8580211.02444  -6685867.10144  22359119.3384   22359121.0544
 -17514155.44544 -13647387.49744  21715376.6704   21715379.4914
 95  6 15  1 30  0.0000000  0  7G22G21G23G28G17G26G 6
  -4317823.68744  -3364539.03544  23728048.7804   23728052.0804
 -11241322.42144  -8759452.45944  22824286.1994   22824291.2254
 -23393493.90944 -18228665.40344  20693226.8434   20693229.2684
  -3244918.047 4  -2528505.904 4  23950766.920    23950764.750
 -23607376.33444 -18395335.92844  20590767.3734   20590769.5464
  -8540468.05544  -6654898.55044  22366683.1104   22366684.7344
 -17428701.46444 -13580800.03444  21731638.1374   21731640.8294
 95  6 15  1 30 30.0000000  0  7G22G21G23G28G17G26G 6
  -4293428.01144  -3345529.44944  23732691.5064   23732695.2734
 -11315040.69444  -8816895.21644  22810258.4694   22810262.3154
 -23411189.52644 -18242454.17644  20689859.4874   20689861.8934
  -3347438.726 4  -2608392.101 4  23931258.390    23931255.472
 -23606120.25644 -18394357.17144  20591006.0064   20591008.5924
  -8500214.13644  -6623531.86144  22374342.4344   22374344.3334
 -17342866.04844 -13513915.36144  21747971.5504   21747974.6454
 95  6 15  1 31  0.0000000  0  7G22G21G23G28G17G26G 6
  -4268626.88344  -3326203.94144  23737411.4214   23737415.0464
 -11388515.44344  -8874148.21544  22796276.4604   22796279.6974
 -23428513.69144 -18255953.50344  20686562.7214   20686565.3174
  -3449806.649 4  -2688159.276 4  23911777.573    23911775.046
 -23604658.53644 -18393218.17644  20591284.4534   20591286.8614
  -8459440.50844  -6591760.20944  22382101.4504   22382103.2164
 -17256634.24344 -13446721.80944  21764381.3424   21764384.0174
 95  6 15  1 31 30.0000000  0  7G22G23G21G28G17G26G 6
  -4243400.47844  -3306547.05744  23742211.0464   23742214.2794
 -23445437.34744 -18269140.75044  20683342.1114   20683344.8074
 -11461713.17744  -8931185.35744  22782347.5464   22782351.7324
  -3551998.506 4  -2767789.282 4  23892331.196    23892328.343
 -23602955.33044 -18391891.01044  20591608.5434   20591610.6504
  -8418125.81344  -6559566.94044  22389963.6034   22389965.1034
 -17170000.31744 -13379214.91444  21780867.3064   21780870.1204
 95  6 15  1 32  0.0000000  0  7G22G23G21G28G17G26G 6
  -4217798.76544  -3286597.73444  23747083.0604   23747087.4284
 -23462004.32644 -18282050.05944  20680189.5434   20680191.9574
 -11534689.98744  -8988050.36044  22768460.0434   22768464.2884
  -3654064.385 4  -2847321.066 4  23872908.363    23872905.287
 -23601054.28344 -18390409.67944  20591970.3074   20591972.5114
  -8376313.90344  -6526986.23444  22397919.8394   22397921.6624
 -17083018.34344 -13311436.81544  21797419.3724   21797422.2304
 95  6 15  1 32 30.0000000  0  7G22G21G23G28G17G26G 6
  -4191743.48744  -3266294.96244  23752041.0824   23752045.6414
 -11607378.32644  -9044690.57444  22754627.3304   22754632.2334
 -23478157.83444 -18294637.18444  20677115.4414   20677118.0724
  -3755942.099 4  -2926706.285 4  23853521.601    23853517.987
 -23598889.74744 -18388723.03044  20592382.1284   20592384.3404
  -8333946.72344  -6493972.86244  22405982.1344   22405983.2954
 -16995642.10344 -13243351.50344  21814046.2624   21814049.3314
 95  6 15  1 33  0.0000000  0  7G22G23G21G28G17G26G 6
  -4165258.34044  -3245657.26244  23757080.9344   23757085.6184
 -23493951.74144 -18306944.10744  20674110.1514   20674112.7084
 -11679818.48744  -9101137.39244  22740842.6504   22740846.4584
  -3857670.304 4  -3005974.964 4  23834163.752    23834160.122
 -23596508.65244 -18386867.63844  20592835.4954   20592837.7724
  -8291068.49744  -6460561.26144  22414141.3614   22414142.8534
 -16907913.25644 -13174991.42644  21830740.6454   21830743.5464
 95  6 15  1 33 30.0000000  0  7G22G23G21G28G17G26G 6
  -4138322.56244  -3224668.40044  23762206.8354   23762210.5624
 -23509373.05244 -18318960.69444  20671175.4724   20671178.0064
 -11751997.28844  -9157380.55244  22727107.9914   22727112.0154
  -3959217.160 4  -3085102.358 4  23814839.442    23814836.360
 -23593899.13844 -18384834.25844  20593331.9024   20593334.2234
  -8247640.11844  -6426720.97544  22422405.4954   22422407.0694
 -16819810.94644 -13106340.33444  21847506.1884   21847509.3424
 95  6 15  1 34  0.0000000  0  7G22G23G21G28G17G26G 6
  -4110869.89944  -3203276.77644  23767430.5094   23767435.6834
 -23524351.02244 -18330631.82244  20668325.4494   20668327.8754
 -11823841.54744  -9213363.04344  22713436.2584   22713439.9454
  -4060497.961 4  -3164022.448 4  23795566.624    23795563.807
 -23590976.23744 -18382556.67744  20593888.1234   20593890.6514
  -8203593.16044  -6392398.67944  22430787.0974   22430788.7464
 -16731261.76044 -13037341.02844  21864356.2434   21864359.5134
 95  6 15  1 34 30.0000000  0  8G22G23G21G28G17G26G 6G 1
  -4082987.72644  -3181550.47544  23772736.4754   23772742.4884
 -23538975.51044 -18342027.50944  20665542.4224   20665544.8424
 -11895434.01344  -9269149.31744  22699812.4444   22699816.6464
  -4161596.965 4  -3242800.857 4  23776327.815    23776325.289
 -23587825.36544 -18380101.45644  20594487.6114   20594490.1414
  -8159023.33344  -6357668.95444  22439268.9964   22439270.2894
 -16642363.15944 -12968069.44644  21881273.4534   21881276.5694
        -0.32954                  25173299.1334
 95  6 15  1 35  0.0000000  0  8G22G23G21G28G17G26G 6G 1
  -4054813.87144  -3159596.87344  23778098.2604   23778103.0654
 -23553363.10244 -18353238.60044  20662804.4424   20662807.1074
 -11966927.49844  -9324858.46744  22686207.9714   22686211.6734
  -4262642.019 4  -3321537.262 4  23757099.423    23757097.060
 -23584579.43744 -18377572.16244  20595105.3484   20595107.8414
  -8114051.19544  -6322625.73544  22447826.8954   22447828.6734
 -16553242.82244 -12898625.09744  21898232.1074   21898235.3004
   -109461.01444                  25152469.4754
 95  6 15  1 35 30.0000000  0  8G22G23G21G28G17G26G 6G 1
  -4026343.99744  -3137412.62544  23783515.8804   23783521.0184
 -23567481.91044 -18364240.25144  20660117.9504   20660120.4994
 -12038320.09344  -9380489.04644  22672622.2744   22672625.8354
  -4363609.905 4  -3400213.486 4  23737886.089    23737883.486
 -23581209.92244 -18374946.56744  20595746.5424   20595748.9954
  -8068653.72144  -6287251.08744  22456465.8394   22456467.1964
 -16463885.14744 -12828995.81744  21915236.3214   21915239.5084
   -219128.11144                  25131602.6824
 95  6 15  1 36  0.0000000  0  8G22G23G21G28G17G26G 6G 1
  -3997419.48544  -3114874.09444  23789019.9654   23789024.3664
 -23581174.49744 -18374909.77744  20657512.2554   20657514.4744
 -12109459.81444  -9435922.56644  22659084.9164   22659088.4354
  -4464352.447 4  -3478714.128 4  23718715.712    23718713.411
 -23577553.35344 -18372097.29244  20596442.1634   20596444.7654
  -8022696.72144  -6251440.45344  22465210.8004   22465212.6184
 -16374139.45844 -12759064.16444  21932314.8114   21932317.9924
   -328859.74344   -256253.05844  25110720.5434
 95  6 15  1 36 30.0000000  0  8G22G23G21G28G17G26G 6G 1
  -3968075.80644  -3092008.94444  23794604.0714   23794607.4764
 -23594483.35844 -18385280.29644  20654979.5744   20654982.0804
 -12180381.41344  -9491186.11344  22645589.2084   22645592.5404
  -4564917.385 4  -3557076.391 4  23699578.246    23699576.762
 -23573673.93644 -18369074.36744  20597180.3704   20597183.1954
  -7976218.02844  -6215223.30344  22474055.8124   22474057.4674
 -16284038.90144 -12688855.99744  21949460.3234   21949463.5784
   -438707.56044                  25089815.0294
 95  6 15  1 37  0.0000000  0  8G22G23G21G28G17G26G 6G 1
  -3938293.90244  -3068802.30244  23800271.3854   23800275.1844
 -23607387.06244 -18395335.10644  20652524.0684   20652526.4284
 -12251056.50344  -9546257.56244  22632140.0124   22632143.5414
  -4665274.307 4  -3635276.590 4  23680482.027    23680479.804
 -23569549.10844 -18365860.21044  20597965.3944   20597967.6854
  -7929188.68844  -6178577.07544  22483005.2314   22483005.7704
 -16193560.43644 -12618353.35044  21966677.5434   21966680.7624
   -548625.23944                  25068898.1184
 95  6 15  1 37 30.0000000  0  8G22G23G21G28G17G26G 6G 1
  -3908047.05844  -3045233.37044  23806027.5004   23806031.0334
 -23619878.51944 -18405068.68144  20650146.8744   20650149.3964
 -12321425.42144  -9601090.43244  22618748.9164   22618752.5034
  -4765397.656 4  -3713294.726 4  23661429.122    23661426.804
 -23565154.48744 -18362435.82244  20598801.5464   20598803.9994
  -7881602.73444  -6141497.11344  22492060.7654   22492061.8094
 -16102694.49644 -12547548.77744  21983969.2594   21983972.4214
   -658570.70744                  25047976.4274
 95  6 15  1 38  0.0000000  0  8G22G23G21G28G17G26G 6G 1
  -3877330.30944  -3021298.25444  23811872.6954   23811877.5814
 -23631968.21544 -18414489.20744  20647846.2794   20647848.7654
 -12391465.91644  -9655667.38444  22605421.0214   22605424.2214
  -4865282.160 4  -3791126.754 4  23642421.498    23642418.449
 -23560485.21644 -18358797.41944  20599690.3294   20599692.6434
  -7833460.69044  -6103983.84944  22501222.1284   22501223.2754
 -16011441.32544 -12476442.46244  22001333.8864   22001337.1934
   -768529.47944                  25027050.3564
 95  6 15  1 38 30.0000000  0  8G22G23G21G28G17G26G 6G 1
  -3846202.15244  -2997042.59344  23817796.7754   23817799.9974
 -23643701.78344 -18423632.22744  20645613.5964   20645615.9464
 -12461224.78544  -9710024.87844  22592146.0134   22592150.2294
  -4964962.334 4  -3868799.577 4  23623452.533    23623449.950
 -23555585.22744 -18354979.24044  20600622.8944   20600625.2034
  -7784800.38944  -6066066.73744  22510481.4684   22510482.3694
 -15919850.65544 -12405073.16644  22018763.1074   22018765.8084
   -878522.40744                  25006118.9284
 95  6 15  1 39  0.0000000  0  8G22G23G21G28G17G26G 6G 1
  -3814709.93244  -2972503.22844  23823789.5004   23823792.8524
 -23655111.07744 -18432522.56644  20643442.3794   20643444.9044
 -12530752.82644  -9764202.51544  22578915.1314   22578918.7724
  -5064473.125 4  -3946340.433 4  23604515.496    23604513.255
 -23550479.30444 -18351000.59944  20601594.5354   20601596.5754
  -7735673.75844  -6027786.25444  22519829.8444   22519831.4614
 -15827983.23544 -12333488.21844  22036245.2334   22036248.5374
   -988579.40744                  24985176.1944
 95  6 15  1 39 30.0000000  0  8G22G23G21G28G17G26G 6G 1
  -3782799.14844  -2947637.72344  23829861.3374   23829865.2904
 -23666132.16144 -18441110.39844  20641345.1964   20641347.5454
 -12599992.45344  -9818155.41344  22565738.8944   22565742.8114
  -5163751.864 4  -4023700.485 4  23585623.535    23585620.493
 -23545096.68644 -18346806.35444  20602618.7004   20602620.6064
  -7686034.40944  -5989106.24444  22529275.7984   22529277.9434
 -15735768.12944 -12261632.35844  22053792.8804   22053795.9734
  -1098639.66444   -856079.36444  24964231.9694
 95  6 15  1 40  0.0000000  0  8G22G23G21G28G17G26G 6G 1
  -3750526.86644  -2922490.53744  23836002.7664   23836008.6514
 -23676803.76544 -18449425.91244  20639314.3714   20639316.8544
 -12669013.36344  -9871937.89344  22552604.9184   22552608.4364
  -5262842.273 4  -4100913.750 4  23566767.661    23566764.680
 -23539484.38244 -18342433.13244  20603686.8694   20603688.8634
  -7635925.01044  -5950059.96844  22538811.0404   22538813.4574
 -15643237.76044 -12189530.83144  22071401.2004   22071404.3664
  -1208759.94244   -941886.96744  24943276.6944
 95  6 15  1 40 30.0000000  0  8G22G23G21G28G17G26G 6G 1
  -3717861.18944  -2897036.77544  23842218.9334   23842224.8124
 -23687083.32544 -18457435.94244  20637358.2594   20637360.8154
 -12737789.03044  -9925529.27344  22539517.3094   22539521.5104
  -5361710.176 4  -4177953.624 4  23547953.450    23547951.171
 -23533624.85844 -18337867.26644  20604801.7724   20604803.7554
  -7585313.41144  -5910622.36444  22548442.7624   22548444.5934
 -15550351.25344 -12117151.80644  22089077.2464   22089080.5264
  -1318921.46044                  24922314.0984
 95  6 15  1 41  0.0000000  0  8G22G23G21G28G17G26G 6G 1
  -3684770.37244  -2871251.80544  23848515.7754   23848519.8204
 -23696961.41144 -18465133.13544  20635478.3284   20635480.6904
 -12806283.60544  -9978901.61244  22526484.0214   22526487.2994
  -5460334.341 4  -4254803.589 4  23529184.836    23529183.772
 -23527492.18144 -18333088.55444  20605968.7674   20605970.9794
  -7534169.94644  -5870770.32044  22558174.4814   22558176.2374
 -15457077.14944 -12044470.75944  22106826.2154   22106829.1324
  -1429116.69044  -1113592.85744  24901343.8484
 95  6 15  1 41 30.0000000  0  8G22G23G21G28G17G26G 6G 1
  -3651216.26844  -2845105.78844  23854900.3604   23854905.5284
 -23706419.73144 -18472503.23644  20633678.7734   20633680.9454
 -12874462.17244 -10032027.72144  22513509.3614   22513512.8144
  -5558678.854 4  -4331435.683 4  23510470.788    23510469.800
 -23521057.98744 -18328074.89644  20607193.1474   20607195.5244
  -7482451.56744  -5830470.29544  22568016.1864   22568017.4664
 -15363363.49644 -11971447.20044  22124659.3004   22124662.5124
  -1539317.48344                  24880372.9584
 95  6 15  1 42  0.0000000  0  8G22G23G21G28G17G26G 6G 1
  -3617229.76944  -2818622.80144  23861367.3394   23861372.7994
 -23715496.99544 -18479576.41644  20631951.1464   20631953.7024
 -12942368.99644 -10084942.08344  22500586.4084   22500590.1994
  -5656781.937 4  -4407879.604 4  23491802.960    23491800.783
 -23514372.42344 -18322865.36544  20608465.2274   20608467.7814
  -7430182.76344  -5789741.35944  22577963.1234   22577963.9284
 -15269260.21044 -11898120.01844  22142566.8124   22142570.3914
  -1649568.38044  -1285372.68944  24859393.2834
 95  6 15  1 42 30.0000000  0  8G22G23G21G28G17G26G 6G 1
  -3582852.28344  -2791835.20144  23867910.3364   23867914.4204
 -23724252.68044 -18486399.00744  20630284.9404   20630287.4694
 -13010055.35444 -10137684.66344  22487706.3094   22487709.7844
  -5754691.115 4  -4484172.444 4  23473172.093    23473169.829
 -23507475.15544 -18317490.87344  20609777.8354   20609780.1914
  -7377417.78344  -5748625.79144  22588003.4814   22588004.9024
 -15174846.01044 -11824550.55944  22160533.6254   22160536.6994
  -1759915.72944  -1371357.30444  24838394.6104   24838398.7304
 95  6 15  1 43  0.0000000  0  8G22G23G21G28G17G26G 6G 1
  -3548084.70144  -2764743.59444  23874525.9244   23874530.5054
 -23732705.80744 -18492985.83944  20628676.1274   20628678.7004
 -13077526.47144 -10190259.53444  22474867.3914   22474870.7234
  -5852408.310 4  -4560315.689 4  23454576.807    23454574.518
 -23500358.53444 -18311945.45544  20611132.1864   20611134.3004
  -7324172.44044  -5707135.92944  22598135.7984   22598137.6014
 -15080144.76844 -11750757.46144  22178554.4164   22178557.6104
  -1870363.32044  -1457420.05644  24817375.9314
 95  6 15  1 43 30.0000000  0  8G22G23G21G28G17G26G 6G 1
  -3512956.43844  -2737370.95544  23881210.2274   23881215.8674
 -23740865.03644 -18499343.66344  20627123.7364   20627126.1274
 -13144817.42044 -10242694.02244  22462062.0144   22462065.6374
  -5949946.382 4  -4636319.371 4  23436015.690    23436013.169
 -23493039.43044 -18306242.25944  20612524.8964   20612527.0334
  -7270471.81844  -5665291.29744  22608355.1154   22608356.5114
 -14985185.75744 -11676763.49444  22196624.5614   22196627.6044
  -1980921.58844  -1543568.95544  24796337.9934
 95  6 15  1 44  0.0000000  0  8G22G23G21G28G17G26G 6G 1
  -3477424.22544  -2709683.57544  23887971.6324   23887976.9644
 -23748678.58544 -18505432.13144  20625636.6834   20625639.0534
 -13211864.84644 -10294938.75044  22449303.3414   22449307.5034
  -6047249.512 4  -4712139.983 4  23417499.077    23417498.008
 -23485453.70144 -18300331.30844  20613968.4994   20613970.6884
  -7216274.64744  -5623059.73344  22618668.1264   22618670.3024
 -14889924.57944 -11602534.05944  22214752.1184   22214755.0964
  -2091541.84544  -1629766.15344  24775288.0524   24775297.9804
 95  6 15  1 44 30.0000000  0  8G22G23G21G28G17G26G 6G 1
  -3441490.82444  -2681683.57144  23894810.8984   23894815.2214
 -23756142.23844 -18511247.95844  20624216.7034   20624219.0754
 -13278649.03744 -10346978.36344  22436594.9814   22436598.4224
  -6144300.820 4  -4787764.360 4  23399031.634    23399030.001
 -23477588.04144 -18294202.22844  20615465.1404   20615467.3034
  -7161580.29644  -5580440.76444  22629076.0354   22629078.7324
 -14794338.40644 -11528051.39544  22232941.8994   22232945.6584
  -2202210.71444  -1716001.28044  24754227.0584   24754237.2354
 95  6 15  1 45  0.0000000  0  8G22G23G21G28G17G26G 6G 1
  -3405209.85144  -2653412.73744  23901714.7214   23901720.1334
 -23763278.72944 -18516808.84944  20622858.5814   20622860.8724
 -13345199.01144 -10398835.47544  22423930.9234   22423935.0374
  -6241132.722 4  -4863217.765 4  23380605.129    23380602.987
 -23469487.58644 -18287890.19144  20617006.6624   20617008.8044
  -7106414.49244  -5537454.43444  22639574.0894   22639575.6184
 -14698434.65844 -11453321.27744  22251191.9354   22251195.1424
  -2312953.23944  -1802293.82944  24733153.4674   24733160.7154
 95  6 15  1 45 30.0000000  0  8G22G23G21G28G17G26G 6G 1
  -3368544.57444  -2624842.42844  23908692.2954   23908696.0274
 -23770035.56844 -18522073.90544  20621572.9514   20621574.9354
 -13411470.32944 -10450475.44344  22411319.6744   22411323.6624
  -6337699.335 4  -4938464.440 4  23362228.608    23362226.473
 -23461105.99144 -18281359.08244  20618601.8174   20618604.1274
  -7050732.10644  -5494065.56744  22650169.6534   22650171.0174
 -14602159.47644 -11378301.71544  22269512.3484   22269515.7824
  -2423706.61844                  24712077.5254
 95  6 15  1 46  0.0000000  0  8G22G23G21G28G17G26G 6G 1
  -3331525.51344  -2595996.47044  23915736.1104   23915739.9324
 -23776440.09744 -18527064.43844  20620353.7544   20620356.2024
 -13477477.98044 -10501909.94744  22398758.9344   22398762.4264
  -6434029.922 4  -5013527.233 4  23343897.674    23343895.794
 -23452498.66044 -18274652.07944  20620239.4054   20620241.6494
  -6994570.52044  -5450303.29544  22660856.7124   22660858.3974
 -14505549.01044 -11303020.91544  22287896.7394   22287900.1184
  -2534489.10044  -1974918.49244  24690996.0684   24691005.9964
 95  6 15  1 46 30.0000000  0  8G22G23G21G28G17G26G 6G 1
  -3294167.17344  -2566886.13644  23922845.1134   23922850.0634
 -23782499.71844 -18531786.20944  20619200.9884   20619203.1884
 -13543249.25444 -10553160.25944  22386243.0844   22386246.7834
  -6530135.988 4  -5088415.059 4  23325609.644    23325606.853
 -23443699.01544 -18267795.22244  20621914.0724   20621916.4704
  -6937936.57844  -5406172.95644  22671634.4074   22671635.9874
 -14408630.64744 -11227500.18944  22306339.5964   22306343.1304
  -2645289.96544  -2061256.47244  24669911.6524   24669922.5744
 95  6 15  1 47  0.0000000  0  8G22G23G21G28G17G26G 6G 1
  -3256423.77444  -2537475.73644  23930027.2374   23930031.0184
 -23788172.98644 -18536206.92244  20618121.2824   20618123.4844
 -13608744.93544 -10604195.80244  22373779.4304   22373783.6714
  -6625977.358 4  -5163096.613 4  23307372.031    23307368.709
 -23434664.26944 -18260755.16644  20623633.2324   20623635.6444
  -6880787.56144  -5361641.26144  22682509.4324   22682511.1584
 -14311383.27644 -11151723.09644  22324845.4244   22324848.5994
  -2756058.05444  -2147568.97444  24648833.2574   24648841.1674
 95  6 15  1 47 30.0000000  0  8G22G23G21G28G17G26G 6G 1
  -3218332.60844  -2507794.36744  23937275.4794   23937280.6884
 -23793514.79444 -18540369.36144  20617104.8644   20617107.1114
 -13674008.70444 -10655050.66944  22361361.0164   22361364.1814
  -6721592.393 4  -5237601.790 4  23289177.256    23289174.048
 -23425434.70244 -18253563.30444  20625389.4494   20625392.1934
  -6823171.35744  -5316745.52544  22693473.4504   22693475.0124
 -14213868.52344 -11075737.64144  22343401.9014   22343404.9854
  -2866835.02544  -2233888.39944  24627751.4684   24627761.1484
 95  6 15  1 48  0.0000000  0  8G22G23G21G28G17G26G 6G 1
  -3179911.15044  -2477855.60344  23944586.9664   23944591.7824
 -23798535.11544 -18544281.29244  20616149.6104   20616151.7304
 -13739053.03144 -10705734.51544  22348983.1104   22348986.5964
  -6816987.065 4  -5311935.282 4  23271023.328    23271020.802
 -23416017.12044 -18246224.93344  20627181.6264   20627184.1994
  -6765089.72444  -5271487.12544  22704526.2434   22704528.1044
 -14116103.49044 -10999557.16644  22362005.9814   22362009.1434
  -2977637.71844  -2320227.85044  24606666.7594   24606677.1844
 95  6 15  1 48 30.0000000  0  8G22G23G21G28G17G26G 6G 1
  -3141080.56844  -2447598.05844  23951975.8434   23951980.9944
 -23803173.25444 -18547895.41444  20615266.9604   20615269.1784
 -13803822.35444 -10756204.06544  22336657.8554   22336661.7564
  -6912086.132 4  -5386038.442 4  23252926.432    23252924.426
 -23406300.29844 -18238653.38444  20629030.8524   20629033.4394
  -6706467.07744  -5225807.14844  22715681.3144   22715682.8984
 -14018018.26344 -10923127.18244  22380671.2494   22380674.1644
  -3088401.47044  -2406536.99444  24585588.8564   24585597.0474
 95  6 15  1 49  0.0000000  0  8G22G23G21G28G17G26G 6G 1
  -3101859.76244  -2417036.44544  23959440.3214   23959446.3374
 -23807450.14744 -18551228.05144  20614453.0654   20614455.4354
 -13868324.54044 -10806465.45444  22324383.3934   22324386.8594
  -7006901.374 4  -5459920.429 4  23234884.207    23234881.594
 -23396285.69644 -18230849.80344  20630936.7864   20630938.9484
  -6647329.12444  -5179725.62644  22726935.1064   22726936.6704
 -13919627.91544 -10846459.44044  22399393.9634   22399397.3204
  -3199151.22544  -2492835.25444  24564513.6724
 95  6 15  1 49 30.0000000  0  8G22G23G21G28G17G26G 6G 1
  -3062299.61744  -2386210.42044  23966968.0754   23966972.5244
 -23811416.69644 -18554318.86844  20613698.3064   20613700.3674
 -13932614.30144 -10856561.32544  22312149.2414   22312152.3654
  -7101480.771 4  -5533618.639 4  23216885.558    23216883.573
 -23386024.94544 -18222854.42244  20632889.1524   20632891.5084
  -6587736.92644  -5133290.16844  22738275.8504   22738276.8504
 -13820976.99144 -10769588.65744  22418166.7224   22418169.9504
  -3309938.28244                  24543432.3834
 95  6 15  1 50  0.0000000  0  8G22G23G21G28G17G26G 6G 1
  -3022367.16744  -2355094.25644  23974567.2384   23974571.5514
 -23815046.43144 -18557147.22744  20613007.4814   20613009.7414
 -13996660.93644 -10906467.75144  22299961.3454   22299964.9874
  -7195794.214 4  -5607109.623 4  23198938.250    23198935.817
 -23375489.56644 -18214645.04044  20634894.0654   20634896.3124
  -6527672.13844  -5086486.44844  22749705.0074   22749706.7214
 -13722029.40744 -10692486.69944  22436996.1254   22436999.7564
  -3420733.37144  -2665496.09444  24522348.6224   24522353.1304
 95  6 15  1 50 30.0000000  0  8G22G23G21G28G17G26G 6G 1
  -2982091.56744  -2323710.73844  23982232.1984   23982236.4104
 -23818373.70844 -18559739.90544  20612374.3344   20612376.5824
 -14060485.24144 -10956200.93344  22287815.8034   22287819.4314
  -7289872.559 4  -5680417.388 4  23181036.224    23181033.435
 -23364720.55544 -18206253.60444  20636943.1944   20636945.5284
  -6467180.15444  -5039349.85244  22761216.1624   22761218.4594
 -13622812.95144 -10615175.22444  22455875.9774   22455879.3064
  -3531574.73944  -2751865.75744  24501255.1004   24501264.2844
 95  6 15  1 51  0.0000000  0  8G22G23G21G28G17G26G 6G 1
  -2941506.64844  -2292086.16544  23989954.2844   23989960.3084
 -23821406.50444 -18562103.11444  20611797.3244   20611799.3854
 -14124090.15944 -11005763.15844  22275712.4874   22275715.4984
  -7383733.947 4  -5753556.109 4  23163175.600    23163172.525
 -23353755.53644 -18197709.43644  20639029.6634   20639032.0094
  -6406286.76644  -4991900.46044  22772804.1294   22772805.3304
 -13523334.52544 -10537659.63844  22474806.6724   22474809.8334
  -3642487.65544  -2838291.11544  24480148.1154   24480155.6434
 95  6 15  1 51 30.0000000  0  8G22G23G21G28G17G26G 6G 1
  -2900547.44744  -2260169.97744  23997748.4134   23997755.0174
 -23824084.33244 -18564189.72344  20611287.6134   20611290.1084
 -14187415.67644 -11055107.66744  22263661.6634   22263665.1474
  -7477314.581 4  -5826476.064 4  23145367.471    23145364.278
 -23342536.61344 -18188967.42344  20641164.7984   20641166.9574
  -6344917.06344  -4944079.91444  22784482.0964   22784484.9784
 -13423537.56144 -10459895.83544  22493797.2564   22493800.6344
  -3753413.56344  -2924726.66144  24459040.0494   24459042.9624
 95  6 15  1 52  0.0000000  0  8G22G23G21G28G17G26G 6G 1
  -2859219.72344  -2227966.60744  24005613.4564   24005617.5554
 -23826403.75244 -18565997.05844  20610846.0174   20610848.4224
 -14250454.77044 -11104228.99644  22251665.4774   22251669.6774
  -7570615.827 4  -5899178.316 4  23127612.752    23127609.707
 -23331062.71744 -18180026.72844  20643348.0264   20643350.2974
  -6283071.44944  -4895888.53844  22796251.0724   22796252.1994
 -13323437.27644 -10381895.67244  22512845.8534   22512848.4414
  -3864366.54344  -3011183.26844  24437926.2414   24437935.1774
 95  6 15  1 52 30.0000000  0  8G22G23G21G28G17G26G 6G 1
  -2817550.10044  -2195496.85044  24013542.2054   24013548.9104
 -23828377.25644 -18567534.84044  20610470.5834   20610472.7334
 -14313224.53544 -11153140.45844  22239721.5814   22239724.8054
  -7663650.287 4  -5971672.704 4  23109908.811    23109906.288
 -23319350.52344 -18170900.34544  20645576.9364   20645579.1344
  -6220763.28044  -4847336.72844  22808108.0444   22808108.8474
 -13223059.79244 -10303679.49844  22531947.0744   22531950.4764
  -3975358.84044  -3097670.51644  24416803.8774   24416809.9384
 95  6 15  1 53  0.0000000  0  8G22G23G21G28G17G26G 6G 1
  -2775460.39844  -2162699.74844  24021552.2484   24021560.0714
 -23829925.00244 -18568740.85944  20610176.2074   20610178.6654
 -14375652.49744 -11201785.57744  22227841.7494   22227845.2544
  -7756329.557 4  -6043890.301 4  23092272.651    23092269.931
 -23307313.54044 -18161520.88044  20647867.4034   20647869.7534
  -6157910.63544  -4798360.64844  22820068.0874   22820070.3804
 -13122338.63944 -10225195.54944  22551113.5044   22551116.6774
  -4086283.65944  -3184105.20844  24395696.3034   24395703.4014
 95  6 15  1 53 30.0000000  0  8G22G23G21G28G17G26G 6G 1
  -2733078.61644  -2129675.05944  24029617.7104   24029623.1784
 -23831192.27444 -18569728.33244  20609935.0784   20609937.5234
 -14437874.88144 -11250270.50244  22216000.9444   22216004.3274
  -7848782.519 4  -6115931.536 4  23074679.272    23074676.854
 -23295084.80444 -18151991.99744  20650194.4714   20650196.9804
  -6094652.69744  -4749068.75544  22832105.4594   22832107.7594
 -13021415.48244 -10146554.18644  22570318.2164   22570321.3934
  -4197258.98244  -3270579.19944  24374578.6824   24374583.8194
 95  6 15  1 54  0.0000000  0  8G22G23G21G28G17G26G 6G 1
  -2690363.95844  -2096390.97544  24037746.0744   24037750.1924
 -23832133.86644 -18570462.02944  20609755.8234   20609757.9694
 -14499845.44144 -11298559.20744  22204208.4404   22204211.6554
  -7940961.364 4  -6187759.185 4  23057137.590    23057136.136
 -23282615.63544 -18142275.76544  20652567.2064   20652569.5264
  -6030963.01844  -4699440.44244  22844225.6064   22844227.6034
 -12920227.04744 -10067706.12344  22589574.2744   22589578.3264
  -4308226.89044  -3357047.44244  24353462.7364   24353471.9204
 95  6 15  1 54 30.0000000  0  8G22G23G21G28G17G26G 6G 1
  -2647230.12744  -2062780.25744  24045954.2904   24045957.6634
 -23832667.78244 -18570878.05544  20609654.0484   20609656.7574
 -14561486.37744 -11346591.07044  22192478.6164   22192481.6934
  -8032769.624 4  -6259298.094 4  23039667.085    23039665.001
 -23269820.55344 -18132305.57344  20655002.1954   20655004.4984
  -5966751.87544  -4649405.78044  22856444.6504   22856446.3234
 -12818681.92844  -9988580.12744  22608897.7444   22608900.9594
  -4419076.43244  -3443423.44644  24332368.0804   24332375.4944
 95  6 15  1 55  0.0000000  0  8G22G23G21G28G17G26G 6G 1
  -2603735.33644  -2028888.25844  24054230.8864   24054234.5004
 -23832850.43644 -18571020.37344  20609619.4334   20609621.7554
 -14622853.41544 -11394409.50244  22180800.9084   22180804.1454
  -8124262.721 4  -6330591.412 4  23022257.075    23022254.184
 -23256753.16244 -18122123.19644  20657488.9904   20657491.1774
  -5902078.94744  -4599011.29844  22868751.6794   22868753.1864
 -12716838.43744  -9909221.63544  22628278.0454   22628281.7254
  -4529870.88644  -3529756.52044  24311284.7764   24311290.0284
 95  6 15  1 55 30.0000000  0  8G22G23G21G28G17G26G 6G 1
  -2559904.34944  -1994734.32844  24062571.3844   24062575.5584
 -23832703.06344 -18570905.51744  20609647.3664   20609649.5474
 -14683973.04044 -11442035.13344  22169170.1484   22169173.6874
  -8215467.408 4  -6401659.977 4  23004901.366    23004898.810
 -23243441.96044 -18111750.83644  20660021.8784   20660023.9754
  -5836975.90144  -4548281.65944  22881139.9914   22881141.4144
 -12614715.87844  -9829645.66844  22647711.0314   22647714.4384
  -4640649.20544  -3616077.04244  24290203.8534   24290211.0574
 95  6 15  1 56  0.0000000  0  8G22G23G21G28G17G26G 6G 1
  -2515742.44344  -1960322.50844  24070975.0204   24070981.4794
 -23832216.02944 -18570525.99244  20609740.1944   20609742.5634
 -14744852.81244 -11489473.87444  22157585.0974   22157588.3064
  -8306379.729 4  -6472500.745 4  22987601.282    22987598.980
 -23229883.68144 -18101185.95044  20662601.9834   20662604.0644
  -5771437.73744  -4497212.97244  22893611.9564   22893613.6204
 -12512320.75344  -9749857.31844  22667196.5724   22667200.2324
  -4751413.40544  -3702386.54144  24269124.0774   24269128.1624
 95  6 15  1 56 30.0000000  0  8G22G23G21G28G17G26G 6G 1
  -2471294.03444  -1925687.47344  24079433.7444   24079439.2464
 -23831420.96944 -18569906.45544  20609891.4864   20609893.8284
 -14805515.23044 -11536743.25044  22146041.5804   22146044.7404
  -8397023.695 4  -6543132.385 4  22970352.209    22970349.668
 -23216100.80444 -18090446.05544  20665224.6274   20665226.7494
  -5705485.69044  -4445821.76844  22906162.1154   22906164.9544
 -12409698.03144  -9669891.63844  22686725.0754   22686728.9434
  -4862197.67144  -3788711.65144  24248043.9144   24248049.0584
 95  6 15  1 57  0.0000000  0  8G22G23G21G28G17G26G 6G 1
  -2426532.20244  -1890808.18544  24087951.3844   24087957.9844
 -23830294.45344 -18569028.63544  20610105.7464   20610108.1134
 -14865920.89544 -11583812.55944  22134546.5254   22134550.0674
  -8487368.292 4  -6613530.747 4  22953160.135    22953157.767
 -23202051.07244 -18079498.22244  20667898.2504   20667900.4474
  -5639089.57944  -4394084.53144  22918796.5944   22918799.0774
 -12306819.13344  -9589726.34344  22706302.2924   22706305.6324
  -4972978.07444  -3875033.78744  24226963.0874   24226970.9434
 95  6 15  1 57 30.0000000  0  8G22G23G21G28G17G26G 6G 1
  -2381471.90944  -1855696.35844  24096525.5994   24096530.8094
 -23828867.32344 -18567916.56644  20610377.1724   20610379.5584
 -14926097.79644 -11630703.61644  22123094.9094   22123098.4444
  -8577430.194 4  -6683708.836 4  22936022.028    22936019.370
 -23187748.39444 -18068353.29144  20670619.8664   20670622.0704
  -5572273.48344  -4342020.03944  22931511.3784   22931512.8124
 -12203703.72544  -9509376.75144  22725924.6624   22725927.7374
  -5083763.25644  -3961359.64144  24205880.2814   24205887.2634
 95  6 15  1 58  0.0000000  0  8G22G23G21G28G17G26G 6G 1
  -2336136.43544  -1820370.09044  24105154.0384   24105159.8164
 -23827165.79744 -18566590.68344  20610701.1244   20610703.5234
 -14986051.72444 -11677420.93244  22111686.4324   22111689.8204
  -8667215.674 4  -6753671.531 4  22918936.327    22918933.598
 -23173198.31644 -18057015.57744  20673388.6954   20673390.8314
  -5505036.55044  -4289627.61844  22944306.2114   22944306.9964
 -12100366.94544  -9428854.64344  22745589.1624   22745592.3524
  -5194555.94944  -4047691.37244  24184797.5634   24184803.4944
 95  6 15  1 58 30.0000000  0  8G22G23G21G28G17G26G 6G 1
  -2290430.65644  -1784755.24744  24113850.3594   24113854.7984
 -23825101.69144 -18564982.27344  20611094.0404   20611095.9634
 -15045677.88644 -11723882.84244  22100339.9274   22100343.2164
  -8756628.089 4  -6823343.514 4  22901921.404    22901919.267
 -23158304.84944 -18045410.28944  20676222.7514   20676225.0554
  -5437292.98344  -4236840.41544  22957197.8724   22957199.0924
 -11996729.59044  -9348098.34144  22765310.2454   22765313.7754
  -5305245.04044  -4133942.36044  24163734.3214   24163741.1794
 95  6 15  1 59  0.0000000  0  8G22G23G21G28G17G26G 6G 1
  -2244394.80044  -1748883.18444  24122611.5744   24122615.5544
 -23822722.11444 -18563128.04044  20611546.6614   20611548.9414
 -15105036.47544 -11770136.24944  22089044.0324   22089047.4514
  -8845719.086 4  -6892765.042 4  22884968.047    22884966.133
 -23143135.12044 -18033589.72844  20679109.5964   20679111.8084
  -5369101.85544  -4183704.47444  22970173.6094   22970175.2034
 -11892844.69044  -9267149.15644  22785078.9904   22785082.6224
  -5415874.08244  -4220146.59344  24142681.8864   24142688.6024
 95  6 15  1 59 30.0000000  0  8G22G23G21G28G17G26G 6G 1
  -2198019.53244  -1712746.63544  24131436.2904   24131439.7774
 -23820005.72444 -18561011.36044  20612063.4454   20612065.7344
 -15164117.74144 -11816173.55944  22077801.0904   22077804.5724
  -8934475.281 4  -6961925.690 4  22868078.164    22868076.438
 -23127694.51244 -18021558.09044  20682047.9834   20682050.0094
  -5300459.44744  -4130216.88644  22983235.7344   22983236.7304
 -11788693.96244  -9185992.81044  22804897.8484   22804902.1094
  -5526419.56244  -4306285.70444  24121645.7914   24121651.6924
 95  6 15  2  0  0.0000000  0  8G22G23G21G28G17G26G 6G 1
  -2151290.38844  -1676334.34444  24140328.5974   24140332.4454
 -23816926.94244 -18558612.29644  20612649.4734   20612651.4444
 -15222879.34344 -11861961.79244  22066619.4694   22066622.8164
  -9022870.755 4  -7030805.254 4  22851256.860    22851255.077
 -23111969.94244 -18009305.19344  20685040.2314   20685042.5574
  -5231337.68044  -4076355.78744  22996389.2434   22996391.1334
 -11684259.84244  -9104615.64644  22824771.8614   22824775.2954
  -5636854.50144  -4392338.66844  24100630.5454   24100634.7834
 95  6 15  2  0 30.0000000  0  8G22G23G21G28G17G26G 6G 1
  -2104272.65144  -1639697.21544  24149275.6844   24149281.5104
 -23813563.62744 -18555991.52244  20613289.4754   20613291.5484
 -15281400.53544 -11907562.68044  22055483.1824   22055486.4534
  -9110978.972 4  -7099460.983 4  22834490.187    22834488.575
 -23096034.42144 -17996887.91744  20688072.7314   20688075.3084
  -5161823.55044  -4022188.92344  23009617.1444   23009619.2814
 -11579615.26044  -9023074.49744  22844684.4784   22844688.2964
  -5747265.01944  -4478372.62644  24079619.4124   24079626.7274
 95  6 15  2  1  0.0000000  0  7G23G21G28G17G26G 6G 1
 -23809911.79944 -18553145.93344  20613984.4834   20613986.6564
 -15339687.47344 -11952981.03644  22044391.3384   22044394.7274
  -9198790.986 4  -7167885.911 4  22817780.205    22817778.705
 -23079883.31244 -17984302.64544  20691146.3274   20691148.3604
  -5091904.88644  -3967706.86444  23022921.9754   23022924.8954
 -11474735.54344  -8941350.13344  22864642.9454   22864646.5684
  -5857659.81544  -4564394.35544  24058611.4184   24058618.1354
 95  6 15  2  1 30.0000000  0  7G21G23G28G17G26G 6G 1
 -15397785.57644 -11998252.24644  22033335.5864   22033338.9164
 -23806015.79744 -18550110.07744  20614725.8074   20614728.0194
  -9286347.739 4  -7236111.935 4  22801119.129    22801117.009
 -23063538.34744 -17971566.31944  20694256.4354   20694258.7504
  -5021628.48144  -3912946.01844  23036295.9184   23036297.0854
 -11369673.44844  -8859483.66944  22884635.3314   22884639.7174
  -5968083.31044  -4650438.44344  24037598.3494   24037607.0374
 95  6 15  2  2  0.0000000  0  7G23G21G28G17G26G 6G 1
 -23801767.36744 -18546799.59944  20615534.1094   20615536.4924
 -15455584.73844 -12043290.51444  22022337.1214   22022340.4214
  -9373531.878 4  -7304047.588 4  22784528.575    22784526.572
 -23046877.23544 -17958583.64644  20697426.9964   20697429.2184
  -4950878.12544  -3857815.87644  23049759.0354   23049760.7914
 -11264329.62644  -8777397.67244  22904682.2094   22904686.2654
  -6078431.04344  -4736423.50144  24016600.5194   24016608.2994
 95  6 15  2  2 30.0000000  0  7G21G23G28G17G26G 6G 1
 -15513158.05944 -12088152.81144  22011380.9914   22011384.1774
 -23797211.84644 -18543249.82744  20616400.9844   20616403.5034
  -9460393.561 4  -7371732.000 4  22767999.215    22767997.150
 -23029949.66044 -17945393.34044  20700647.9584   20700650.6534
  -4879716.55544  -3802365.29544  23063300.3274   23063302.5664
 -11158764.33744  -8695139.07644  22924770.4974   22924774.7684
  -6188763.69344  -4822396.79144  23995605.3574   23995611.8684
 95  6 15  2  3  0.0000000  0  7G23G21G28G17G26G 6G 1
 -23792314.37044 -18539433.60144  20617332.8794   20617335.2624
 -15570493.53944 -12132829.77544  22000470.4224   22000473.8234
  -9546914.247 4  -7439150.695 4  22751534.541    22751532.511
 -23012748.38944 -17931989.76344  20703921.3814   20703923.6874
  -4808122.61144  -3746577.82744  23076924.5974   23076926.1374
 -11052968.67244  -8612700.98444  22944902.8404   22944906.3764
  -6299044.82644  -4908329.94044  23974617.7334   23974622.2174
 95  6 15  2  3 30.0000000  0  7G21G23G28G17G26G 6G 1
 -15627581.98744 -12177314.24544  21989606.8544   21989610.0864
 -23787080.21944 -18535355.03044  20618328.9284   20618330.9474
  -9633094.839 4  -7506304.388 4  22735135.138    22735132.904
 -22995283.32944 -17918380.63444  20707245.0364   20707247.0434
  -4736100.68744  -3690456.85344  23090629.9964   23090630.7694
 -10946957.33644  -8530094.85744  22965076.1324   22965079.5784
  -6409259.06044  -4994210.98944  23953644.5704   23953650.1164
 95  6 15  2  4  0.0000000  0  7G21G23G28G17G26G 6G 1
 -15684377.88944 -12221570.74844  21978798.7694   21978802.1544
 -23781481.18644 -18530992.12744  20619394.3934   20619396.5674
  -9718889.794 4  -7573157.593 4  22718808.958    22718806.959
 -22977527.87144 -17904545.21944  20710623.7854   20710625.8404
  -4663612.32944  -3633972.43944  23104423.7214   23104424.0054
 -10840673.26844  -8447276.20444  22985301.3804   22985304.7184
  -6519360.43344  -5080004.08444  23932692.6674   23932697.2134
 95  6 15  2  4 30.0000000  0  7G21G23G28G17G26G 6G 1
 -15740920.84244 -12265630.15244  21968039.2154   21968042.5214
 -23775561.27944 -18526379.20544  20620520.8834   20620523.2234
  -9804335.826 4  -7639738.903 4  22702548.862    22702546.944
 -22959514.93544 -17890509.17744  20714051.6264   20714053.6894
  -4590703.39544  -3577160.30344  23118297.9284   23118299.8144
 -10734145.11644  -8364267.33844  23005572.8894   23005577.2574
  -6629375.04144  -5165729.58144  23911758.5954   23911763.3814
 95  6 15  2  5  0.0000000  0  7G23G21G28G17G26G 6G 1
 -23769331.90744 -18521525.13644  20621706.3844   20621708.5754
 -15797201.26644 -12309484.98744  21957329.3134   21957332.5644
  -9889436.289 4  -7706050.951 4  22686355.047    22686353.156
 -22941244.47844 -17876272.46544  20717528.3184   20717530.5454
  -4517387.32544  -3520030.92244  23132249.6714   23132251.8574
 -10627367.26544  -8281063.90744  23025892.0004   23025895.3644
  -6739294.23744  -5251380.70044  23890841.3034   23890847.4714
 95  6 15  2  5 30.0000000  0  7G21G23G28G17G26G 6G 1
 -15853268.19744 -12353173.47044  21946659.9144   21946662.8074
 -23762874.69444 -18516493.52944  20622934.8624   20622937.2694
  -9974247.240 4  -7772137.399 4  22670216.396    22670214.324
 -22922763.90044 -17861872.02444  20721045.1174   20721047.4264
  -4443743.13744  -3462645.85944  23146263.6574   23146265.6774
 -10520400.40444  -8197713.19944  23046247.4784   23046251.6144
  -6849187.98144  -5337012.03744  23869928.3794   23869934.4214
 95  6 15  2  6  0.0000000  0  7G21G23G28G17G26G 6G 1
 -15909067.51644 -12396653.41844  21936041.3114   21936044.5024
 -23756144.96744 -18511249.58044  20624215.7804   20624218.0654
 -10058709.657 4  -7837952.260 4  22654143.621    22654141.721
 -22904004.16744 -17847254.05744  20724614.8824   20724617.4124
  -4369725.75444  -3404969.98644  23160348.5354   23160349.6484
 -10413197.63144  -8114178.66644  23066647.6084   23066652.5004
  -6959017.27144  -5422593.13544  23849029.0164   23849035.3684
 95  6 15  2  6 30.0000000  0  7G21G23G28G17G26G 6G 1
 -15964569.50644 -12439901.67744  21925479.2594   21925482.6234
 -23749111.86844 -18505769.23844  20625554.1694   20625556.2504
 -10142794.627 4  -7903473.007 4  22638142.758    22638140.712
 -22884932.13244 -17832392.73444  20728243.9844   20728246.5864
  -4295307.09044  -3346981.42544  23174510.1464   23174511.9714
 -10305759.86944  -8030461.02744  23087092.7244   23087096.5174
  -7068764.01344  -5508109.90644  23828144.4594   23828150.5714
 95  6 15  2  7  0.0000000  0  7G21G23G28G17G26G 6G 1
 -16019790.06444 -12482930.63444  21914971.6684   21914974.8954
 -23741790.83744 -18500064.52944  20626947.1974   20626949.3794
 -10226519.293 4  -7968712.997 4  22622210.420    22622208.395
 -22865576.33244 -17817310.29744  20731927.2924   20731929.9114
  -4220505.88944  -3288694.76644  23188743.8064   23188746.7874
 -10198128.90744  -7946592.80944  23107573.7954   23107577.1554
  -7178455.75744  -5593583.84344  23807271.1554   23807277.0414
 95  6 15  2  7 30.0000000  0  7G21G23G28G17G26G 6G 1
 -16074771.45744 -12525773.24044  21904509.2834   21904512.3884
 -23734207.31344 -18494155.28744  20628390.4004   20628392.5884
 -10309909.473 4  -8033692.338 4  22606341.567    22606339.749
 -22845973.27744 -17802035.19644  20735657.7244   20735660.1534
  -4145329.89144  -3230116.08144  23203049.8284   23203051.0244
 -10090351.06744  -7862610.14344  23128083.0104   23128087.0444
  -7288133.83844  -5679047.11044  23786399.9074   23786404.8344
 95  6 15  2  8  0.0000000  0  7G21G23G28G17G26G 6G 1
 -16129451.85644 -12568381.31144  21894103.9424   21894107.1694
 -23726273.29344 -18487972.93144  20629900.0874   20629902.2094
 -10392893.923 4  -8098355.535 4  22590550.445    22590548.143
 -22826061.03044 -17786519.16844  20739446.9604   20739449.1774
  -4069702.84744  -3171185.92444  23217440.9414   23217442.5944
  -9982351.29844  -7778454.54844  23148634.7004   23148638.5984
  -7397723.11444  -5764441.19344  23765545.9054   23765551.8964
 95  6 15  2  8 30.0000000  0  7G21G23G28G17G26G 6G 1
 -16183973.18944 -12610865.43444  21883728.4954   21883732.1194
 -23718095.95044 -18481600.97244  20631456.1234   20631458.1984
 -10475602.906 4  -8162804.080 4  22574811.356    22574808.834
 -22805979.37944 -17770871.13744  20743268.4864   20743270.3184
  -3993750.15144  -3112002.02844  23231894.2314   23231895.8284
  -9874250.61744  -7694220.33444  23169205.8394   23169210.9394
  -7507336.35644  -5849853.95544  23744686.8074   23744691.5074
 95  6 15  2  9  0.0000000  0  7G23G21G28G17G26G 6G 1
 -23709573.71944 -18474960.26444  20633077.9954   20633080.0594
 -16238245.27544 -12653155.34044  21873401.2124   21873404.3754
 -10557940.301 4  -8226963.072 4  22559142.656    22559141.077
 -22785635.25244 -17755018.57844  20747139.7754   20747141.8094
  -3917382.13644  -3052494.49744  23246427.1564   23246430.1014
  -9765939.19344  -7609821.91344  23189816.7244   23189819.9754
  -7616861.42044  -5935198.00244  23723844.4854   23723849.4564
 95  6 15  2  9 30.0000000  0  7G21G28G23G17G26G 6G 1
 -16292236.41844 -12695226.32944  21863126.6944   21863129.9564
 -10639871.420 4  -8290805.485 4  22543551.567    22543549.833
 -23700673.09344 -18468024.70144  20634771.5824   20634773.9474
 -22764985.49444 -17738927.86844  20751068.8174   20751071.0814
  -3840584.38544  -2992652.11544  23261041.6784   23261042.3924
  -9657367.24044  -7525220.48644  23210477.2374   23210482.2724
  -7726252.34544  -6020437.52344  23703028.5094   23703031.8454
 95  6 15  2 10  0.0000000  0  7G21G23G28G17G26G 6G 1
 -16345953.19444 -12737083.52744  21852904.9164   21852907.9804
 -23691423.52644 -18460817.24344  20636531.7244   20636533.8544
 -10721409.654 4  -8354341.756 4  22528035.404    22528033.625
 -22744036.18344 -17722603.73244  20755055.6654   20755057.8704
  -3763399.60444  -2932508.12644  23275728.8524   23275731.0154
  -9548548.49344  -7440426.72944  23231185.7134   23231191.1024
  -7835505.41944  -6105569.64144  23682238.7304   23682244.6414
 95  6 15  2 10 30.0000000  0  7G21G28G23G17G26G 6G 1
 -16399385.59844 -12778719.13044  21842736.9404   21842739.9974
 -10802559.153 4  -8417575.117 4  22512593.478    22512591.904
 -23681852.20744 -18453359.06744  20638353.0374   20638355.0614
 -22722788.97844 -17706047.47144  20759098.7094   20759101.2974
  -3685832.19544  -2872066.01344  23290489.5304   23290491.0654
  -9439504.21344  -7355457.22944  23251935.6314   23251942.4314
  -7944624.33444  -6190597.20944  23661472.9134   23661480.1754
 95  6 15  2 11  0.0000000  0  7G21G23G28G17G26G 6G 1
 -16452570.64444 -12820161.99044  21832616.4354   21832619.2644
 -23672028.02244 -18445703.85444  20640222.5404   20640224.7654
 -10883362.239 4  -8480538.548 4  22497217.259    22497215.295
 -22701280.05944 -17689287.28144  20763191.9154   20763194.6894
  -3607937.83644  -2811369.12844  23305311.5224   23305315.0194
  -9330293.27644  -7270357.88744  23272718.1584   23272722.1894
  -8053651.70944  -6275553.45144  23640726.2494   23640731.9354
 95  6 15  2 11 30.0000000  0  7G21G28G23G17G26G 6G 1
 -16505380.37444 -12861312.38944  21822566.7234   21822569.8284
 -10963682.708 4  -8543125.901 4  22481932.503    22481930.578
 -23661839.17144 -18437764.48644  20642161.5154   20642163.8264
 -22679375.41344 -17672218.72744  20767360.3304   20767362.5154
  -3529579.62544  -2750310.79244  23320223.3564   23320224.7454
  -9220805.08644  -7185042.51044  23293552.9484   23293556.8074
  -8162455.80344  -6360335.72644  23620021.5684   23620028.4184
 95  6 15  2 12  0.0000000  0  7G21G23G28G17G26G 6G 1
 -16557887.57944 -12902227.06044  21812575.0104   21812578.3454
 -23651376.24044 -18429611.54644  20644152.4834   20644154.5544
 -11043586.373 4  -8605388.472 4  22466727.434    22466725.468
 -22657151.66344 -17654901.52544  20771589.2814   20771591.4634
  -3450803.45244  -2688926.75744  23335213.8074   23335215.9424
  -9111120.47844  -7099574.07144  23314425.3744   23314429.3554
  -8271113.42644  -6445003.84644  23599344.4974   23599351.6224
 95  6 15  2 12 30.0000000  0  7G21G28G23G17G26G 6G 1
 -16610203.66044 -12942992.79044  21802619.4904   21802622.5294
 -11123164.231 4  -8667397.167 4  22451584.073    22451582.455
 -23640727.45844 -18421313.79044  20646178.8944   20646181.0854
 -22634705.71444 -17637411.18644  20775860.6384   20775862.8594
  -3371695.25644  -2627284.02744  23350267.1374   23350270.1924
  -9001329.21744  -7014022.54444  23335317.9724   23335322.0774
  -8379726.02744  -6529636.87044  23578675.3784   23578680.6424
 95  6 15  2 13  0.0000000  0  7G21G23G28G17G26G 6G 1
 -16662339.71844 -12983618.25344  21792698.0884   21792701.2604
 -23629861.10344 -18412846.49144  20648246.6854   20648248.9964
 -11202398.039 4  -8729137.769 4  22436506.269    22436504.622
 -22612026.71244 -17619739.24844  20780176.1924   20780178.6974
  -3292249.48944  -2565378.27244  23365385.9414   23365387.8534
  -8891406.66944  -6928368.70544  23356235.5814   23356240.3904
  -8488282.83944  -6614226.43944  23558018.0834   23558021.8444
 95  6 15  2 13 30.0000000  0  7G21G28G23G17G26G 6G 1
 -16714259.34644 -13024075.06744  21782818.0604   21782821.5024
 -11281252.715 4  -8790582.948 4  22421500.677    22421498.821
 -23618730.81944 -18404173.53944  20650364.8814   20650366.9104
 -22589092.05944 -17601868.10144  20784540.5314   20784543.1484
  -3212423.41344  -2503176.13444  23380576.4334   23380578.3764
  -8781305.18244  -6842575.42844  23377186.7714   23377192.3144
  -8596763.11444  -6698756.42744  23537374.4934   23537379.0314
 95  6 15  2 14  0.0000000  0  7G23G21G28G17G26G 6G 1
 -23607251.38144 -18395228.51844  20652549.0874   20652551.3674
 -16765891.51644 -13064307.89344  21772992.9174   21772996.1464
 -11359667.790 4  -8851685.591 4  22406578.747    22406577.167
 -22565848.74544 -17583756.44044  20788963.6584   20788966.0724
  -3132173.24344  -2440643.53444  23395847.2374   23395849.5734
  -8670946.74544  -6756581.93344  23398187.5704   23398192.7804
  -8705110.61244  -6783182.88744  23516757.1844   23516763.7254
 95  6 15  2 14 30.0000000  0  8G 9G23G21G28G17G26G 6G 1
        -0.28554                  24931894.1794
 -23595362.31444 -18385964.30644  20654811.5044   20654813.7684
 -16817198.18144 -13104287.07244  21763229.4464   21763232.9804
 -11437611.655 4  -8912421.067 4  22391746.718    22391744.485
 -22542268.37444 -17565382.13544  20793451.0564   20793453.1814
  -3051490.56544  -2377773.94544  23411200.8104   23411202.6404
  -8560308.89044  -6670370.71744  23419240.6844   23419245.8114
  -8813285.20644  -6867474.63044  23496172.0044   23496177.0404
 95  6 15  2 15  0.0000000  0  8G 9G23G21G28G17G26G 6G 1
    -60703.13144                  24920341.9974
 -23583198.95944 -18376486.36044  20657126.1954   20657128.4404
 -16868294.00144 -13144101.96244  21753505.9014   21753509.4284
 -11515217.802 4  -8972893.364 4  22376979.172    22376976.364
 -22518496.38444 -17546858.51144  20797974.7834   20797976.9844
  -2970519.98744  -2314679.99844  23426608.2944   23426610.8254
  -8449538.32144  -6584056.09444  23440320.5824   23440324.5384
  -8921418.34544  -6951734.09544  23475593.8664   23475598.8344
 95  6 15  2 15 30.0000000  0  8G 9G23G21G28G17G26G 6G 1
   -121363.22544    -94567.48744  24908799.3074
 -23570813.09544 -18366835.03244  20659483.1584   20659485.3454
 -16919196.28844 -13183766.04144  21743819.6064   21743822.7814
 -11592514.414 4  -9033124.462 4  22362269.871    22362267.644
 -22494561.87244 -17528208.25244  20802529.1284   20802531.4864
  -2889299.08744  -2251390.97344  23442065.1884   23442066.3144
  -8338681.24544  -6497674.05244  23461416.1024   23461420.8424
  -9029529.76144  -7035976.62044  23455021.5494   23455028.2904
 95  6 15  2 16  0.0000000  0  8G 9G23G21G28G17G26G 6G 1
   -181898.48844                  24897279.4594
 -23558141.39944 -18356960.97844  20661894.6094   20661896.6394
 -16969837.30944 -13223226.54044  21734183.0334   21734186.2164
 -11669421.349 4  -9093051.934 4  22347634.996    22347632.911
 -22470380.68044 -17509365.77744  20807130.5524   20807133.0374
  -2807763.56444  -2187856.81344  23457580.4314   23457582.8604
  -8227677.85944  -6411178.00744  23482539.6944   23482545.2944
  -9137526.68144  -7120129.93944  23434470.6564   23434476.0134
 95  6 15  2 16 30.0000000  0  8G 9G23G21G28G17G26G 6G 1
   -242252.12644                  24885795.1174
 -23545150.78844 -18346838.41644  20664366.6264   20664368.5534
 -17020164.26244 -13262442.31344  21724606.1114   21724609.3384
 -11745872.840 4  -9152624.505 4  22333086.756    22333084.918
 -22445884.67744 -17490277.99444  20811792.2934   20811794.3334
  -2725842.40544  -2124022.15744  23473169.2004   23473169.7894
  -8116484.78244  -6324534.15444  23503698.4084   23503703.1564
  -9245341.67544  -7204141.49044  23413953.7804   23413958.7194
 95  6 15  2 17  0.0000000  0  8G 9G23G21G28G17G26G 6G 1
   -302436.03644                  24874342.0284
 -23531901.30444 -18336514.13744  20666887.6654   20666889.9044
 -17070215.43244 -13301443.19244  21715081.8524   21715085.3594
 -11821895.209 4  -9211862.702 4  22318620.048    22318618.189
 -22421098.73944 -17470964.28844  20816508.8414   20816510.8864
  -2643553.94844  -2059901.27944  23488828.6494   23488829.1674
  -8005126.95844  -6237761.90744  23524890.0704   23524893.9384
  -9352995.98144  -7288027.84144  23393468.2654   23393473.5774
 95  6 15  2 17 30.0000000  0  8G 9G23G21G28G17G26G 6G 1
   -362461.42844                  24862918.8764
 -23518408.18644 -18326000.01944  20669455.3664   20669457.6234
 -17120020.43544 -13340252.25744  21705604.5054   21705607.7664
 -11897500.930 4  -9270776.236 4  22304232.687    22304230.815
 -22396021.79144 -17451423.82344  20821280.7164   20821283.2034
  -2560910.67444  -1995503.90744  23504554.9094   23504556.2804
  -7893628.65144  -6150880.21044  23546107.0104   23546110.7204
  -9460484.00744  -7371784.62144  23373013.2394   23373018.9304
 95  6 15  2 18  0.0000000  0  8G 9G23G21G28G17G26G 6G 1
   -422290.83544                  24851534.1624
 -23504603.44744 -18315243.07044  20672082.4284   20672084.6174
 -17169524.28344 -13378826.66544  21696184.0894   21696187.2874
 -11972632.772 4  -9329320.507 4  22289935.495    22289933.483
 -22370598.42844 -17431613.42744  20826118.6104   20826121.1564
  -2477854.44344  -1930784.78544  23520360.0594   23520362.0994
  -7781941.91244  -6063851.64644  23567360.9034   23567364.7084
  -9567753.30744  -7455370.96044  23352600.4194   23352604.6324
 95  6 15  2 18 30.0000000  0  8G 9G23G21G28G17G26G 6G 1
   -481967.93644                  24840177.6104
 -23490540.44544 -18304284.88444  20674758.4384   20674760.8334
 -17218784.27044 -13417211.04844  21686809.9994   21686813.2854
 -12047340.663 4  -9387534.433 4  22275718.872    22275716.830
 -22344877.52844 -17411571.17644  20831013.2124   20831015.4734
  -2394444.01344  -1865789.67344  23536232.6944   23536235.8154
  -7670123.34644  -5976720.36644  23588638.2644   23588643.8334
  -9674862.79344  -7538832.77444  23332217.9514   23332223.6964
 95  6 15  2 19  0.0000000  0  8G 9G23G21G28G17G26G 6G 1
   -541529.42644   -421968.79644  24828844.3084   24828850.0824
 -23476253.79544 -18293152.43244  20677477.2124   20677479.2514
 -17267855.24444 -13455448.14544  21677472.1454   21677475.3074
 -12121674.692 4  -9445457.033 4  22261573.674    22261571.744
 -22318907.62744 -17391334.89644  20835955.2064   20835957.4584
  -2310745.53044  -1800570.08644  23552159.8784   23552161.3244
  -7558220.38444  -5889523.36244  23609933.3344   23609938.2314
  -9781866.88844  -7622212.44844  23311856.0414   23311860.8364
 95  6 15  2 19 30.0000000  0  8G 9G23G21G28G17G26G 6G 1
   -600930.34644   -468255.16344  24817540.0954   24817543.4134
 -23461676.96944 -18281793.85944  20680251.2554   20680253.2104
 -17316681.25244 -13493494.36044  21668180.8524   21668183.9624
 -12195585.813 4  -9503050.095 4  22247509.126    22247507.183
 -22292632.13544 -17370860.50144  20840955.2824   20840957.4064
  -2226723.78744  -1735098.59944  23568149.1454   23568150.6114
  -7446189.21444  -5802226.42644  23631252.3604   23631255.5734
  -9888739.43444  -7705489.62944  23291518.3604   23291523.5004
 95  6 15  2 20  0.0000000  0  8G 9G23G21G28G17G26G 6G 1
   -660134.38944   -514388.06044  24806273.8254   24806278.5484
 -23446787.42044 -18270191.60044  20683084.4944   20683086.5344
 -17365225.93044 -13531321.34744  21658942.9774   21658946.1624
 -12269040.517 4  -9560287.506 4  22233530.990    22233528.994
 -22266021.13044 -17350124.66144  20846019.0474   20846021.4184
  -2142348.09144  -1669351.29944  23584205.6954   23584206.1994
  -7333981.01844  -5714791.58444  23652605.1274   23652610.2144
  -9995475.13844  -7788660.18244  23271207.6144   23271212.0804
 95  6 15  2 20 30.0000000  0  8G 9G23G21G28G17G26G 6G 1
   -719218.30044   -560427.32644  24795029.8924   24795033.7764
 -23431683.58044 -18258422.37044  20685958.7264   20685960.7894
 -17413584.15444 -13569003.05644  21649740.9064   21649744.0974
 -12342132.867 4  -9617242.558 4  22219621.981    22219619.802
 -22239168.16244 -17329200.27544  20851129.0894   20851131.3114
  -2057712.94044  -1603401.84544  23600311.0674   23600313.0764
  -7221684.89544  -5627288.22944  23673973.8594   23673978.9274
 -10102161.49044  -7871792.28244  23250905.3414   23250910.7674
 95  6 15  2 21  0.0000000  0  8G 9G23G21G28G17G26G 6G 1
   -778109.08644   -606316.14144  24783824.0514   24783829.3114
 -23416289.12244 -18246426.68344  20688888.0944   20688890.3144
 -17461666.15444 -13606469.52544  21640591.1934   21640594.2404
 -12414790.176 4  -9673858.610 4  22205795.834    22205793.872
 -22212007.87644 -17308036.42444  20856297.9054   20856300.0404
  -1972747.11444  -1537194.74244  23616479.1094   23616480.6454
  -7109226.38244  -5539658.31944  23695374.4174   23695378.0094
 -10208715.65944  -7954821.38744  23230628.6914   23230633.5694
 95  6 15  2 21 30.0000000  0  8G 9G23G21G28G17G26G 6G 1
   -836791.56444   -652042.61144  24772656.5994   24772659.8224
 -23400613.94144 -18234212.25844  20691870.8414   20691873.1594
 -17509454.93944 -13643707.51744  21631497.0834   21631500.3134
 -12486996.613 4  -9730123.348 4  22192055.387    22192053.261
 -22184528.89044 -17286624.24244  20861526.8644   20861528.9524
  -1887431.95044  -1470715.40044  23632714.2974   23632714.6544
  -6996600.98544  -5451898.36644  23716806.6844   23716812.3864
 -10315108.18544  -8037724.54744  23210382.3964   23210387.5064
 95  6 15  2 22  0.0000000  0  8G 9G23G21G28G17G26G 6G 1
   -895245.36844   -697590.91644  24761533.3614   24761536.3364
 -23384659.43844 -18221780.17644  20694907.0004   20694908.9484
 -17556944.66344 -13680712.47144  21622460.2344   21622463.2984
 -12558737.652 4  -9786025.436 4  22178403.294    22178401.329
 -22156729.87544 -17264962.68644  20866816.6634   20866818.8094
  -1801759.26444  -1403957.45944  23649016.9504   23649017.8874
  -6883798.94844  -5364000.76944  23738272.3224   23738277.3594
 -10421300.89344  -8120472.00844  23190174.9434   23190180.5534
 95  6 15  2 22 30.0000000  0  8G 9G23G21G28G17G26G 6G 1
   -953486.06944   -742973.14144  24750450.1364   24750454.7884
 -23368440.39644 -18209141.95744  20697993.4084   20697995.4174
 -17604148.36644 -13717494.55144  21613477.7224   21613480.6364
 -12630026.901 4  -9841575.480 4  22164837.394    22164835.426
 -22128631.02444 -17243067.49044  20872163.7894   20872165.9694
  -1715757.69644  -1336943.26844  23665382.9884   23665382.6554
  -6770848.66644  -5275987.66544  23759765.7494   23759771.7254
 -10527286.41544  -8203058.01344  23170006.7574   23170011.0884
 95  6 15  2 23  0.0000000  0  8G 9G23G21G28G17G26G 6G 1
  -1011520.49244   -788194.64744  24739406.5904   24739409.2794
 -23351963.11444 -18196302.50944  20701128.6344   20701130.9084
 -17651069.23244 -13754056.23344  21604548.6714   21604551.7354
 -12700859.563 4  -9896769.735 4  22151358.056    22151356.435
 -22100228.83844 -17220935.92344  20877568.6584   20877570.5824
  -1629433.66244  -1269677.81844  23681809.5274   23681811.4454
  -6657740.97944  -5187851.89244  23781289.2654   23781293.8284
 -10633064.41744  -8285482.30944  23149877.8904   23149883.0024
 95  6 15  2 23 30.0000000  0  8G 9G23G21G28G17G26G 6G 1
  -1069386.30644   -833284.78844  24728395.1704   24728398.3614
 -23335256.12444 -18183284.07544  20704308.0234   20704310.3264
 -17697742.59944 -13790425.06544  21595666.7724   21595669.9714
 -12771262.615 4  -9951629.240 4  22137960.608    22137959.278
 -22071550.69044 -17198589.32644  20883025.5724   20883027.9744
  -1542817.19944  -1202184.49044  23698291.9794   23698292.5634
  -6544500.40444  -5099612.51844  23802838.1094   23802841.3334
 -10738676.76244  -8367777.54844  23129779.7654   23129783.1354
 95  6 15  2 24  0.0000000  0  8G 9G23G21G28G17G26G 6G 1
  -1127134.29744   -878283.12144  24717406.2004   24717412.7154
 -23318339.19744 -18170102.05144  20707527.3274   20707529.3304
 -17744207.88444 -13826631.75544  21586824.6824   21586827.9004
 -12841272.822 4 -10006182.626 4  22124638.334    22124636.389
 -22042642.05544 -17176063.13144  20888526.8004   20888528.7664
  -1455951.41244  -1134496.86044  23714821.8394   23714822.5734
  -6431157.13044  -5011293.11944  23824406.7114   23824414.1104
 -10844171.20644  -8449980.90544  23109705.4684   23109710.1944
 95  6 15  2 24 30.0000000  0  8G 9G23G21G28G17G26G 6G 1
  -1184704.13344   -923142.62144  24706450.5204   24706454.3974
 -23301146.43644 -18156705.08944  20710798.8794   20710800.9314
 -17790396.93044 -13862623.19044  21578035.5374   21578038.5364
 -12910819.458 4 -10060374.784 4  22111404.283    22111402.347
 -22013431.73544 -17153301.85844  20894085.4894   20894087.3274
  -1368766.41844  -1066560.49044  23731411.5514   23731413.0534
  -6317640.57344  -4922838.77144  23846009.5134   23846012.5914
 -10949497.79944  -8532053.46944  23089662.7024   23089666.4804
 95  6 15  2 25  0.0000000  0  8G 9G23G21G28G17G26G 6G 1
  -1242089.14444   -967858.09244  24695530.4834   24695537.0944
 -23283675.82944 -18143091.62544  20714123.4574   20714125.3444
 -17836315.30444 -13898403.71344  21569297.4204   21569300.5924
 -12979899.316 4 -10114203.243 4  22098258.556    22098256.815
 -21983926.77544 -17130310.99944  20899699.9984   20899702.2474
  -1281254.03844   -998369.00744  23748065.5874   23748069.2244
  -6203959.25544  -4834255.99244  23867641.1054   23867645.3464
 -11054671.23644  -8614006.69044  23069648.4164   23069652.2484
 95  6 15  2 25 30.0000000  0  8G 9G23G21G28G17G26G 6G 1
  -1299301.35544  -1012438.95444  24684643.6244   24684647.2434
 -23265934.61444 -18129267.28844  20717499.5184   20717501.4544
 -17881983.70344 -13933989.46044  21560606.9994   21560610.2054
 -13048525.509 4 -10167678.198 4  22085199.711    22085197.740
 -21954149.92544 -17107108.27644  20905366.3454   20905368.7404
  -1193429.45944   -929934.28444  23764778.4464   23764780.8484
  -6090153.82044  -4745576.53944  23889297.8284   23889302.9094
 -11159702.01444  -8695848.74444  23049661.0244   23049665.6604
 95  6 15  2 26  0.0000000  0  8G 9G23G21G28G17G26G 6G 1
  -1356305.69644  -1056857.81744  24673795.6934   24673798.7984
 -23247901.48244 -18115215.48944  20720931.0564   20720932.9624
 -17927394.10644 -13969374.16244  21551965.8854   21551968.7074
 -13116673.703 4 -10220780.676 4  22072231.475    22072229.635
 -21924082.64644 -17083679.24444  20911087.8894   20911089.9744
  -1105268.53544   -861237.46944  23781555.2874   23781557.1834
  -5976222.35744  -4656798.88344  23910978.0544   23910982.2194
 -11264554.50744  -8777551.87844  23029708.5164   23029713.6024
 95  6 15  2 26 30.0000000  0  8G 9G23G21G28G17G26G 6G 1
  -1413091.34744  -1101106.29144  24662990.1094   24662991.9164
 -23229581.24844 -18100939.98044  20724417.4134   20724419.4004
 -17972555.35444 -14004564.71944  21543371.8484   21543374.9754
 -13184346.053 4 -10273512.373 4  22059353.806    22059351.895
 -21893723.63644 -17060022.89644  20916865.0134   20916867.0564
  -1016770.41744   -792277.90044  23798396.4144   23798398.9714
  -5862191.94144  -4567944.14244  23932678.4104   23932683.9284
 -11369227.43644  -8859115.09044  23009790.2004   23009794.4174
 95  6 15  2 27  0.0000000  0  8G 9G23G21G28G17G26G 6G 1
  -1469654.66244  -1145181.47544  24652225.3834   24652229.3114
 -23210972.70844 -18086439.81944  20727958.2924   20727960.2794
 -18017478.50544 -14039569.74844  21534823.2564   21534826.4084
 -13251545.734 4 -10325875.752 4  22046566.295    22046564.265
 -21863078.64644 -17036143.70944  20922696.4794   20922698.5784
   -927944.96144   -723063.26944  23815298.1564   23815299.9044
  -5748077.01244  -4479023.54944  23954393.2184   23954396.8024
 -11473696.80344  -8940519.71144  22989910.4714   22989913.8664
 95  6 15  2 27 30.0000000  0  8G 9G23G21G28G17G26G 6G 1
  -1526020.37244  -1189102.74744  24641499.5344   24641505.1714
 -23192112.65144 -18071743.66844  20731547.3534   20731549.3874
 -18062202.86244 -14074419.87444  21526312.5864   21526315.5824
 -13318303.432 4 -10377894.743 4  22033862.302    22033860.765
 -21832167.52544 -17012057.15044  20928578.8434   20928581.3784
   -838835.35944   -653627.21144  23832254.9164   23832257.5204
  -5633905.43444  -4390058.79544  23976118.9424   23976124.8604
 -11577976.86644  -9021776.80744  22970066.8244   22970071.3234
 95  6 15  2 28  0.0000000  0  8G 9G23G21G28G17G26G 6G 1
  -1582165.27244  -1232851.87644  24630815.8544   24630816.8724
 -23173013.48044 -18056861.19744  20735181.8714   20735183.8394
 -18106724.68044 -14109112.18144  21517840.4374   21517843.4194
 -13384610.414 4 -10429562.526 4  22021244.807    22021243.090
 -21800974.83944 -16987751.18244  20934514.8854   20934517.2974
   -749440.73944   -583969.06444  23849265.8974   23849268.3784
  -5519660.63144  -4301036.99244  23997859.4834   23997864.9454
 -11682059.18044  -9102879.82044  22950260.5164   22950264.6134
 95  6 15  2 28 30.0000000  0  8G 9G23G21G28G17G26G 6G 1
  -1638065.68144  -1276410.51944  24620178.4704   24620181.5454
 -23153672.61744 -18041790.39744  20738862.3384   20738864.3534
 -18151016.92444 -14143625.59144  21509411.9084   21509414.9414
 -13450449.172 4 -10480865.455 4  22008716.059    22008714.302
 -21769479.37844 -16963209.29144  20940508.1124   20940510.3474
   -659762.27444   -514089.75144  23866330.6724   23866333.9394
  -5405318.46744  -4211939.29944  24019616.9754   24019621.8184
 -11785928.54144  -9183816.89144  22930494.0804   22930497.9784
 95  6 15  2 29  0.0000000  0  8G 9G23G21G28G17G26G 6G 1
  -1693711.95144                  24609588.2994
 -23134103.99344 -18026542.11744  20742586.1224   20742588.2764
 -18195073.64044 -14177955.47644  21501027.9874   21501031.0484
 -13515819.869 4 -10531803.663 4  21996276.478    21996274.745
 -21737680.71044 -16938431.13744  20946559.1834   20946561.4144
   -569818.73544   -444003.87344  23883447.0094   23883451.2824
  -5290871.40544  -4122759.90744  24041395.8584   24041402.0014
 -11889591.07144  -9264592.80744  22910767.1574   22910771.6684
 95  6 15  2 29 30.0000000  0  8G 9G23G21G28G17G26G 6G 1
  -1749076.26844  -1362912.13744  24599054.0974   24599055.6814
 -23114278.27644 -18011093.50644  20746358.6974   20746360.7034
 -18238853.26744 -14212069.44744  21492697.1314   21492700.1684
 -13580690.458 4 -10582352.187 4  21983932.092    21983930.148
 -21705548.76844 -16913393.28744  20952673.7954   20952675.6524
   -479577.13444   -373685.76644  23900619.8114   23900621.2444
  -5176298.62244  -4033482.49244  24063199.2554   24063206.0044
 -11993041.80344  -9345203.67944  22891081.6354   22891086.3184
 95  6 15  2 30  0.0000000  0  8G 9G23G21G28G17G26G 6G 1
  -1804203.59544  -1405868.44344  24588563.6394   24588567.4864
 -23094229.67044 -17995471.21444  20750173.8804   20750175.7304
 -18282369.80544 -14245978.41644  21484416.2234   21484419.2924
 -13645096.148 4 -10632538.446 4  21971676.348    21971674.101
 -21673132.06744 -16888133.54844  20958842.4794   20958844.8214
   -389067.06544   -303158.44144  23917843.0914   23917845.7904
  -5061643.27244  -3944140.78244  24085017.7474   24085023.4664
 -12096323.02644  -9425682.47144  22871427.6554   22871432.3664
 95  6 15  2 30 30.0000000  0  8G 9G23G21G28G17G26G 6G 1
  -1859084.72944  -1448632.91644  24578119.4424   24578122.3404
 -23073917.62844 -17979643.64744  20754039.4374   20754041.3154
 -18325573.20444 -14279643.38044  21476194.7214   21476197.9244
 -13709005.454 4 -10682337.913 4  21959514.582    21959512.564
 -21640405.08144 -16862632.02444  20965070.3764   20965072.7244
   -298253.25844   -232394.43044  23935124.4844   23935126.7714
  -4946882.90144  -3854717.20744  24106856.5824   24106860.5194
 -12199405.08544  -9506006.08544  22851812.0924   22851816.2414
 95  6 15  2 31  0.0000000  0  8G 9G23G21G28G17G26G 6G 1
  -1913809.93744  -1491275.90944  24567704.8054   24567707.7914
 -23053414.41044 -17963667.11744  20757940.9754   20757942.9534
 -18368536.32344 -14313121.11744  21468019.0444   21468022.1714
 -13772491.145 4 -10731807.300 4  21947433.460    21947431.750
 -21607446.47044 -16836950.01444  20971342.0804   20971344.3924
   -207200.22944   -161444.02344  23952451.4584   23952453.6474
  -4832096.97144  -3765273.74144  24128699.7254   24128704.2694
 -12302355.40044  -9586227.02444  22832220.7064   22832225.0624
 95  6 15  2 31 30.0000000  0  8G 9G23G21G28G17G26G 6G 1
  -1968378.95944  -1533797.17744  24557321.1024   24557322.6604
 -23032698.31044 -17947524.70444  20761882.9354   20761885.0144
 -18411247.40444 -14346402.45644  21459891.4314   21459894.1584
 -13835530.429 4 -10780928.829 4  21935437.642    21935435.726
 -21574242.88744 -16811077.12044  20977660.6584   20977662.7664
   -115884.32044    -90288.78944  23969828.2144   23969829.6474
  -4717262.59244  -3675792.54644  24150551.4754   24150553.8794
 -12405141.04044  -9666319.65144  22812661.5714   22812665.6174
 95  6 15  2 32  0.0000000  0  8G 9G23G21G28G17G26G 6G 1
  -2022750.70244  -1576164.73944  24546974.3484   24546977.4474
 -23011750.71844 -17931201.90144  20765869.3114   20765871.2524
 -18453683.35444 -14379469.41044  21451816.1414   21451819.2944
 -13898087.061 4 -10829674.256 4  21923533.597    21923531.593
 -21540750.50644 -16784979.18544  20984033.7454   20984036.3284
    -24280.87144    -18909.49344  23987260.2554   23987260.6814
  -4602341.54044  -3586243.75444  24172421.4834
 -12507711.21644  -9746244.39344  22793143.2144   22793146.3974
 95  6 15  2 32 30.0000000  0  8G 9G23G21G28G17G26G 6G 1
  -2076851.22944  -1618320.89044  24536679.2084   24536685.1204
 -22990509.39444 -17914650.21244  20769911.0874   20769913.2084
 -18495803.75944 -14412290.48744  21443800.6334   21443803.9834
 -13960094.427 4 -10877991.692 4  21911733.779    21911732.114
 -21506886.74744 -16758591.86144  20990478.1354   20990480.3614
     67659.90844     52732.68944  24004755.8574   24004756.8724
  -4487268.62544                  24194318.9274
 -12610000.55444  -9825950.29344  22773678.7614   22773682.6764
 95  6 15  2 33  0.0000000  0  8G 9G23G21G28G17G26G 6G 1
  -2130679.89044  -1660265.22644  24526436.3854
 -22968990.96944 -17897882.60844  20774005.9564   20774007.9954
 -18537646.08344 -14444894.87444  21435838.0924   21435841.3064
 -14021566.428 4 -10925891.958 4  21900036.282    21900034.369
 -21472670.16144 -16731929.61944  20996989.3314   20996991.4104
    159899.08444    124607.33644  24022308.2784   24022309.7774
  -4372049.76444                  24216243.8964
 -12712020.33144  -9905446.15144  22754264.8154   22754268.6494
 95  6 15  2 33 30.0000000  0  7G21G28G23G17G26G 6G 1
 -18579295.77144 -14477349.15044  21427912.6334   21427915.9494
 -14082570.852 4 -10973427.867 4  21888427.573    21888425.496
 -22947264.49844 -17880952.89244  20778140.2694   20778142.2054
 -21438170.72444 -16705046.97544  21003554.3024   21003556.3734
    252356.09144    196651.74644  24039901.7884   24039904.6774
  -4256758.97444                  24238182.3054
 -12813843.32944  -9984788.66444  22734887.8524   22734892.2634
 95  6 15  2 34  0.0000000  0  6G21G28G17G26G 1G23
 -18620774.34444 -14509670.09344  21420019.6264   21420022.7854
 -14143130.091 4 -11020616.879 4  21876903.467    21876901.647
 -21403396.72144 -16677950.37244  21010171.2904   21010173.9444
    345003.71044    268844.67044  24057532.7394   24057533.1194
 -12915499.17244 -10064000.93344  22715543.1044   22715547.2054
 -22925350.96944 -17863877.41544  20782310.4804   20782312.4964
 95  6 15  2 34 30.0000000  0  6G21G28G17G26G 1G23
 -18662105.34344 -14541876.04044  21412154.5634   21412157.6324
 -14203268.176 4 -11067477.720 4  21865459.557    21865457.712
 -21368388.98844 -16650671.63944  21016833.4344   21016835.7074
    437808.22544    341159.85344  24075192.6814   24075196.8344
 -13017011.24444 -10143101.18344  22696225.9734   22696230.6044
 -22903269.26444 -17846670.88744  20786512.3304   20786514.3314
 95  6 15  2 35  0.0000000  0  6G21G23G28G17G26G 1
 -18703082.14844 -14573805.98744  21404356.7894   21404359.8984
 -22880822.53944 -17829179.93144  20790783.7824   20790786.1084
 -14262783.325 4 -11113853.156 4  21854134.206    21854132.182
 -21332961.30244 -16623065.67744  21023575.1074   21023576.9984
    530967.64744    413751.61244  24092919.7514   24092921.9794
 -13118170.75144 -10221926.69644  22676975.9904   22676980.2174
 95  6 15  2 35 30.0000000  0  7G21G23G28G17G26G 9G 1
 -18743794.62844 -14605529.97544  21396609.6444   21396612.6704
 -22858109.11644 -17811481.16044  20795106.0304   20795108.1524
 -14321776.209 4 -11159821.623 4  21842908.236    21842906.243
 -21297208.41744 -16595206.30144  21030378.4804   21030380.7444
    624395.70044    486552.67144  24110698.6724   24110700.8504
        -0.33754        -0.10454  24475890.1994
 -13219085.75344 -10300561.70144  22657772.5334   22657776.6864
 95  6 15  2 36  0.0000000  0  7G21G23G28G17G26G 9G 1
 -18784259.97344 -14637061.38944  21388909.3134   21388912.4374
 -22835167.79244 -17793604.80244  20799471.6714   20799473.8424
 -14380274.096 4 -11205404.379 4  21831776.273    21831774.422
 -21261159.35644 -16567116.13544  21037238.6844   21037240.9474
    718061.90944    559539.31444  24128521.6764   24128522.8134
    -52303.07244    -40755.46944  24465936.5084
 -13319775.40844 -10379021.09744  22638611.9024   22638616.2134
 95  6 15  2 36 30.0000000  0  7G21G23G28G17G26G 9G 1
 -18824446.84344 -14668375.80444  21381261.9874   21381264.9384
 -22811975.84644 -17775533.15244  20803884.9194   20803887.1074
 -14438244.770 4 -11250576.323 4  21820744.664    21820742.946
 -21224807.04144 -16538789.66344  21044156.3714   21044158.6184
    811989.11544    632729.33044  24146396.0154   24146398.6244
   -104319.11544    -81287.40644  24456038.3124   24456041.3574
 -13420193.63744 -10457268.99144  22619502.9864   22619507.0804
 95  6 15  2 37  0.0000000  0  7G21G23G28G17G26G 9G 1
 -18864362.94744 -14699479.22644  21373666.1584   21373669.1684
 -22788539.25444 -17757270.87744  20808344.4424   20808346.8134
 -14495697.485 4 -11295344.649 4  21809812.046    21809810.193
 -21188151.62944 -16510227.01544  21051131.3164   21051133.7414
    906180.03944    706124.86544  24164320.0554   24164323.1304
   -156052.38044   -121598.99244  24446193.3704   24446193.6964
 -13520350.55144 -10535313.28644  22600443.9694   22600447.4664
 95  6 15  2 37 30.0000000  0  7G21G28G23G17G26G 9G 1
 -18904021.65044 -14730382.08544  21366119.3154   21366122.2944
 -14552645.776 4 -11339719.916 4  21798975.298    21798973.289
 -22764874.99544 -17738831.19744  20812847.7734   20812849.9524
 -21151208.95044 -16481440.53244  21058161.4664   21058163.7044
   1000630.28744    779722.43944  24182294.2394   24182295.8794
   -207499.74644   -161687.80844  24436403.5114   24436407.7344
 -13620267.46344 -10613170.55344  22581430.1074   22581433.3744
 95  6 15  2 38  0.0000000  0  7G21G23G28G17G26G 9G 1
 -18943432.69744 -14761091.96744  21358619.5364   21358622.6074
 -22741011.44444 -17720236.22244  20817389.0024   20817390.9084
 -14609093.973 4 -11383705.506 4  21788233.212    21788231.522
 -21113987.52644 -16452436.83844  21065244.3844   21065247.2324
   1095318.37644    853505.35844  24200313.2214   24200315.3264
   -258673.78944   -201563.62144  24426665.4254   24426667.2774
 -13719938.51344 -10690836.23444  22562462.8414   22562467.1204
 95  6 15  2 38 30.0000000  0  7G21G28G23G17G26G 9G 1
 -18982581.69544 -14791597.66144  21351169.7304   21351173.0494
 -14665021.324 4 -11427285.247 4  21777590.826    21777588.832
 -22716915.40244 -17701460.08844  20821974.5124   20821976.5554
 -21076464.82844 -16423198.38144  21072384.7884   21072387.3694
   1190265.09144    927489.76444  24218381.0044   24218382.5534
   -309559.60344   -241214.83244  24416982.4094   24416984.6934
 -13819366.32944 -10768312.39644  22543542.6744   22543545.9644
 95  6 15  2 39  0.0000000  0  7G23G21G28G17G26G 9G 1
 -22692582.46544 -17682499.36044  20826604.6854   20826607.0524
 -19021466.57744 -14821897.54544  21343770.4374   21343773.4504
 -14720424.150 4 -11470456.260 4  21767047.994    21767045.984
 -21038620.35544 -16393709.19544  21079586.3604   21079588.5924
   1285475.47644   1001679.68444  24236497.9944   24236500.0544
   -360149.39744   -280635.38644  24407354.9384   24407359.0134
 -13918570.11944 -10845613.98444  22524664.6794   22524668.9464
 95  6 15  2 39 30.0000000  0  7G21G28G23G17G26G 9G 1
 -19060148.57444 -14852039.32944  21336409.2924   21336412.2684
 -14775356.410 4 -11513260.603 4  21756594.516    21756592.601
 -22668089.69544 -17663414.09644  20831265.5434   20831267.8004
 -21000508.79744 -16364011.89544  21086838.7584   21086841.1314
   1380871.54844   1076014.28244  24254652.7824   24254653.3924
   -410503.88644   -319872.52744  24397772.5034   24397774.9414
 -14017601.73744 -10922781.41544  22505819.3004   22505823.5044
 95  6 15  2 40  0.0000000  0  7G21G23G28G17G26G 9G 1
 -19098566.55044 -14881975.38444  21329098.6344   21329101.7294
 -22643364.14844 -17644147.43844  20835970.8434   20835972.9284
 -14829742.823 4 -11555639.613 4  21746245.033    21746243.184
 -20962047.25544 -16334041.86944  21094157.7664   21094160.2264
   1476507.36144   1150535.68544  24272850.9254   24272851.3954
   -460557.64044   -358875.37044  24388247.1674   24388252.2764
 -14116377.83544 -10999749.74744  22487023.1114   22487026.6074
 95  6 15  2 40 30.0000000  0  7G21G28G23G17G26G 9G 1
 -19136789.49844 -14911759.46944  21321824.9454   21321827.9284
 -14883641.755 4 -11597638.762 4  21735988.482    21735986.793
 -22618446.99144 -17624731.47144  20840712.4034   20840714.5544
 -20923291.64544 -16303842.70344  21101532.6264   21101535.1734
   1572327.43744   1225200.68344  24291083.0934   24291085.2384
   -510359.31744   -397681.78444  24378771.1324   24378774.8464
 -14214958.25844 -11076565.59444  22468263.8084   22468267.5514
 95  6 15  2 41  0.0000000  0  7G21G23G28G17G26G 9G 1
 -19174755.12544 -14941343.04744  21314600.1754   21314603.2364
 -22593286.55744 -17605125.95044  20845500.1744   20845502.5474
 -14936987.555 4 -11639206.905 4  21725837.245    21725835.313
 -20884173.58344 -16273361.10244  21108976.7154   21108978.8064
   1668384.16344   1300050.06444  24309362.3604   24309365.1584
   -559851.66844   -436247.14944  24369352.5424   24369357.2944
 -14313244.49844 -11153152.21444  22449561.1844   22449564.8584
 95  6 15  2 41 30.0000000  0  7G21G28G23G17G26G 9G 1
 -19212533.34844 -14970780.60344  21307411.3604   21307414.0314
 -14989847.872 4 -11680396.752 4  21715778.291    21715776.142
 -22567947.98644 -17585381.62544  20850321.8014   20850324.3614
 -20844775.92244 -16242661.63944  21116473.4674   21116475.8714
   1764606.32744   1375028.37044  24327673.7024   24327676.7694
   -609105.37644   -474626.55544  24359980.1944   24359982.2464
 -14411282.16644 -11229545.13544  22430904.7644   22430908.1924
 95  6 15  2 42  0.0000000  0  7G23G21G28G17G26G 9G 1
 -22542348.68044 -17565434.12844  20855193.4174   20855195.6534
 -19250058.87244 -15000021.24844  21300270.7314   21300273.5414
 -15042160.543 4 -11721159.859 4  21705823.457    21705821.215
 -20805043.59644 -16211701.40544  21124034.5784   21124037.1954
   1861071.77744   1450196.27444  24346029.8164   24346033.2724
   -658050.27644   -512765.34144  24350665.8724   24350672.2114
 -14509015.99044 -11305701.29844  22412306.1364   22412309.3414
 95  6 15  2 42 30.0000000  0  7G21G28G23G17G26G 9G 1
 -19287295.28844 -15029036.61144  21293184.6124   21293187.5294
 -15093901.331 4 -11761477.348 4  21695977.487    21695975.426
 -22516468.50044 -17545267.75744  20860118.0824   20860119.9344
 -20764963.91144 -16180470.50744  21131661.5724   21131664.1324
   1957807.86644   1525575.03744  24364438.3694   24364438.8694
   -706666.95944   -550648.39044  24341414.6684   24341417.6974
 -14606422.08144 -11381602.10044  22393770.3264   22393774.0504
 95  6 15  2 43  0.0000000  0  7G21G23G28G17G26G 9G 1
 -19324288.92544 -15057862.79344  21286145.1084   21286147.8484
 -22490382.59744 -17524941.08544  20865082.3914   20865084.2344
 -15145123.143 4 -11801390.440 4  21686230.423    21686228.271
 -20724611.54944 -16149027.12544  21139340.2964   21139343.0424
   2054758.36044   1601120.85644  24382887.2604   24382890.6844
   -755012.44844   -588320.15344  24332214.5614   24332216.9314
 -14703551.79944 -11457287.51844  22375286.5644   22375290.7164
 95  6 15  2 43 30.0000000  0  7G23G21G28G17G26G 9G 1
 -22464070.39444 -17504438.07944  20870089.1164   20870091.1934
 -19361023.20944 -15086486.88144  21279154.9444   21279157.5234
 -15195801.210 4 -11840879.847 4  21676586.602    21676584.675
 -20683972.77944 -16117360.56144  21147073.6694   21147075.8784
   2151943.08044   1676849.18744  24401380.8664   24401384.6834
   -803046.19344   -625748.95344  24323073.2984   24323077.1514
 -14800398.15344 -11532752.14944  22356857.7014   22356861.8134
 95  6 15  2 44  0.0000000  0  8G31G23G21G28G17G26G 9G 1
        -0.06854                  24813094.3964
 -22437479.79344 -17483718.14544  20875149.3764   20875151.6454
 -19397438.88944 -15114862.70444  21272224.7814   21272227.4514
 -15245866.769 4 -11879891.970 4  21667059.638    21667057.454
 -20642976.85844 -16085415.71844  21154874.9954   21154877.2824
   2249417.09444   1752803.00344  24419930.5714   24419931.8834
   -850698.86144   -662880.86844  24314005.8074   24314009.1924
 -14896911.51044 -11607957.30644  22338491.9214   22338495.5434
 95  6 15  2 44 30.0000000  0  8G31G23G21G28G17G26G 9G 1
    -96026.28344    -74821.05544  24794824.2484   24794827.8324
 -22410690.16544 -17462843.12744  20880246.9184   20880249.1034
 -19433595.97444 -15143037.02444  21265344.1464   21265347.0004
 -15295377.535 4 -11918471.783 4  21657637.896    21657635.887
 -20601686.23144 -16053241.22144  21162731.9894   21162734.6604
   2347100.20244   1828919.68444  24438518.7394   24438521.8084
   -898042.23444   -699771.74244  24304997.1494   24305002.0774
 -14993150.93044 -11682949.00844  22320177.9954   22320181.8544
 95  6 15  2 45  0.0000000  0  7G21G28G23G17G26G 9G 1
 -19469601.30844 -15171093.09744  21258493.0424   21258496.0644
 -15344428.221 4 -11956693.096 4  21648303.608    21648302.059
 -22383794.32544 -17441885.33944  20885365.2574   20885367.3894
 -20560184.08844 -16020901.90744  21170629.6624   21170632.3494
   2444898.84044   1905126.42344  24457128.9294   24457132.0244
   -945162.58744   -736488.82844  24296029.9364   24296034.4884
 -15089211.80744 -11757801.58944  22301898.6094   22301902.3884
 95  6 15  2 45 30.0000000  0  7G23G21G28G17G26G 9G 1
 -22356733.28244 -17420798.82144  20890514.7114   20890516.8384
 -19505420.10344 -15199003.82044  21251677.0024   21251680.0444
 -15392979.511 4 -11994525.276 4  21639064.486    21639063.059
 -20518414.36544 -15988354.09544  21178578.3544   21178580.5654
   2542842.58844   1981446.22144  24475766.6624   24475767.6264
   -992027.23844   -773006.70844  24287111.8444   24287116.7474
 -15185070.99644 -11832497.01944  22283657.1564   22283660.6724
 95  6 15  2 46  0.0000000  0  8G31G23G21G28G17G26G 9G 1
        -0.29954         7.13254  24740208.9714   24740211.6874
 -22329391.12344 -17399493.25944  20895717.6144   20895719.8944
 -19540916.01044 -15226662.93744  21244921.8694   21244925.0354
 -15440911.347 4 -12031874.768 4  21629943.577    21629941.967
 -20476253.95544 -15955501.84844  21186601.2924   21186603.4494
   2641068.59944   2057985.98844  24494458.4664   24494461.1094
  -1038525.04744   -809238.64544  24278263.4174   24278267.4044
 -15280601.60944 -11906936.41844  22265478.3174   22265481.5264
 95  6 15  2 46 30.0000000  0  8G31G23G21G28G17G26G 9G 1
    -95221.35044    -74182.16144  24722088.7134   24722092.3794
 -22301904.37644 -17378075.02744  20900948.4114   20900950.6194
 -19576225.10044 -15254176.49344  21238202.6244   21238205.7034
 -15488365.983 4 -12068852.410 4  21620913.513    21620911.537
 -20433835.60344 -15922448.60644  21194673.4894   21194675.8954
   2739447.58244   2134644.93144  24513180.7474   24513182.8634
  -1084797.65344   -845295.12544  24269457.6814
 -15375924.65544 -11981214.07844  22247338.8894   22247342.3184
 95  6 15  2 47  0.0000000  0  8G31G23G21G28G17G26G 9G 1
   -190196.79944   -148173.32044  24704013.9444   24704017.5644
 -22274212.73044 -17356497.13444  20906217.8534   20906219.8914
 -19611298.27544 -15281506.20744  21231528.6434   21231531.7304
 -15535288.523 4 -12105415.444 4  21611984.244    21611982.091
 -20391107.64244 -15889154.11044  21202804.0734   21202806.5704
   2838042.09344   2211471.81544  24531942.1674   24531941.7764
  -1130767.40244   -881115.59944  24260710.7974   24260714.8994
 -15470974.10844 -12055278.54644  22229251.2014   22229254.7534
 95  6 15  2 47 30.0000000  0  8G31G23G21G28G17G26G 9G 1
   -284946.85644   -221993.15344  24685984.1654   24685987.4184
 -22246353.26144 -17334788.46244  20911519.3324   20911521.4504
 -19646150.07244 -15308663.42044  21224896.4014   21224899.4314
 -15581700.882 4 -12141580.928 4  21603152.418    21603150.356
 -20348118.62744 -15855656.19344  21210984.6564   21210987.1524
   2936809.63044   2288433.57044  24550737.2844   24550739.7404
  -1176444.94444                  24252018.4594
 -15565776.37944 -12129150.39744  22211211.4614   22211214.7674
 95  6 15  2 48  0.0000000  0  8G31G23G21G28G17G26G 9G 1
   -379390.27644   -295581.45844  24668011.4524   24668015.3064
 -22218274.05944 -17312908.56844  20916862.6524   20916864.7904
 -19680706.63544 -15335590.58944  21218320.6964   21218323.6984
 -15627528.848 4 -12177291.039 4  21594431.639    21594429.743
 -20304801.43744 -15821902.55644  21219227.6384   21219230.0934
   3035814.05944   2365579.86844  24569577.0454   24569578.4704
  -1221739.31144                  24243399.1834
 -15660238.09344 -12202756.90044  22193235.2024   22193238.9074
 95  6 15  2 48 30.0000000  0  8G31G23G21G28G17G26G 9G 1
   -473549.73944   -368958.78744  24650091.0754   24650094.5004
 -22189979.10844 -17290860.55844  20922247.2734   20922249.3134
 -19715003.09144 -15362315.08244  21211794.5454   21211797.4454
 -15672783.987 4 -12212554.804 4  21585819.755    21585818.079
 -20261176.95044 -15787909.45144  21227529.1554   21227531.9374
   3135010.82944   2442876.04844  24588453.9364   24588453.9004
  -1266652.86444   -986996.37144  24234851.9864   24234853.1454
 -15754368.89644 -12276105.54144  22175323.3534   22175327.1004
 95  6 15  2 49  0.0000000  0  8G31G23G21G28G17G26G 9G 1
   -567464.12144   -442151.60744  24632221.9654   24632226.7174
 -22161499.85444 -17268668.93844  20927666.3834   20927668.7914
 -19749072.84144 -15388862.91244  21205310.9024   21205313.8694
 -15717490.867 4 -12247391.349 4  21577312.464    21577310.597
 -20217275.50744 -15753700.54244  21235883.4144   21235885.8364
   3234350.28544   2520283.42444  24607356.2524   24607359.3814
  -1311211.75444  -1021705.19544  24226372.0104   24226374.1704
 -15848198.56544 -12349219.51544  22157467.7334   22157472.4254
 95  6 15  2 49 30.0000000  0  8G31G23G21G28G17G26G 9G 1
   -661111.10644                  24614401.3144
 -22132802.11844 -17246307.07344  20933127.3844   20933129.8654
 -19782873.90744 -15415201.37144  21198878.5944   21198881.6214
 -15761608.542 4 -12281768.770 4  21568916.758    21568915.228
 -20173031.13544 -15719224.42444  21244302.9054   21244305.5574
   3333859.68244   2597823.21544  24626292.6314   24626292.2594
  -1355394.15344  -1056138.91044  24217965.1864   24217967.5204
 -15941691.77644 -12422071.31344  22139676.4114   22139680.2114
 95  6 15  2 50  0.0000000  0  8G31G23G21G28G17G26G 9G 1
   -754521.06644   -587913.19044  24596626.9994
 -22103907.22844 -17223791.57844  20938626.2054   20938628.3584
 -19816457.27244 -15441370.20144  21192488.1894   21192490.8224
 -15805170.735 4 -12315713.354 4  21560627.213    21560625.490
 -20128448.80144 -15684484.95544  21252786.4754   21252788.9774
   3433522.76544   2675482.78344  24645258.0884   24645259.1524
  -1399241.18144  -1090309.47644  24209621.6034   24209622.0764
 -16034865.16744 -12494673.90844  22121946.5664   22121950.8564
 95  6 15  2 50 30.0000000  0  8G31G23G21G28G17G26G 9G 1
   -847688.65744                  24578897.9574
 -22074799.77344 -17201110.44644  20944165.0104   20944167.2884
 -19849826.58344 -15467372.24444  21186138.2974   21186140.7884
 -15848170.508 4 -12349219.677 4  21552444.829    21552443.098
 -20083526.25844 -15649480.38944  21261334.9824   21261337.4814
   3533359.86244   2753277.90144  24664257.1384   24664257.5774
  -1442765.06144                  24201338.5764
 -16127720.68544 -12567028.79944  22104276.4254   22104279.6654
 95  6 15  2 51  0.0000000  0  8G31G23G21G28G17G26G 9G 1
   -940624.19644                  24561211.1544
 -22045502.65144 -17178281.52744  20949739.9764   20949742.1144
 -19882984.04244 -15493209.21244  21179828.4524   21179831.0724
 -15890620.972 4 -12382297.969 4  21544366.812    21544364.971
 -20038270.43844 -15614216.13444  21269947.1634   21269949.5424
   3633361.80744   2831201.49044  24683286.5734   24683291.9354
  -1485982.01344  -1157899.85144  24193114.9584   24193118.3944
 -16220283.73544 -12639155.79644  22086662.4484   22086665.6704
 95  6 15  2 51 30.0000000  0  8G31G23G21G28G17G26G 9G 1
  -1033328.93744                  24543571.3664
 -22016032.80744 -17155318.01544  20955348.2124   20955350.2654
 -19915946.44144 -15518894.17244  21173555.8414   21173558.3034
 -15932540.086 4 -12414962.218 4  21536390.010    21536387.903
 -19992715.71144 -15578718.95244  21278615.6524   21278618.4494
   3733519.35944   2909246.36544  24702346.3194   24702349.4214
  -1528897.31944                  24184947.7704
 -16312579.18944 -12711074.27544  22069099.3044   22069102.7754
 95  6 15  2 52  0.0000000  0  8G31G23G21G28G17G26G 9G 1
  -1125741.56844                  24525985.8234
 -21986356.50044 -17132193.62044  20960995.2214   20960997.2814
 -19948683.64744 -15544403.65944  21167326.4244   21167328.7374
 -15973889.303 4 -12447182.396 4  21528521.379    21528519.499
 -19946855.43644 -15542983.68344  21287342.5704   21287345.0804
   3833874.90144   2987445.43344  24721441.9234   24721442.3564
  -1571462.87844  -1224508.14444  24176848.5624
 -16404571.76544 -12782756.74444  22051593.7964   22051597.3994
 95  6 15  2 52 30.0000000  0  8G31G23G21G28G17G26G 9G 1
  -1217827.09944   -948932.41844  24508461.0434   24508465.2174
 -21956463.55844 -17108900.42144  20966683.9394   20966685.9494
 -19981150.52144 -15569702.50044  21161148.0734   21161150.6374
 -16014634.352 4 -12478931.787 4  21520768.009    21520766.045
 -19900670.82444 -15506995.69444  21296131.4094   21296133.5474
   3934440.15444   3065807.99344  24740580.2844   24740583.2374
  -1613649.88644  -1257381.11744  24168820.5674   24168822.8624
 -16496243.63744 -12854189.31744  22034148.9644   22034152.5194
 95  6 15  2 53  0.0000000  0  8G31G23G21G28G17G26G 9G 1
  -1309602.14144  -1020446.97844  24490998.5324   24491002.6544
 -21926392.70144 -17085468.58944  20972406.2904   20972408.2454
 -20013372.46844 -15594810.49244  21155016.3114   21155019.0714
 -16054802.416 4 -12510231.582 4  21513124.483    21513122.321
 -19854181.58344 -15470770.32944  21304977.7494   21304980.7824
   4035171.28744   3144299.73144  24759748.2314   24759752.8144
  -1655469.75944  -1289967.97044  24160862.1794   24160865.1754
 -16587616.76544 -12925389.10644  22016761.1464   22016764.5444
 95  6 15  2 53 30.0000000  0  8G31G23G21G28G17G26G 9G 1
  -1401077.03244  -1091727.91444  24473589.9574   24473595.5124
 -21896156.65944 -17061908.04144  20978159.8424   20978161.8674
 -20045369.94644 -15619743.57844  21148927.3924   21148929.9044
 -16094405.424 4 -12541091.071 4  21505588.228    21505586.043
 -19807398.09444 -15434315.68044  21313880.4824   21313882.9274
   4136058.57844   3222913.23344  24778946.3034   24778946.5444
  -1696938.56444  -1322281.25544  24152970.7444   24152975.8864
 -16678693.61344 -12996358.03044  21999429.7434   21999433.7234
 95  6 15  2 54  0.0000000  0  8G31G23G21G28G17G26G 9G 1
  -1492242.09644                  24456244.7914
 -21865741.18944 -17038207.68044  20983947.6834   20983949.7924
 -20077131.36944 -15644492.71244  21142883.4434   21142885.9534
 -16133431.077 4 -12571500.670 4  21498161.598    21498159.680
 -19760291.07644 -15397608.93844  21322844.8414   21322846.9504
   4237109.75944   3301654.40844  24798176.1484   24798181.5374
  -1738057.00744  -1354321.55444  24145146.5224   24145150.5104
 -16769452.71744 -13067079.34344  21982158.1384   21982161.9314
 95  6 15  2 54 30.0000000  0  8G31G23G21G28G17G26G 9G 1
  -1583098.91544                  24438956.0404
 -21835129.15544 -17014354.15044  20989772.9494   20989775.2164
 -20108641.98144 -15669046.41944  21136887.2044   21136889.6084
 -16171876.540 4 -12601458.175 4  21490845.533    21490843.718
 -19712843.94144 -15360637.15944  21331873.6204   21331875.9684
   4338314.05944   3380514.88344  24817434.4454   24817438.0344
  -1778823.68644  -1386087.76144  24137388.9074   24137391.9424
 -16859885.70844 -13137546.54144  21964949.6814   21964953.3664
 95  6 15  2 55  0.0000000  0  8G31G23G21G28G17G26G 9G 1
  -1673673.88044  -1304142.94044  24421720.3664
 -21804325.04444 -16990350.95044  20995634.7134   20995636.9564
 -20139928.87244 -15693425.80444  21130933.4814   21130936.1664
 -16209764.072 4 -12630980.925 4  21483636.026    21483633.991
 -19665082.68444 -15323420.61344  21340962.2984   21340965.2104
   4439645.12844   3459474.14344  24836715.7994   24836720.3534
  -1819253.55144  -1417591.51444  24129695.4684   24129698.6414
 -16950002.17044 -13207767.09644  21947801.2384   21947804.8354
 95  6 15  2 55 30.0000000  0  8G31G23G21G28G17G26G 9G 1
  -1763992.70544  -1374522.49544  24404533.2854   24404537.2224
 -21773334.76944 -16966202.68744  21001531.9524   21001534.0534
 -20170996.07744 -15717634.00544  21125021.2914   21125024.3064
 -16247099.320 4 -12660073.321 4  21476531.273    21476529.232
 -19617022.47044 -15285971.11544  21350107.8984   21350110.4244
   4541096.69044   3538527.28944  24856024.7304   24856026.9894
  -1859352.62644  -1448837.51844  24122064.8324   24122067.0634
 -17039810.23344 -13277747.34844  21930710.9584   21930714.3684
 95  6 15  2 56  0.0000000  0  8G31G23G21G28G17G26G 9G 1
  -1854022.13444  -1444675.96944  24387399.9164
 -21742133.18044 -16941889.76144  21007469.3204   21007471.5064
 -20201808.30744 -15741643.52044  21119157.9444   21119160.9224
 -16283852.842 4 -12688712.425 4  21469537.220    21469535.349
 -19568639.95244 -15248270.46944  21359314.9244   21359317.0594
   4642690.03544   3617690.95244  24875354.8844   24875355.4484
  -1899077.67644  -1479792.04744  24114504.9484   24114508.1624
 -17129265.72044 -13347452.85844  21913688.4914   21913692.2184
 95  6 15  2 56 30.0000000  0  7G23G21G28G17G26G 9G 1
 -21710659.99444 -16917365.19244  21013458.4264   21013460.5494
 -20232297.94844 -15765401.66244  21113356.1214   21113358.6124
 -16319952.539 4 -12716842.054 4  21462667.841    21462665.769
 -19519880.73144 -15210276.29044  21368593.2874   21368595.9654
   4744491.24544   3697016.57644  24894727.4444
  -1938350.42844  -1510394.15144  24107031.9034   24107033.3364
 -17218291.30644 -13416823.38744  21896747.0854   21896750.5174
 95  6 15  2 57  0.0000000  0  8G31G23G21G28G17G26G 9G 1
         0.18954                  24353313.3644
 -21679052.91244 -16892736.29544  21019473.2104   21019475.7704
 -20262601.47144 -15789014.77744  21107589.3774   21107592.1954
 -16355515.556 4 -12744553.500 4  21455900.242    21455898.395
 -19470863.23844 -15172080.86344  21377921.1734   21377923.4864
   4846389.62744   3776417.93844  24914116.1734   24914117.0354
  -1977282.39844  -1540730.71144  24099623.2864   24099626.4014
 -17306999.41244 -13485946.52844  21879866.4024   21879870.0044
 95  6 15  2 57 30.0000000  0  8G31G23G21G28G17G26G 9G 1
    -89203.68344                  24336337.3234
 -21647313.01244 -16868003.91344  21025513.1604   21025515.5004
 -20292714.21944 -15812479.24344  21101859.1784   21101862.2414
 -16390533.200 4 -12771839.984 4  21449236.831    21449234.914
 -19421569.07944 -15133669.85344  21387301.8134   21387303.9754
   4948394.15944   3855902.04044  24933527.8754   24933529.4834
  -2015870.19244  -1570799.05944  24092280.1914   24092284.5634
 -17395380.53744 -13554814.87344  21863047.6454   21863051.3224
 95  6 15  2 58  0.0000000  0  7G23G21G28G17G26G 9G 1
 -21615355.16844 -16843101.70444  21031594.6214   21031596.5854
 -20322558.35744 -15835734.39744  21096180.0714   21096182.6844
 -16424925.972 4 -12798639.553 4  21442692.214    21442690.113
 -19371907.01244 -15094972.14844  21396751.6764   21396754.5864
   5050570.90144   3935520.26644  24952973.5184   24952974.7684
  -2054047.83344  -1600547.80944  24085015.1494   24085018.2694
 -17483353.53544 -13623365.20744  21846307.3814   21846310.8264
 95  6 15  2 58 30.0000000  0  8G31G23G21G28G17G26G 9G 1
        -1.22854                  24302580.9844
 -21583208.82344 -16818052.60544  21037711.8094   21037713.7964
 -20352168.92744 -15858807.55144  21090545.4674   21090547.9964
 -16458723.670 4 -12824975.434 4  21436260.833    21436258.558
 -19321899.67544 -15056005.41544  21406268.2944   21406270.3054
   5152882.21144   4015243.31844  24972442.5884   24972442.4384
  -2091854.61344  -1630007.59644  24077820.5974   24077822.5964
 -17570975.93944 -13691642.35444  21829633.3894   21829636.5394
 95  6 15  2 59  0.0000000  0  7G23G21G28G17G26G 9G 1
 -21550927.23644 -16792898.12044  21043854.6694   21043856.7194
 -20381601.35544 -15881741.89744  21084944.4874   21084947.4634
 -16491985.611 4 -12850893.837 4  21429931.302    21429929.039
 -19271600.15644 -15016811.00144  21415839.8904   21415842.0524
   5255261.78144   4095019.60344  24991923.0604
  -2129344.70844  -1659220.61644  24070686.3994   24070691.9464
 -17658322.65844 -13759704.67844  21813011.9134   21813015.0724
 95  6 15  2 59 30.0000000  0  7G23G21G28G17G26G 9G 1
 -21518448.97344 -16767590.38644  21050035.3534   21050037.6474
 -20410783.89044 -15904481.52144  21079391.0284   21079393.6884
 -16524661.701 4 -12876355.739 4  21423712.907    21423711.110
 -19220969.86344 -14977358.84144  21425474.1194   21425476.9774
   5357755.77444   4174885.15144  25011427.8704
  -2166465.80944  -1688146.09244  24063622.5494   24063624.2344
 -17745353.58744 -13827520.93644  21796450.1664   21796453.4244
 95  6 15  3  0  0.0000000  0  7G23G21G28G17G26G 9G 1
 -21485702.14944 -16742073.37844  21056266.6374   21056268.9764
 -20439641.92844 -15926968.28444  21073899.9144   21073902.7204
 -16556677.593 4 -12901303.202 4  21417620.404    21417618.697
 -19169952.11644 -14937604.76844  21435182.5284   21435185.1254
   5460439.87744   4254898.79944  25030968.1604   25030971.3324
  -2203128.72544  -1716714.55044  24056646.0444   24056648.3664
 -17832007.37544 -13895043.31344  21779960.4124   21779963.5684
 95  6 15  3  0 30.0000000  0  6G23G21G28G17G 9G 1
 -21452742.11344 -16716390.23244  21062538.5834   21062540.8514
 -20468228.66744 -15949243.64944  21068460.0214   21068462.7424
 -16588073.782 4 -12925767.779 4  21411645.995    21411644.124
 -19118613.47644 -14897600.65644  21444952.2684   21444954.8674
  -2239352.26644  -1744940.60644  24049752.9034   24049755.2484
 -17918317.29144 -13962297.74144  21763536.3624   21763539.5324
 95  6 15  3  1  0.0000000  0  7G31G23G21G28G17G 9G 1
        -0.30554                  24219287.1004
 -21419541.31244 -16690519.47944  21068856.6734   21068858.7334
 -20496514.04344 -15971284.19044  21063077.3464   21063080.2234
 -16618812.491 4 -12949720.039 4  21405796.705    21405794.740
 -19066925.45444 -14857324.29444  21454787.9224   21454790.4894
  -2275097.48044  -1772793.95844  24042950.5384   24042952.0614
 -18004214.20844 -14029230.35144  21747190.5874   21747193.5884
 95  6 15  3  1 30.0000000  0  8G31G23G21G28G17G26G 9G 1
    -86504.90644                  24202825.1144
 -21386214.74644 -16664550.72844  21075198.6944   21075200.7344
 -20524613.62644 -15993179.96044  21057730.3254   21057732.9804
 -16648994.734 4 -12973238.688 4  21400053.265    21400051.304
 -19014981.83144 -14816848.77044  21464672.5884   21464675.4264
        -0.17454                  25089778.3024
  -2310473.94044  -1800359.98644  24036217.8844   24036219.4094
 -18089780.36444 -14095905.22944  21730907.9474   21730911.0554
 95  6 15  3  2  0.0000000  0  7G31G23G21G28G17G 9G 1
   -172739.29344                  24186417.7204
 -21352801.49844 -16638514.42744  21081556.6944   21081558.8844
 -20552574.24044 -16014967.42544  21052409.7224   21052411.9974
 -16678644.587 4 -12996342.486 4  21394411.034    21394409.077
 -18962800.51944 -14776188.04144  21474602.5714   21474605.0464
  -2345511.03644  -1827661.55744  24029551.0904   24029554.7124
 -18175030.28344 -14162333.69544  21714685.4294   21714688.6174
 95  6 15  3  2 30.0000000  0  6G23G21G28G17G 9G 1
 -21319258.79644 -16612377.26144  21087939.5794   21087941.9624
 -20580336.03344 -16036599.97244  21047126.6364   21047129.0294
 -16707706.692 4 -13018988.297 4  21388880.785    21388878.800
 -18910318.05444 -14735292.63344  21484589.4774   21484592.2574
  -2380172.95244  -1854670.80744  24022954.6664   24022957.8144
 -18259895.11144 -14228462.07744  21698535.7304   21698538.9254
 95  6 15  3  3  0.0000000  0  8G31G23G21G28G17G26G 9G 1
        -0.43754                  24153791.1284
 -21285537.10344 -16586100.61844  21094356.9924   21094359.0664
 -20607841.72644 -16058032.96444  21041892.3214   21041895.1064
 -16736145.130 4 -13041148.134 4  21383469.270    21383467.191
 -18857475.53944 -14694116.67144  21494644.9764   21494647.6274
        -1.14454        -0.89554  25148791.1864   25148792.2664
  -2414429.43644  -1881364.05744  24016436.8114   24016441.0084
 -18344355.97644 -14294275.68744  21682463.6614   21682466.8594
 95  6 15  3  3 30.0000000  0  8G31G23G21G28G17G26G 9G 1
    -85197.18144                  24137579.4504
 -21251642.38844 -16559689.14944  21100807.1284   21100809.0554
 -20635096.69444 -16079270.59044  21036705.8074   21036708.6664
 -16763972.584 4 -13062831.876 4  21378173.653    21378171.749
 -18804287.06544 -14652671.13044  21504766.5384   21504769.1384
    103649.16844     80765.59544  25168513.3724   25168514.5034
  -2448279.39544  -1907740.59144  24009994.6974   24009997.4294
 -18428450.93244 -14359804.16344  21666461.0604   21666464.3584
 95  6 15  3  4  0.0000000  0  8G31G23G21G28G17G26G 9G 1
   -170100.01444                  24121422.5604
 -21217620.87044 -16533178.87044  21107280.9874   21107283.1844
 -20662138.18244 -16100341.86444  21031559.9454   21031562.4644
 -16791235.397 4 -13084075.646 4  21372985.879    21372983.887
 -18750811.30244 -14611001.73744  21514942.6004   21514945.2034
    207394.01144                  25188255.3714
  -2481756.61144  -1933826.68144  24003624.6244   24003627.6034
 -18512230.83544 -14425087.14744  21650517.9264   21650521.2374
 95  6 15  3  4 30.0000000  0  8G31G23G21G28G17G26G 9G 1
   -254698.42744                  24105323.9864
 -21183458.25744 -16506558.64944  21113781.3914   21113783.6434
 -20688955.01544 -16121238.08344  21026457.0574   21026459.3544
 -16817927.908 4 -13104875.014 4  21367906.410    21367904.587
 -18697038.85744 -14569101.16044  21525175.3484   21525177.9804
    311234.19044                  25208015.4994
  -2514844.99844  -1959609.78444  23997327.4944   23997331.0944
 -18595688.43844 -14490118.98844  21634636.6064   21634639.7774
 95  6 15  3  5  0.0000000  0  8G31G23G21G28G17G26G 9G 1
   -338973.50744                  24089285.0554
 -21149120.84144 -16479802.21744  21120315.7134   21120317.8614
 -20715555.19444 -16141965.47144  21021395.0514   21021397.8874
 -16844034.895 4 -13125218.137 4  21362938.171    21362936.371
 -18642955.49544 -14526958.31844  21535467.1454   21535469.1284
    415170.38044                  25227795.3954
  -2547516.85144  -1985068.28544  23991109.6704   23991112.6944
 -18678803.80344 -14554884.14544  21618820.3514   21618823.4894
 95  6 15  3  5 30.0000000  0  8G31G23G21G28G17G26G 9G 1
   -422894.76044                  24073314.6834
 -21114595.71744 -16452899.51844  21126885.5534   21126887.9764
 -20741934.68744 -16162520.90944  21016375.1044   21016378.1024
 -16869524.845 4 -13145080.445 4  21358087.793    21358085.906
 -18588542.79844 -14484558.84244  21545821.4924   21545824.0744
    519214.06144    404582.36044  25247592.5274
  -2579751.17944  -2010185.89544  23984976.8884   23984980.1414
 -18761517.23544 -14619336.11144  21603080.3414   21603083.6514
 95  6 15  3  6  0.0000000  0  8G31G23G21G28G17G26G 9G 1
   -506577.38144                  24057390.5304
 -21080023.42044 -16425960.06144  21133464.8464   21133466.8404
 -20768224.00444 -16183006.09244  21011372.5104   21011375.4824
 -16894530.108 4 -13164565.074 4  21353329.499    21353327.492
 -18533938.46544 -14442010.04944  21556212.3054   21556215.0804
    623214.04444    485621.27544  25267383.7274
  -2611704.80344  -2035084.74844  23978895.6504   23978898.7174
 -18843944.50644 -14683565.09844  21587395.0034   21587398.3344
 95  6 15  3  6 30.0000000  0  8G31G23G21G28G17G26G 9G 1
   -589944.93844                  24041527.6504
 -21045335.26744 -16398930.32344  21140065.8614   21140067.8884
 -20794353.61044 -16203366.81344  21006400.3484   21006403.2324
 -16918980.622 4 -13183617.430 4  21348676.761    21348674.817
 -18479065.45944 -14399251.89844  21566654.2704   21566657.1144
    727223.92244    566667.89644  25287178.0474
  -2643324.41644  -2059723.36444  23972879.3814   23972882.5754
 -18926026.36744 -14747524.94344  21571775.3704   21571778.6604
 95  6 15  3  7  0.0000000  0  8G31G23G21G28G17G26G 9G 1
   -672891.49044                  24025744.2534
 -21010430.34644 -16371731.67544  21146707.8184   21146709.7974
 -20820206.62644 -16223511.99744  21001480.6254   21001483.1904
 -16942765.492 4 -13202151.108 4  21344150.962    21344148.564
 -18423823.23544 -14356206.05644  21577166.8194   21577169.4724
    831344.38044                  25306991.9274
  -2674512.80344  -2084025.94244  23966943.6944   23966944.5884
 -19007653.97744 -14811130.83644  21556242.0034   21556245.1964
 95  6 15  3  7 30.0000000  0  8G31G23G21G28G17G26G 9G 1
   -755315.18544   -588557.24744  24010059.4814   24010060.2574
 -20975236.74744 -16344308.08244  21153404.9214   21153407.1684
 -20845658.84944 -16243344.88244  20996637.1014   20996639.5854
 -16965787.050 4 -13220089.993 4  21339769.906    21339767.874
 -18368112.91344 -14312795.44944  21587768.0314   21587770.4284
    935682.88244    729103.33444  25326844.5394
  -2705177.09244  -2107920.14644  23961108.5634   23961110.7024
 -19088743.13744 -14874317.16544  21540811.2614   21540814.4554
 95  6 15  3  8  0.0000000  0  7G31G23G21G28G17G 9G 1
   -837337.27244   -652470.56244  23994451.4044   23994449.3704
 -20939878.50944 -16316756.19944  21160133.2434   21160135.5754
 -20870826.55744 -16262956.07344  20991847.9914   20991850.3104
 -16988177.899 4 -13237537.415 4  21335508.974    21335507.069
 -18312056.10444 -14269114.85244  21598435.2884   21598437.8614
  -2735433.42644  -2131496.46144  23955351.0854   23955353.7914
 -19169449.50044 -14937205.21944  21525453.1604   21525456.4924
 95  6 15  3  8 30.0000000  0  7G31G23G21G28G17G 9G 1
   -919057.05944   -716148.27244  23978902.1614   23978903.6514
 -20904436.48144 -16289139.02744  21166877.8024   21166880.0214
 -20895814.13244 -16282426.90344  20987093.0884   20987095.6364
 -17010027.564 4 -13254563.134 4  21331350.960    21331349.324
 -18255731.28444 -14225225.41344  21609153.1864   21609156.2214
  -2765342.95444  -2154802.48744  23949659.8154   23949661.8784
 -19249866.35144 -14999867.66444  21510150.4624   21510153.6064
 95  6 15  3  9  0.0000000  0  7G31G23G21G28G17G 9G 1
  -1000447.41344   -779569.33744  23963413.0294   23963414.5804
 -20868860.09844 -16261417.16644  21173647.7344   21173649.8894
 -20920589.67944 -16301732.51144  20982378.4744   20982380.7994
 -17031294.786 4 -13271135.003 4  21327304.088    21327302.084
 -18199104.85144 -14181100.95944  21619929.1014   21619931.9084
  -2794843.38044  -2177789.79644  23944045.5864   23944048.0514
 -19329937.61944 -15062260.81044  21494913.3834   21494916.5634
 95  6 15  3  9 30.0000000  0  7G31G23G21G28G17G 9G 1
  -1081445.87044   -842685.01444  23947999.8024   23948002.6924
 -20833076.40944 -16233533.76944  21180457.0084   21180459.2414
 -20945103.80044 -16320834.41644  20977713.5904   20977715.7654
 -17051915.359 4 -13287202.985 4  21323380.374    21323378.303
 -18142111.38044 -14136690.49544  21630774.4624   21630777.3424
  -2823849.89144  -2200392.21744  23938525.5544   23938528.2684
 -19409594.63844 -15124331.16544  21479755.0794   21479758.0144
 95  6 15  3 10  0.0000000  0  7G31G23G21G28G17G 9G 1
  -1162089.50044   -905524.18244  23932653.6974   23932656.8274
 -20797086.98744 -16205490.05644  21187305.6944   21187307.9124
 -20969399.32444 -16339765.99244  20973090.1734   20973092.4034
 -17071915.260 4 -13302787.330 4  21319574.351    21319572.156
 -18084788.31044 -14092023.19244  21641683.1284   21641685.8174
  -2852374.32644  -2222619.00244  23933097.6004   23933099.0874
 -19488849.40644 -15186088.07244  21464673.2084   21464676.3814
 95  6 15  3 10 30.0000000  0  7G31G23G21G28G17G 9G 1
  -1242391.77044   -968097.34144  23917371.5134   23917374.9514
 -20760899.81244 -16177292.24944  21194191.8394   21194193.9684
 -20993495.61244 -16358542.31644  20968504.6844   20968507.1874
 -17091299.865 4 -13317892.224 4  21315885.519    21315883.785
 -18027143.27944 -14047105.01344  21652652.4244   21652654.8054
  -2880429.60144  -2244480.21544  23927758.5954   23927760.4714
 -19567690.69344 -15247522.79744  21449670.2014   21449673.4104
 95  6 15  3 11  0.0000000  0  7G31G23G21G28G17G 9G 1
  -1322357.26644  -1030408.11144  23902154.1394   23902156.3234
 -20724549.31044 -16148967.17344  21201109.2204   21201111.1844
 -21017408.31244 -16377175.58244  20963954.3754   20963957.0014
 -17110089.428 4 -13332533.447 4  21312310.020    21312308.122
 -17969209.05844 -14001961.48244  21663677.1354   21663679.9494
  -2908052.25844  -2266004.33144  23922502.8284   23922504.4554
 -19646133.06544 -15308646.67344  21434743.0794   21434746.2804
 95  6 15  3 11 30.0000000  0  7G31G23G21G28G17G 9G 1
  -1401931.88244  -1092414.26144  23887011.8194   23887016.9224
 -20688019.68844 -16120502.53044  21208060.6114   21208062.6544
 -21041113.25444 -16395646.95144  20959443.4024   20959445.8224
 -17128258.608 4 -13346691.258 4  21308852.558    21308850.764
 -17910953.99344 -13956567.93144  21674762.8454   21674765.3004
  -2935220.29744  -2287174.20644  23917332.1234   23917335.3014
 -19724157.99044 -15369445.25644  21419895.5784   21419898.7534
 95  6 15  3 12  0.0000000  0  7G31G23G21G28G17G 9G 1
  -1481116.53744  -1154116.60344  23871942.8324   23871945.1194
 -20651331.40744 -16091914.25744  21215042.3824   21215044.2414
 -21064618.42244 -16413962.65944  20954970.6534   20954973.2254
 -17145818.545 4 -13360374.334 4  21305511.125    21305509.008
 -17852380.11044 -13910925.95644  21685908.7384   21685911.8994
  -2961962.48744  -2308012.22144  23912243.8194   23912246.7724
 -19801780.51744 -15429930.27544  21405124.3144   21405127.5164
 95  6 15  3 12 30.0000000  0  7G31G23G21G28G17G 9G 1
  -1559902.58144  -1215508.29944  23856951.4524   23856952.6534
 -20614508.94044 -16063221.42244  21222049.3364   21222051.3954
 -21087922.74844 -16432121.87344  20950535.9234   20950538.2464
 -17162765.570 4 -13373579.819 4  21302286.029    21302284.022
 -17793478.55844 -13865028.64944  21697117.3294   21697120.2764
  -2988284.01444  -2328522.43244  23907234.9474   23907237.7514
 -19879004.94544 -15490105.11844  21390428.9744   21390432.1564
 95  6 15  3 13  0.0000000  0  7G31G23G21G28G17G 9G 1
  -1638289.57744  -1276589.00444  23842035.0784   23842041.6174
 -20577552.45244 -16034424.16344  21229081.8854   21229083.9224
 -21111006.60144 -16450109.27944  20946143.1824   20946145.7844
 -17179096.048 4 -13386304.873 4  21299178.575    21299176.514
 -17734264.00244 -13818887.46044  21708385.6064   21708388.4264
  -3014169.02544  -2348692.51644  23902308.5104   23902309.5374
 -19955834.35744 -15549972.13644  21375808.9124   21375812.0764
 95  6 15  3 13 30.0000000  0  7G31G23G21G28G17G 9G 1
  -1716280.86544  -1337361.36744  23827191.8404   23827197.8134
 -20540453.36744 -16005515.79044  21236141.5234   21236143.6834
 -21133856.29744 -16467914.22244  20941794.9874   20941797.4054
 -17194802.099 4 -13398543.365 4  21296189.871    21296188.091
 -17674721.10744 -13772490.42644  21719715.5054   21719718.7304
  -3039596.45744  -2368506.04644  23897470.1184   23897474.6664
 -20032260.88744 -15609525.22444  21361265.1374   21361268.2784
 95  6 15  3 14  0.0000000  0  7G31G23G21G28G17G 9G 1
  -1793943.00044  -1397877.28144  23812414.1674   23812417.8844
 -20503253.45744 -15976528.85044  21243220.8524   21243222.6254
 -21156511.82644 -16485567.86144  20937483.7644   20937486.5134
 -17209927.965 4 -13410329.764 4  21293311.534    21293309.522
 -17614896.53144 -13725873.88944  21731100.4724   21731103.3344
  -3064611.55544  -2387998.27444  23892710.1924   23892711.4984
 -20108317.66344 -15668790.19144  21346791.9444   21346795.1384
 95  6 15  3 14 30.0000000  0  7G31G23G21G28G17G 9G 1
  -1871196.74444  -1458074.95444  23797713.0664   23797716.9684
 -20465882.70944 -15947408.79144  21250331.9214   21250333.9464
 -21178889.08444 -16503004.66844  20933225.3424   20933228.3024
 -17224401.783 4 -13421608.071 4  21290557.210    21290555.215
 -17554719.84444 -13678982.97744  21742551.7344   21742554.5454
  -3089130.69244  -2407104.07244  23888044.5894   23888047.5504
 -20183924.15344 -15727704.27844  21332404.7474   21332407.9154
 95  6 15  3 15  0.0000000  0  7G31G23G21G28G17G 9G 1
  -1948129.35344  -1518022.41444  23783073.9804   23783074.5324
 -20428430.19544 -15918225.02044  21257458.5144   21257461.1884
 -21201087.79144 -16520302.34244  20929000.9774   20929003.7964
 -17238331.487 4 -13432462.393 4  21287906.466    21287904.508
 -17494292.43744 -13631896.70044  21754050.9724   21754053.3784
  -3113258.99644  -2425905.30644  23883453.0124   23883455.9954
 -20259179.10044 -15786344.44144  21318084.2274   21318087.3344
 95  6 15  3 15 30.0000000  0  7G31G23G21G28G17G 9G 1
  -2024663.86544  -1577659.67344  23768508.3764
 -20390836.79844 -15888931.47344  21264612.4554   21264614.9804
 -21223065.81144 -16537428.05544  20924818.7004   20924821.5594
 -17251658.601 4 -13442847.167 4  21285370.446    21285368.610
 -17433539.86444 -13584557.05344  21765611.4814   21765614.2444
  -3136949.55844  -2444365.44244  23878943.6564   23878945.2914
 -20334023.16444 -15844664.43544  21303841.5134   21303844.6014
 95  6 15  3 16  0.0000000  0  7G31G23G21G28G17G 9G 1
  -2100746.19344  -1636944.58044  23754031.8534   23754035.3464
 -20353060.89644 -15859495.71644  21271801.3804   21271803.4784
 -21244786.63844 -16554353.35544  20920685.4184   20920688.2504
 -17264345.235 4 -13452732.865 4  21282956.152    21282954.414
 -17372433.81844 -13536941.96044  21777239.3374   21777242.1464
  -3160171.03644  -2462460.08044  23874525.4004   23874528.0594
 -20408416.73044 -15902633.39844  21289684.8864   21289687.9004
 95  6 15  3 16 30.0000000  0  7G31G23G21G28G17G 9G 1
  -2176381.76844  -1695881.36144  23739639.5434   23739640.0764
 -20315134.59344 -15829942.75644  21279018.5204   21279020.2954
 -21266266.83044 -16571091.15044  20916597.8244   20916600.5024
 -17276414.880 4 -13462137.799 4  21280659.400    21280657.355
 -17311011.31244 -13489080.27244  21788928.1954   21788930.8184
  -3182948.91544  -2480209.05944  23870190.4914   23870192.2504
 -20482387.21244 -15960272.69344  21275608.8124   21275611.8964
 95  6 15  3 17  0.0000000  0  7G31G23G21G28G17G 9G 1
  -2251611.36944  -1754501.83144  23725324.0154   23725324.4344
 -20277073.18944 -15800284.52144  21286260.9374   21286263.1474
 -21287541.91144 -16587669.10944  20912549.3184   20912551.8824
 -17287885.450 4 -13471075.915 4  21278476.502    21278474.705
 -17249308.88044 -13441000.45744  21800669.5364   21800672.4024
  -3205313.11244  -2497635.66944  23865935.3784   23865935.9604
 -20555949.87944 -16017594.21544  21261610.0204   21261613.2534
 95  6 15  3 17 30.0000000  0  7G31G23G21G28G17G 9G 1
  -2326423.65044  -1812797.03044  23711086.3314   23711092.4734
 -20238853.41144 -15770502.87944  21293533.8634   21293536.0644
 -21308586.50544 -16604067.47144  20908544.8594   20908547.2814
 -17298725.995 4 -13479523.107 4  21276413.746    21276411.697
 -17187314.85044 -13392693.43044  21812466.6214   21812469.5234
  -3227227.87544  -2514712.12444  23861765.5574   23861767.7154
 -20629074.65344 -16074574.52244  21247694.8624   21247698.0544
 95  6 15  3 18  0.0000000  0  7G31G23G21G28G17G 9G 1
  -2400837.57144  -1870781.89944  23696927.0634   23696929.2534
 -20200475.36544 -15740597.91144  21300836.8724   21300839.4504
 -21329399.91944 -16620285.69844  20904584.1724   20904586.5314
 -17308935.571 4 -13487478.629 4  21274471.118    21274469.039
 -17125029.07944 -13344159.05344  21824319.0684   21824322.1624
  -3248692.18544  -2531437.55344  23857680.7834   23857682.9684
 -20701747.96144 -16131203.04144  21233865.7244   21233868.8344
 95  6 15  3 18 30.0000000  0  7G31G23G21G28G17G 9G 1
  -2474871.99944  -1928471.04944  23682836.7974   23682836.9284
 -20161949.07444 -15710577.42844  21308168.4284   21308170.6644
 -21349993.85944 -16636332.91144  20900665.3234   20900667.4104
 -17318511.471 4 -13494940.374 4  21272648.772    21272646.902
 -17062435.29344 -13295384.66944  21836230.6364   21836232.4634
  -3269707.92144  -2547813.61744  23853681.9864
 -20773972.32844 -16187481.72544  21220122.0914   21220125.1344
 95  6 15  3 19  0.0000000  0  7G31G23G21G28G17G 9G 1
  -2548551.23044  -1985883.43444  23668816.7504   23668819.6844
 -20123302.82644 -15680463.47544  21315522.5884   21315524.7114
 -21370418.48944 -16652248.18844  20896778.5414   20896780.8774
 -17327481.750 4 -13501930.217 4  21270941.906    21270939.738
 -16999545.82344 -13246379.88244  21848197.9504   21848200.5634
  -3290288.88044  -2563853.51044  23849764.1444   23849766.7734
 -20845778.70344 -16243434.70144  21206457.7714   21206460.8154
 95  6 15  3 19 30.0000000  0  7G31G23G21G28G17G 9G 1
  -2621899.03644  -2043037.57844  23654859.6984   23654863.1254
 -20084588.14844 -15650296.19344  21322889.8594   21322891.8724
 -21390725.76344 -16668072.02844  20892914.4204   20892916.7834
 -17335895.841 4 -13508486.661 4  21269340.573    21269338.935
 -16936394.28244 -13197170.87844  21860215.4834   21860218.4134
  -3310466.80644  -2579572.05344  23845924.7134   23845927.1674
 -20917223.58344 -16299105.98944  21192862.1024   21192865.1934
 95  6 15  3 20  0.0000000  0  7G31G23G21G28G17G 9G 1
  -2694760.69944  -2099812.91044  23640994.5074   23640996.4424
 -20045667.83244 -15619968.67644  21330296.0154   21330297.7424
 -21410767.98144 -16683689.31944  20889100.3514   20889102.6924
 -17343609.352 4 -13514497.199 4  21267873.002    21267870.803
 -16872815.55644 -13147629.01144  21872313.6424   21872316.5504
  -3330093.91244  -2594865.13444  23842190.0724   23842194.2944
 -20988159.49344 -16354380.67144  21179363.2764   21179366.4334
 95  6 15  3 20 30.0000000  0  7G31G23G21G28G17G 9G 1
  -2767188.75644  -2156250.33944  23627211.7684   23627212.5714
 -20006604.04844 -15589529.36044  21337729.6644   21337732.0354
 -21430607.44244 -16699148.60944  20885324.9184   20885327.4054
 -17350692.572 4 -13520016.597 4  21266525.035    21266523.030
 -16808889.48944 -13097816.47844  21884478.6184   21884481.1544
  -3349225.02544  -2609772.50044  23838548.9784   23838552.0424
 -21058669.02844 -16409323.11244  21165946.0234   21165949.1404
 95  6 15  3 21  0.0000000  0  7G31G23G21G28G17G 9G 1
  -2839163.15444  -2212334.28944  23613516.4164   23613517.3844
 -19967372.06044 -15558958.98744  21345195.2374   21345197.1804
 -21450224.88444 -16714434.90344  20881591.7654   20881594.1104
 -17357143.983 4 -13525043.678 4  21265297.296    21265295.153
 -16744623.31444 -13047738.93044  21896708.1214   21896711.1984
  -3367847.84444  -2624283.77844  23835006.0954   23835006.6354
 -21128739.46244 -16463923.40344  21152611.7544   21152614.6434
 95  6 15  3 21 30.0000000  0  7G31G23G21G28G17G 9G 1
  -2910695.17044  -2268073.57044  23599904.0104   23599905.8974
 -19927977.04644 -15528261.58444  21352691.4304   21352693.7734
 -21469595.33844 -16729528.74244  20877905.6454   20877907.9604
 -17362967.059 4 -13529581.143 4  21264189.138    21264187.333
 -16680013.04344 -12997393.25644  21909002.7324   21909005.6394
  -3385977.98044  -2638411.14944  23831555.3654   23831555.6964
 -21198372.56644 -16518182.91244  21139361.2894   21139364.3544
 95  6 15  3 22  0.0000000  0  7G31G23G21G28G17G 9G 1
  -2981807.70944  -2323485.94044  23586371.6104   23586372.0054
 -19888441.81044 -15497454.91944  21360214.9424   21360217.2704
 -21488729.84044 -16744438.71444  20874264.4134   20874266.8894
 -17368185.057 4 -13533647.116 4  21263196.174    21263194.319
 -16615081.54744 -12946797.26144  21921358.9074   21921361.3164
  -3403643.54544  -2652176.51944  23828193.5674   23828197.8314
 -21267590.61444 -16572119.00244  21126189.2994   21126192.2084
 95  6 15  3 22 30.0000000  0  7G31G23G21G28G17G 9G 1
  -3052514.92944  -2378582.49444  23572915.4914   23572920.2374
 -19848787.39644 -15466555.38444  21367761.1314   21367763.4314
 -21507662.23344 -16759191.20644  20870661.6954   20870664.0544
 -17372822.288 4 -13537260.546 4  21262313.813    21262311.904
 -16549862.40544 -12895977.14544  21933769.7284   21933772.7694
  -3420871.58644  -2665600.93344  23824915.6624   23824917.1584
 -21336423.66644 -16625755.11144  21113090.7264   21113093.6254
 95  6 15  3 23  0.0000000  0  7G31G23G21G28G17G 9G 1
  -3122778.97444  -2433333.70244  23559545.6124   23559548.3484
 -19808997.38244 -15435550.18144  21375332.7634   21375334.8634
 -21526360.04444 -16773760.90244  20867103.4574   20867106.1744
 -17376841.119 4 -13540392.109 4  21261549.063    21261547.227
 -16484314.99044 -12844901.23044  21946243.2064   21946245.6544
  -3437632.81344  -2678661.59944  23821725.8794   23821728.3524
 -21404825.35344 -16679055.09044  21100074.2244   21100077.0714
 95  6 15  3 23 30.0000000  0  7G31G23G21G28G17G 9G 1
  -3192554.40944  -2487704.19344  23546267.6694   23546272.8934
 -19769042.75744 -15404416.70744  21382936.2464   21382938.4034
 -21544776.97944 -16788111.73344  20863598.7494   20863601.4744
 -17380185.178 4 -13542997.872 4  21260912.822    21260910.798
 -16418391.03644 -12793531.90944  21958787.8654   21958790.4804
  -3453873.55744  -2691316.70444  23818635.6924   23818637.8114
 -21472742.14044 -16731977.22244  21087150.3124   21087152.9564
 95  6 15  3 24  0.0000000  0  7G31G23G28G21G17G 9G 1
  -3261941.94144  -2541772.42844  23533063.5954   23533067.6434
 -19729022.52544 -15373232.11444  21390551.9254   21390554.0984
 -17382959.552 4 -13545159.734 4  21260384.721    21260382.791
 -21563041.20244 -16802343.57744  20860123.3164   20860125.7174
 -16352219.52644 -12741969.69744  21971379.6324   21971382.5594
  -3469692.82744  -2703643.36744  23815625.7494   23815626.7144
 -21540266.10344 -16784593.25344  21074300.7144   21074303.3124
 95  6 15  3 24 30.0000000  0  7G31G23G28G21G17G 9G 1
  -3330946.87544  -2595542.56544  23519933.0804   23519936.2874
 -19688938.84444 -15341998.07844  21398179.6464   21398181.6714
 -17385162.158 4 -13546876.057 4  21259965.675    21259963.704
 -21581152.09844 -16816455.95044  20856677.0894   20856679.4614
 -16285806.32944 -12690219.15244  21984018.1534   21984021.2124
  -3485091.81644  -2715642.52444  23812694.3864   23812695.9094
 -21607389.47444 -16836897.13944  21061527.5244   21061530.2034
 95  6 15  3 25  0.0000000  0  7G31G23G28G21G17G 9G 1
  -3399487.56244  -2648950.89744  23506890.4954   23506894.3454
 -19648691.26044 -15310636.32444  21405838.2034   21405840.4464
 -17386699.378 4 -13548073.895 4  21259673.121    21259671.051
 -21599006.56944 -16830368.50544  20853279.5764   20853281.5914
 -16219050.79744 -12638201.85444  21996721.0224   21996723.8904
  -3499971.34244  -2727236.94844  23809863.4164   23809865.5154
 -21674010.46144 -16888809.55344  21048850.1934   21048852.6894
 95  6 15  3 25 30.0000000  0  7G31G23G28G21G17G 9G 1
  -3467603.35344  -2702028.13744  23493928.0374   23493929.1564
 -19608308.02544 -15279168.86544  21413522.6644   21413524.8614
 -17387617.839 4 -13548789.582 4  21259498.551    21259496.304
 -21616654.69444 -16844120.26944  20849921.2894   20849923.3094
 -16152002.66844 -12585956.55644  22009479.9224   22009482.5974
  -3514364.69544  -2738452.52544  23807123.9594   23807126.8074
 -21740173.55144 -16940365.16544  21036259.2834   21036262.3994
 95  6 15  3 26  0.0000000  0  7G31G23G28G21G17G 9G 1
  -3535290.78144  -2754771.63744  23481048.4444   23481049.9974
 -19567782.80044 -15247590.76044  21421234.6424   21421236.8734
 -17387928.036 4 -13549031.297 4  21259439.184    21259437.332
 -21634119.00344 -16857728.80744  20846598.0184   20846600.2144
 -16084658.93244 -12533480.92744  22022294.8794   22022297.4414
  -3528273.93744  -2749290.88644  23804477.2654   23804479.1064
 -21805888.94944 -16991571.92944  21023753.9914   21023756.9254
 95  6 15  3 26 30.0000000  0  7G31G23G28G21G17G 9G 1
  -3602531.83844  -2807167.27544  23468251.6124   23468254.1844
 -19527101.36544 -15215890.93244  21428975.9924   21428977.9634
 -17387609.644 4 -13548783.204 4  21259499.942    21259498.049
 -21651376.22644 -16871175.98244  20843313.8104   20843316.2344
 -16016978.78644 -12480743.15144  22035174.1544   22035176.6374
  -3541674.39844  -2759732.75444  23801927.0414   23801929.5794
 -21871140.96044 -17042417.61244  21011337.1624   21011339.9134
 95  6 15  3 27  0.0000000  0  7G31G23G28G21G17G 9G 1
  -3669323.81344  -2859212.98844  23455540.6874   23455544.6914
 -19486269.42444 -15184073.83244  21436746.1774   21436747.9474
 -17386670.825 4 -13548051.654 4  21259678.325    21259676.686
 -21668439.89744 -16884472.34244  20840066.5904   20840068.8714
 -15948979.77544 -12427756.90844  22048113.9584   22048117.1234
  -3554570.78944  -2769781.85144  23799473.3304   23799475.6624
 -21935925.01344 -17092898.65444  20999008.9044   20999011.9984
 95  6 15  3 27 30.0000000  0  7G31G23G28G17G 9G21G 1
  -3735687.40444  -2910924.89544  23442912.5014   23442915.5234
 -19445327.27244 -15152170.84944  21444537.1684   21444538.9114
 -17385144.356 4 -13546862.197 4  21259968.936    21259967.007
 -15880703.38544 -12374554.54844  22061106.2664   22061109.3244
  -3567002.48344  -2779468.85344  23797108.0444   23797109.6184
 -21685337.40544 -16897639.22744  20836851.0664   20836853.5794
 -22000273.35044 -17143040.16944  20986763.8524   20986766.8654
 95  6 15  3 28  0.0000000  0  7G31G23G28G17G 9G21G 1
  -3801625.53044  -2962305.27044  23430365.0004   23430368.0574
 -19404289.72244 -15120193.53944  21452346.2754   21452348.1114
 -17383028.989 4 -13545213.857 4  21260371.419    21260369.346
 -15812138.32044 -12321127.23944  22074153.7834   22074156.7114
  -3578979.17744  -2788801.30844  23794828.2904   23794831.2174
 -21702055.54344 -16910666.33544  20833669.7934   20833672.0264
 -22064186.90344 -17192842.88744  20974601.6184   20974604.4854
 95  6 15  3 28 30.0000000  0  7G31G23G28G17G 9G21G 1
  -3867094.49844  -3013320.05544  23417907.3454   23417909.7774
 -19363137.46244 -15088126.84144  21460177.4964   21460179.2484
 -17380283.173 4 -13543074.259 4  21260894.264    21260891.759
 -15743260.01744 -12267455.84944  22087261.2964   22087264.1824
  -3590469.16444  -2797754.53344  23792642.1404   23792645.0784
 -21718529.65944 -16923503.29644  20830534.8204   20830537.2604
 -22127624.27044 -17242274.55044  20962529.7724   20962532.6854
 95  6 15  3 29  0.0000000  0  7G31G23G28G17G 9G21G 1
  -3932050.77344  -3063935.33644  23405546.3454   23405549.1284
 -19321836.75444 -15055944.47944  21468036.6594   21468038.6624
 -17376871.387 4 -13540415.725 4  21261543.508    21261541.286
 -15674047.87444 -12213524.33344  22100431.7624   22100434.1884
  -3601434.97644  -2806299.30044  23790555.6464   23790557.4984
 -21734715.77144 -16936115.83844  20827454.7224   20827457.2304
 -22190548.68144 -17291306.50644  20950555.6204   20950558.6334
 95  6 15  3 29 30.0000000  0  7G31G23G28G17G 9G21G 1
  -3996494.17444  -3114150.95344  23393283.2024   23393285.7334
 -19280400.21044 -15023656.27444  21475921.6694   21475923.9124
 -17372792.372 4 -13537237.277 4  21262319.639    21262317.729
 -15604482.44344 -12159317.52044  22113669.7224   22113672.8044
  -3611868.41244  -2814429.21144  23788569.8814   23788573.0564
 -21750615.09644 -16948504.91444  20824429.2154   20824431.5904
 -22252971.86744 -17339947.90344  20938677.0394   20938679.9544
 95  6 15  3 30  0.0000000  0  7G31G23G28G17G 9G21G 1
  -4060482.46344  -3164011.96444  23381106.6344   23381109.8474
 -19238885.58344 -14991307.22244  21483821.5954   21483823.7634
 -17368104.105 4 -13533584.079 4  21263211.722    21263209.831
 -15534619.55644 -12104878.91944  22126964.2214   22126966.2094
  -3621818.60244  -2822182.57344  23786675.9054   23786677.8474
 -21766305.42344 -16960731.13744  20821443.3274   20821445.7294
 -22314949.50244 -17388242.11544  20926883.2184   20926885.7544
 95  6 15  3 30 30.0000000  0  7G31G23G28G17G 9G21G 1
  -4124027.72644  -3213527.74944  23369014.3584   23369017.8354
 -19197282.49444 -14958889.24844  21491738.5464   21491740.5234
 -17362817.763 4 -13529464.853 4  21264217.722    21264215.786
 -15464481.55444 -12050225.94344  22140311.2274   22140313.6254
  -3631286.97744  -2829560.49544  23784874.5234   23784876.2844
 -21781804.87744 -16972808.62244  20818493.9154   20818496.3754
 -22376485.93544 -17436192.53544  20915172.9114   20915175.6584
 95  6 15  3 31  0.0000000  0  7G31G23G28G17G 9G21G 1
  -4187113.81144  -3262685.70544  23357008.7814   23357013.5724
 -19155546.31144 -14926367.55844  21499680.4904   21499682.4264
 -17356924.860 4 -13524872.986 4  21265338.934    21265337.017
 -15394042.63744 -11995338.49044  22153715.1984   22153717.7174
  -3640249.79944  -2836544.49944  23783168.8924   23783170.9284
 -21797113.03544 -16984737.04844  20815581.0054   20815583.4804
 -22437567.80144 -17483788.75144  20903549.4714   20903552.0404
 95  6 15  3 31 30.0000000  0  7G31G23G28G17G 9G21G 1
  -4249767.99544  -3311507.13644  23345086.8344   23345090.0434
 -19113691.08844 -14893753.10344  21507645.3504   21507647.4674
 -17350452.122 4 -13519829.305 4  21266570.848    21266568.476
 -15323321.04844 -11940230.76644  22167173.0784   22167175.0484
  -3648738.31644  -2843158.95044  23781554.1334   23781555.9554
 -21812261.79644 -16996541.26144  20812698.0974   20812700.4924
 -22498226.09344 -17531054.90944  20892006.3804   20892009.2874
 95  6 15  3 32  0.0000000  0  7G31G23G28G17G 9G21G 1
  -4312020.17144  -3360015.31044  23333241.6714   23333243.0674
 -19071722.87544 -14861050.60044  21515632.1904   21515634.1584
 -17343423.602 4 -13514352.534 4  21267908.043    21267906.155
 -15252349.25244 -11884928.07944  22180678.4364   22180681.3104
  -3656775.45244  -2849421.63644  23780023.5914   23780026.4324
 -21827261.88444 -17008229.62944  20809843.5334   20809845.8764
 -22558476.02544 -17578002.87044  20880541.1484   20880543.9224
 95  6 15  3 32 30.0000000  0  7G31G23G28G17G 9G21G 1
  -4373807.22844  -3408161.07144  23321483.0454   23321485.4284
 -19029581.34344 -14828213.04444  21523651.4504   21523653.1844
 -17335776.460 4 -13508393.725 4  21269363.389    21269361.391
 -15181069.51544 -11829385.44744  22194242.4264   22194245.3884
  -3664307.64744  -2855290.84744  23778590.5404   23778592.7324
 -21842029.43844 -17019736.80344  20807033.2984   20807035.7794
 -22618254.14644 -17624583.18644  20869165.8864   20869168.4254
 95  6 15  3 33  0.0000000  0  7G31G23G28G17G 9G21G 1
  -4435099.81144  -3455921.50344  23309819.4874   23309822.9854
 -18987268.19744 -14795241.76344  21531703.2454   21531704.8054
 -17327486.385 4 -13501933.925 4  21270941.062    21270939.027
 -15109443.89144 -11773573.27044  22207872.5014   22207874.8804
  -3671320.81244  -2860755.61744  23777256.1484   23777258.8684
 -21856548.55444 -17031050.39044  20804270.5524   20804272.9804
 -22677538.01344 -17670778.36344  20857884.5444   20857886.9114
 95  6 15  3 33 30.0000000  0  7G31G23G28G17G 9G21G 1
  -4495932.83844  -3503323.80944  23298243.5864   23298247.2124
 -18944834.94244 -14762176.89144  21539777.9464   21539779.8424
 -17318569.253 4 -13494985.516 4  21272637.975    21272635.911
 -15037485.97644 -11717502.17744  22221565.7834   22221568.3314
  -3677841.35144  -2865836.52644  23776015.1914   23776017.7024
 -21870844.57744 -17042190.13544  20801549.9884   20801552.7374
 -22736346.82644 -17716603.37944  20846693.4014   20846695.9074
 95  6 15  3 34  0.0000000  0  7G31G23G28G17G 9G21G 1
  -4556307.22644  -3550368.73544  23286754.6824   23286757.4694
 -18902301.84644 -14729034.22044  21547871.5054   21547873.6464
 -17309033.955 4 -13487555.416 4  21274452.212    21274450.310
 -14965211.27644 -11661184.22544  22235319.1124   22235322.1704
  -3683879.38044  -2870541.43144  23774866.7894   23774869.0604
 -21884934.61444 -17053169.37044  20798868.5114   20798871.2104
 -22794680.54144 -17762058.18744  20835592.7234   20835595.5784
 95  6 15  3 34 30.0000000  0  7G31G23G28G17G 9G21G 1
  -4616168.03544  -3597013.50744  23275364.0464   23275365.1564
 -18859634.13144 -14695786.65144  21555990.9514   21555993.0944
 -17298837.653 4 -13479610.243 4  21276392.818    21276390.536
 -14892565.56044 -11604577.18144  22249143.1334   22249145.7594
  -3689395.51444  -2874839.67844  23773816.3174   23773817.8964
 -21898794.04744 -17063968.91144  20796231.3864   20796233.7954
 -22852498.46844 -17807111.07744  20824590.3384   20824593.3984
 95  6 15  3 35  0.0000000  0  7G31G23G28G17G 9G21G 1
  -4675557.94544  -3643291.34444  23264062.1954   23264062.9854
 -18816875.17344 -14662467.98044  21564127.5914   21564129.9364
 -17288025.766 4 -13471185.399 4  21278449.996    21278448.195
 -14819590.77644 -11547713.71544  22263029.6854   22263032.2554
  -3694421.36544  -2878755.88944  23772860.5484   23772861.1574
 -21912480.41844 -17074633.59644  20793627.1024   20793629.4514
 -22909843.53144 -17851795.50244  20813677.8794   20813680.6604
 95  6 15  3 35 30.0000000  0  7G31G23G28G17G 9G21G 1
  -4734440.32944  -3689173.71544  23252855.6364   23252859.2274
 -18773976.23244 -14629040.23544  21572290.8534   21572293.2594
 -17276574.222 4 -13462262.119 4  21280629.290    21280627.194
 -14746278.62544 -11490587.37244  22276980.4394   22276983.2084
  -3698931.84144  -2882270.49744  23772001.8474   23772005.0364
 -21925955.85444 -17085133.92244  20791062.9824   20791065.0474
 -22966685.32044 -17896087.76844  20802861.0904   20802864.0094
 95  6 15  3 36  0.0000000  0  7G31G23G28G17G 9G21G 1
  -4792825.30844  -3734668.48044  23241745.9234   23241749.2334
 -18730951.34544 -14595514.35144  21580478.5224   21580480.1964
 -17264514.500 4 -13452864.934 4  21282924.001    21282921.952
 -14672679.98544 -11433237.79144  22290985.5644   22290988.4364
  -3702943.74544  -2885396.63244  23771238.7024   23771240.1974
 -21939238.08744 -17095483.69644  20788535.1954   20788537.3814
 -23023041.98044 -17940002.00944  20792136.8924   20792139.5574
 95  6 15  3 36 30.0000000  0  7G31G23G28G17G 9G21G 1
  -4850703.42044  -3779768.31944  23230732.3904   23230734.0284
 -18687780.81144 -14561874.96644  21588693.6064   21588695.3294
 -17251828.209 4 -13442979.521 4  21285338.262    21285336.164
 -14598780.84744 -11375654.05444  22305048.4814   22305050.8124
  -3706425.47544  -2888109.64044  23770575.4054   23770578.3954
 -21952286.49444 -17105651.26644  20786052.1794   20786054.4014
 -23078899.83244 -17983527.56944  20781507.3324   20781510.1034
 95  6 15  3 37  0.0000000  0  7G31G23G28G17G 9G21G 1
  -4908120.52144  -3824508.89844  23219805.8574   23219808.5724
 -18644502.52544 -14528151.61844  21596929.1934   21596931.1854
 -17238562.829 4 -13432642.869 4  21287862.647    21287860.627
 -14524645.20544 -11317886.02244  22319155.9484   22319159.1364
  -3709424.46444  -2890446.48244  23770004.8354   23770007.0054
 -21965140.13044 -17115667.07044  20783606.1854   20783608.6364
 -23134307.69444 -18026702.48744  20770964.0584   20770966.6464
 95  6 15  3 37 30.0000000  0  7G31G23G28G17G 9G21G 1
  -4965050.79944  -3868870.17444  23208972.6024   23208976.3364
 -18601097.18444 -14494329.26344  21605188.7714   21605190.9564
 -17224699.034 4 -13421839.925 4  21290500.750    21290498.833
 -14450246.76744 -11259913.22044  22333313.9094   22333316.8884
  -3711914.45244  -2892386.69744  23769531.2864   23769534.4824
 -21977774.87144 -17125512.31344  20781201.7464   20781204.5644
 -23189243.17144 -18069509.31444  20760509.9294   20760512.3764
 95  6 15  3 38  0.0000000  0  7G31G23G28G17G 9G21G 1
  -5021475.58544  -3912837.55344  23198235.4264   23198237.7834
 -18557552.76544 -14460398.53644  21613475.0284   21613477.1114
 -17210207.597 4 -13410547.905 4  21293258.487    21293256.562
 -14375550.68244 -11201708.49044  22347527.9854   22347530.1884
  -3713846.52444  -2893892.19644  23769163.7544   23769163.7114
 -21990170.89044 -17135171.53944  20778842.8734   20778845.3644
 -23243675.18844 -18111923.83544  20750151.9034   20750154.5344
 95  6 15  3 38 30.0000000  0  7G31G23G28G17G 9G21G 1
  -5077416.50844  -3956427.90444  23187589.4424   23187591.9044
 -18513898.22144 -14426381.99644  21621782.0454   21621784.1084
 -17195117.545 4 -13398789.425 4  21296129.940    21296128.063
 -14300573.04544 -11143284.35744  22361795.5314   22361797.9524
  -3715254.77544  -2894989.52744  23768895.3364   23768897.7654
 -22002373.73944 -17144680.24444  20776520.7764   20776523.3694
 -23297634.20244 -18153969.78144  20739883.8364   20739886.3234
 95  6 15  3 39  0.0000000  0  7G31G23G28G17G 9G21G 1
  -5132780.25844  -3999568.48644  23177054.6994   23177058.0794
 -18470059.45444 -14392221.91244  21630124.2804   21630126.6434
 -17179352.321 4 -13386504.842 4  21299130.077    21299128.161
 -14225220.86244 -11084568.36244  22376134.5374   22376136.9434
  -3716063.57444  -2895619.72944  23768741.2094   23768744.4964
 -22014328.93044 -17153995.96244  20774245.9074   20774248.2134
 -23351028.58544 -18195575.75644  20729723.3424   20729725.7604
 95  6 15  3 39 30.0000000  0  7G31G23G28G17G 9G21G 1
  -5187614.41744  -4042296.42044  23166620.8714   23166622.9254
 -18426101.64044 -14357969.06544  21638489.1804   21638491.5244
 -17162963.311 4 -13373734.196 4  21302248.895    21302246.824
 -14149533.76744 -11025591.40844  22390537.1494   22390538.9134
  -3716314.27244  -2895815.03344  23768694.1554   23768697.7624
 -22026093.29344 -17163162.98544  20772007.4154   20772009.4764
 -23403893.52344 -18236769.17544  20719663.3914   20719665.6124
 95  6 15  3 40  0.0000000  0  7G31G23G28G17G 9G21G 1
  -5242014.72544  -4084686.27544  23156268.4724   23156270.3614
 -18382122.32244 -14323699.46944  21646857.9814   21646860.5614
 -17146048.277 4 -13360553.664 4  21305467.780    21305465.579
 -14073618.21444 -10966436.42944  22404983.6944   22404986.4094
  -3716117.72844  -2895661.81844  23768731.3154   23768734.2544
 -22037767.70744 -17172259.92044  20769785.5734   20769787.8314
 -23456325.00844 -18277624.84844  20709685.8634   20709688.2924
 95  6 15  3 40 30.0000000  0  7G31G23G28G17G 9G21G 1
  -5295934.04344  -4126701.31844  23146007.0834   23146010.6774
 -18338078.32944 -14289379.47944  21655239.5824   21655241.7204
 -17128569.159 4 -13346933.588 4  21308793.845    21308791.751
 -13997427.73544 -10907067.22344  22419481.9984   22419484.1564
  -3715450.04044  -2895141.49244  23768858.2014   23768861.3814
 -22049315.71144 -17181258.34944  20767587.8524   20767590.5854
 -23508290.17244 -18318117.15044  20699797.2824   20699799.6144
 95  6 15  3 41  0.0000000  0  7G31G23G28G17G 9G21G 1
  -5349357.50044  -4168329.95144  23135841.3284   23135844.2884
 -18293950.31344 -14254994.00244  21663637.1764   21663639.0404
 -17110503.287 4 -13332856.307 4  21312231.709    21312229.631
 -13920936.79944 -10847463.89944  22434037.7164   22434039.8814
  -3714293.37844  -2894240.20544  23769078.5734   23769081.4554
 -22060698.72144 -17190128.21144  20765421.5784   20765424.2754
 -23559774.73744 -18358234.96244  20690000.1974   20690002.5754
 95  6 15  3 41 30.0000000  0  7G31G23G28G17G 9G21G 1
  -5402243.37644  -4209539.72544  23125778.1384   23125780.0854
 -18249681.42544 -14220498.76144  21672060.9864   21672063.1964
 -17091802.424 4 -13318284.229 4  21315790.440    21315788.364
 -13844102.81544 -10787593.27844  22448659.3114   22448661.4174
  -3712603.15944  -2892923.17144  23769400.1794   23769401.1744
 -22071851.37344 -17198818.57644  20763299.2454   20763301.7194
 -23610745.47744 -18397952.38944  20680300.3274   20680302.9274
 95  6 15  3 42  0.0000000  0  7G31G23G28G17G 9G21G 1
  -5454674.75544  -4250395.33544  23115800.5694   23115802.7074
 -18205339.12044 -14185946.31744  21680498.9074   21680501.1984
 -17072540.211 4 -13303274.729 4  21319455.786    21319453.998
 -13766998.19144 -10727511.75444  22463330.9914   22463334.1074
  -3710458.28944  -2891251.82944  23769807.8444   23769810.8084
 -22082832.47644 -17207375.27044  20761209.8114   20761212.0804
 -23661283.26744 -18437332.45444  20670683.4364   20670685.9934
 95  6 15  3 42 30.0000000  0  7G31G23G28G17G 9G21G 1
  -5506693.08844  -4290929.10544  23105902.0434   23105905.1774
 -18160949.50244 -14151357.00444  21688945.7874   21688947.9384
 -17052746.458 4 -13287851.034 4  21323222.316    21323220.440
 -13689645.51844 -10667236.96144  22478051.0024   22478053.8774
  -3707884.08444  -2889245.93944  23770297.9224   23770300.7934
 -22093657.27944 -17215810.17144  20759150.1844   20759152.3554
 -23711418.81844 -18476399.08644  20661143.1934   20661145.8054
 95  6 15  3 43  0.0000000  0  7G31G23G28G17G 9G21G 1
  -5558258.01144  -4331109.52144  23096088.6044   23096091.8804
 -18116468.13644 -14116696.20244  21697410.5364   21697412.4554
 -17032372.136 4 -13271974.948 4  21327099.462    21327097.673
 -13612007.07244 -10606739.49244  22492825.4604   22492827.6524
  -3704823.23944  -2886860.82844  23770880.5604   23770882.4054
 -22104254.29744 -17224067.57244  20757133.7114   20757136.0294
 -23761103.10644 -18515114.08344  20651688.2134   20651690.8384
 95  6 15  3 43 30.0000000  0  7G31G23G28G17G 9G21G 1
  -5609344.52644  -4370917.15244  23086367.7264   23086371.1174
 -18071870.51744 -14081944.81544  21705897.4574   21705899.7024
 -17011389.666 4 -13255624.987 4  21331092.271    21331090.349
 -13534065.80444 -10546006.06244  22507657.2814   22507659.6004
  -3701238.32444  -2884067.36044  23771563.1704   23771565.0314
 -22114600.50844 -17232129.54444  20755164.9654   20755167.0414
 -23810291.49044 -18553442.65644  20642328.0744   20642330.6964
 95  6 15  3 44  0.0000000  0  7G31G23G28G17G 9G21G 1
  -5659946.04344  -4410346.87744  23076738.1334   23076741.0954
 -18027165.65044 -14047109.86444  21714404.3624   21714406.4184
 -16989802.854 4 -13238804.115 4  21335200.471    21335198.207
 -13455830.98844 -10485043.86344  22522544.2574   22522547.2604
  -3697129.51644  -2880865.68944  23772344.8794   23772346.2794
 -22124699.23444 -17239998.66744  20753243.2234   20753245.3084
 -23858973.15544 -18591376.38044  20633063.9954   20633066.7374
 95  6 15  3 44 30.0000000  0  7G31G23G28G17G 9G21G 1
  -5710004.84444  -4449353.69444  23067212.5594   23067215.0554
 -17982316.24044 -14012162.27944  21722938.7524   21722940.7894
 -16967578.153 4 -13221486.191 4  21339429.752    21339427.449
 -13377284.69544 -10423838.97844  22537491.6134   22537494.6934
  -3692457.97744  -2877225.55944  23773233.3584   23773235.1764
 -22134528.63644 -17247657.92444  20751372.6314   20751374.8784
 -23907114.59044 -18628889.14444  20623903.0654   20623905.5174
 95  6 15  3 45  0.0000000  0  7G31G23G28G17G 9G21G 1
  -5759501.76844  -4487922.70644  23057792.9314   23057796.2304
 -17937341.63844 -13977117.14644  21731497.3294   21731499.3594
 -16944730.974 4 -13203683.226 4  21343777.313    21343775.165
 -13298441.09544 -10362402.41544  22552495.2524   22552497.7714
  -3687237.26044  -2873157.46744  23774226.9574   23774227.5374
 -22144119.03544 -17255130.94344  20749547.4054   20749549.8134
 -23954715.37244 -18665980.61144  20614845.1334   20614847.5744
 95  6 15  3 45 30.0000000  0  7G31G23G28G17G 9G21G 1
  -5808426.64944  -4526045.96744  23048483.5584   23048486.6144
 -17892249.32644 -13941980.29044  21740078.0144   21740080.4524
 -16921272.223 4 -13185403.708 4  21348241.268    21348239.361
 -13219305.95144 -10300738.66844  22567553.7784   22567556.8884
  -3681478.34244  -2868669.95844  23775322.3314   23775324.6504
 -22153498.86444 -17262439.87744  20747762.4934   20747764.8854
 -24001772.11544 -18702648.15544  20605890.2744   20605892.5784
 95  6 15  3 46  0.0000000  0  7G31G23G28G17G 9G21G 1
  -5856783.52644  -4563726.62044  23039281.1084   23039284.4104
 -17847045.05644 -13906756.19444  21748680.2134   21748682.3224
 -16897212.622 4 -13166655.987 4  21352819.839    21352817.779
 -13139885.08144 -10238852.28544  22582667.2844   22582669.8984
  -3675188.23744  -2863768.58244  23776520.1044   23776522.6134
 -22162687.97844 -17269600.21444  20746013.8604   20746016.1164
 -24048308.61144 -18738910.31844  20597034.7764   20597037.0784
 95  6 15  3 46 30.0000000  0  7G31G23G28G17G21G 9G 1
  -5904577.15844  -4600968.37744  23030186.6484   23030188.9054
 -17801731.07444 -13871446.60344  21757303.1944   21757305.1864
 -16872551.078 4 -13147439.221 4  21357512.604    21357510.622
 -13060172.51244 -10176738.59444  22597836.1184   22597839.0284
 -22171702.72244 -17276624.67744  20744298.4604   20744300.6784
  -3668367.01544  -2858453.33544  23777818.1184   23777819.6204
 -24094335.02544 -18774775.02344  20588276.3694   20588278.6434
 95  6 15  3 47  0.0000000  0  7G31G23G28G17G21G 9G 1
  -5951813.64344  -4637775.97044  23021197.8534   23021200.7944
 -17756285.94044 -13836034.80944  21765951.0464   21765953.0594
 -16847274.975 4 -13127743.570 4  21362322.464    21362320.513
 -12980131.44844 -10114368.94544  22613067.3244   22613070.4364
 -22180531.71744 -17283504.40144  20742618.4834   20742620.5304
  -3661004.33844  -2852716.17144  23779219.0144   23779222.0714
 -24139840.97844 -18810234.17844  20579616.7434   20579618.9804
 95  6 15  3 47 30.0000000  0  7G31G23G28G17G21G 9G 1
  -5998546.50844  -4674191.16544  23012305.4794   23012307.8614
 -17710725.43944 -13800533.12244  21774620.9794   21774623.1294
 -16821414.197 4 -13107592.326 4  21367243.656    21367241.620
 -12899790.95844 -10051765.97944  22628355.8044   22628358.8644
 -22189206.50044 -17290263.96344  20740967.5894   20740969.5854
  -3653115.05944  -2846568.70344  23780720.0134   23780722.1924
 -24184870.36344 -18845321.97944  20571047.8174   20571050.0264
 95  6 15  3 48  0.0000000  0  7G31G23G28G17G21G 9G 1
  -6044780.46244  -4710217.61444  23003506.1704   23003508.9974
 -17665041.56444 -13764935.30344  21783314.4814   21783316.4764
 -16794968.042 4 -13086984.948 4  21372276.300    21372274.227
 -12819147.17544  -9988926.67344  22643701.1994   22643704.4154
 -22197721.41244 -17296898.94844  20739347.3644   20739349.4214
  -3644692.87444  -2840005.92844  23782322.5254   23782324.8214
 -24229422.45144 -18880037.85944  20562570.0574   20562572.3384
 95  6 15  3 48 30.0000000  0  7G31G23G28G17G21G 9G 1
  -6090529.11444  -4745865.88944  22994800.3124   22994805.5664
 -17619248.92544 -13729252.73144  21792028.5164   21792030.5194
 -16767962.163 4 -13065941.421 4  21377415.408    21377413.351
 -12738225.29944  -9925870.67844  22659100.3584   22659103.3944
 -22206082.06644 -17303413.73744  20737756.2744   20737758.6384
  -3635774.66544  -2833056.65744  23784019.9424   23784021.4254
 -24273507.25844 -18914389.62944  20554180.6524   20554183.0704
 95  6 15  3 49  0.0000000  0  7G31G23G28G17G21G 9G 1
  -6135802.93544  -4781144.16444  22986185.3714   22986188.3654
 -17573364.85344 -13693498.91644  21800759.8014   21800761.8694
 -16740420.725 4 -13044480.580 4  21382656.290    21382654.387
 -12657056.63444  -9862622.38044  22674546.3054   22674549.2194
 -22214290.23644 -17309809.70944  20736194.1464   20736196.6414
  -3626370.39944  -2825728.63444  23785810.3234   23785811.5334
 -24317126.17344 -18948378.36644  20545880.3514   20545882.6014
 95  6 15  3 49 30.0000000  0  7G31G23G28G17G21G 9G 1
  -6180559.13644  -4816019.10944  22977668.9934   22977671.5824
 -17527389.94644 -13657674.32644  21809508.7294   21809510.9864
 -16712319.014 4 -13022583.158 4  21388003.958    21388001.728
 -12575634.71144  -9799176.73044  22690040.5004   22690043.5224
 -22222296.06944 -17316048.01644  20734670.7194   20734673.0204
  -3616441.72244  -2817992.02844  23787698.9534   23787701.7104
 -24360246.85944 -18981978.86944  20537674.7684   20537677.1024
 95  6 15  3 50  0.0000000  0  7G31G23G28G17G21G 9G 1
  -6224799.69044  -4850492.25344  22969250.4054   22969252.7664
 -17481344.96144 -13621795.12544  21818270.7884   21818272.7564
 -16683666.196 4 -13000256.311 4  21393456.270    21393454.204
 -12493977.98644  -9735548.12344  22705579.1434   22705581.5664
 -22230086.13944 -17322118.19544  20733188.3224   20733190.5034
  -3606009.68444  -2809863.13244  23789683.2544   23789686.5264
 -24402884.08344 -19015202.64644  20529561.0334   20529563.3234
 95  6 15  3 50 30.0000000  0  7G31G23G28G21G17G 9G 1
  -6268479.15744  -4884528.20244  22960938.4934   22960942.0294
 -17435198.36444 -13585836.74644  21827052.2564   21827054.3904
 -16654418.432 4 -12977465.869 4  21399022.159    21399019.878
 -22237617.49444 -17327986.77144  20731755.1334   20731757.4724
 -12412040.71144  -9671700.91544  22721171.6614   22721174.2184
  -3595028.09444  -2801306.03244  23791773.2874   23791775.5084
 -24444993.71644 -19048015.30844  20521547.7704   20521550.1194
 95  6 15  3 51  0.0000000  0  7G31G23G28G21G17G 9G 1
  -6311597.15944  -4918126.62244  22952732.8214   22952736.8924
 -17388960.17144 -13549806.98744  21835850.9234   21835852.8304
 -16624567.303 4 -12954205.261 4  21404702.426    21404700.528
 -22244892.25344 -17333655.40444  20730370.9874   20730373.1324
 -12329804.71844  -9607620.92744  22736820.6814   22736822.8474
  -3583471.60844  -2792300.98844  23793973.1274   23793974.1514
 -24486572.63744 -19080414.42444  20513635.8434   20513637.9554
 95  6 15  3 51 30.0000000  0  7G31G23G28G21G17G 9G 1
  -6354167.29844  -4951298.15644  22944632.2794   22944635.5684
 -17342628.37444 -13513704.29044  21844667.5514   21844669.2674
 -16594114.737 4 -12930476.001 4  21410497.100    21410495.511
 -22251915.58644 -17339128.12044  20729034.5954   20729036.6734
 -12247271.17144  -9543309.08044  22752525.5354   22752527.9054
  -3571358.32844  -2782862.10244  23796277.5124   23796279.2654
 -24527637.83044 -19112413.22544  20505821.1584   20505823.4324
 95  6 15  3 52  0.0000000  0  7G31G23G28G21G17G 9G 1
  -6396224.58344  -4984070.08744  22936628.7134   22936631.4804
 -17296207.12744 -13477531.88644  21853501.3814   21853503.2724
 -16563095.262 4 -12906304.983 4  21416400.288    21416398.300
 -22258752.87744 -17344455.86644  20727733.3304   20727735.4924
 -12164466.33344  -9478785.84644  22768282.8254   22768286.3824
  -3558737.82144  -2773027.97144  23798679.5144   23798680.8574
 -24568208.63544 -19144026.80344  20498100.7524   20498103.1064
 95  6 15  3 52 30.0000000  0  7G31G23G28G21G17G 9G 1
  -6437758.52144  -5016434.20744  22928725.4574   22928727.9714
 -17249698.14644 -13441291.12144  21862351.0464   21862353.2064
 -16531511.170 4 -12881694.013 4  21422410.452    21422408.555
 -22265433.72344 -17349661.70044  20726461.9024   20726464.2174
 -12081383.44344  -9414045.95744  22784093.6274   22784095.8194
  -3545608.57344  -2762797.36344  23801177.7964   23801180.0954
 -24608268.22544 -19175242.02244  20490477.5624   20490479.7664
 95  6 15  3 53  0.0000000  0  7G31G23G28G21G17G 9G 1
  -6478740.55244  -5048368.27844  22920927.4604   22920930.6434
 -17203052.18044 -13404943.61644  21871227.8974   21871229.9194
 -16499336.675 4 -12856622.976 4  21428533.298    21428531.164
 -22271918.15244 -17354714.48444  20725227.9524   20725230.1314
 -11998009.05644  -9349078.92044  22799958.8724   22799962.0254
  -3531947.68044  -2752152.49744  23803777.5614   23803780.1164
 -24647791.53544 -19206039.36544  20482956.4804   20482958.6114
 95  6 15  3 53 30.0000000  0  7G31G23G28G21G17G 9G 1
  -6519181.06144  -5079880.37744  22913231.8044   22913235.1714
 -17156280.51744 -13368498.17144  21880128.2864   21880130.3554
 -16466595.175 4 -12831110.117 4  21434763.768    21434761.390
 -22278232.47744 -17359634.72144  20724026.5124   20724028.6254
 -11914364.21144  -9283901.13344  22815876.5204   22815879.2064
  -3517784.32344  -2741116.09344  23806472.6564   23806474.0624
 -24686794.32544 -19236431.10844  20475534.6544   20475536.7174
 95  6 15  3 54  0.0000000  0  7G31G23G28G21G17G 9G 1
  -6559102.58644  -5110988.08144  22905634.5094   22905637.7364
 -17109425.40544 -13331987.69844  21889044.6824   21889046.5234
 -16433319.722 4 -12805181.184 4  21441095.618    21441093.414
 -22284420.59244 -17364456.60844  20722849.0954   20722851.1764
 -11830462.19944  -9218522.94844  22831842.4824   22831844.8524
  -3503138.18644  -2729703.51444  23809259.1624   23809259.7344
 -24725300.80444 -19266436.12044  20468207.1684   20468209.3034
 95  6 15  3 54 30.0000000  0  7G31G23G21G28G17G 9G 1
  -6598477.55144  -5141669.88844  22898142.0114   22898145.0994
 -17062464.61044 -13295394.87644  21897980.8934   21897982.9524
 -22290417.87644 -17369129.79744  20721707.7484   20721710.0524
 -16399474.082 4 -12778807.948 4  21447536.269    21447534.205
 -11746266.95744  -9152916.26644  22847863.6264   22847866.6194
  -3487964.96344  -2717880.24144  23812146.8714   23812149.4014
 -24763289.56644 -19296037.71444  20460977.6334   20460980.1034
 95  6 15  3 55  0.0000000  0  7G31G23G21G28G17G 9G 1
  -6637321.24744  -5171937.71644  22890750.1794   22890753.2144
 -17015387.41244 -13258711.35044  21906939.2864   21906941.2034
 -22296199.98044 -17373635.31044  20720607.1424   20720609.4554
 -16365060.103 4 -12751991.859 4  21454085.101    21454083.167
 -11661774.93944  -9087078.32744  22863941.7864   22863944.4914
  -3472267.69444  -2705648.65244  23815133.9104   23815136.9304
 -24800763.03744 -19325237.78044  20453847.0364   20453849.1794
 95  6 15  3 55 30.0000000  0  7G31G23G21G28G17G 9G 1
  -6675631.51544  -5201789.87844  22883459.5494   22883462.6384
 -16968206.87644 -13221947.30044  21915917.7094   21915919.3604
 -22301786.20044 -17377988.17944  20719543.9634   20719546.5654
 -16330074.350 4 -12724730.229 4  21460742.574    21460740.850
 -11576964.48744  -9020992.26544  22880081.6724   22880084.7854
  -3456035.90944  -2693000.50144  23818221.9354   23818224.2494
 -24837715.79244 -19354032.09544  20446815.1364   20446817.2024
 95  6 15  3 56  0.0000000  0  7G31G23G21G28G17G 9G 1
  -6713451.81744  -5231260.24144  22876263.0724   22876266.2514
 -16920951.91944 -13185125.25144  21924910.0504   21924911.7254
 -22307198.31344 -17382205.38444  20718514.2194   20718516.6184
 -16294550.601 4 -12697049.381 4  21467502.708    21467500.713
 -11491887.96244  -8954698.86644  22896270.0924   22896273.2714
  -3439298.82744  -2679958.58844  23821408.4954   23821410.3294
 -24874189.35744 -19382453.01544  20439874.3344   20439876.5644
 95  6 15  3 56 30.0000000  0  7G31G23G21G28G17G 9G 1
  -6750749.59344  -5260323.44544  22869165.5884   22869168.7944
 -16873581.89544 -13148213.54344  21933923.9354   21933926.2314
 -22312390.38144 -17386251.13544  20717526.2804   20717528.4554
 -16258456.979 4 -12668924.475 4  21474370.854    21474368.921
 -11406523.83044  -8888181.35344  22912514.8664   22912518.0254
  -3422027.93344  -2666500.71644  23824694.4144   23824695.4124
 -24910147.02544 -19410471.94144  20433031.7154   20433033.9144
 95  6 15  3 57  0.0000000  0  7G31G23G28G21G17G 9G 1
  -6787507.15944  -5288965.69744  22862169.9214   22862173.9364
 -16826092.30344 -13111208.66444  21942960.7544   21942962.8304
 -16221791.086 4 -12640353.645 4  21481348.343    21481346.338
 -22317379.67044 -17390138.88044  20716577.0194   20716579.2524
 -11320868.57344  -8821436.99044  22928814.1964   22928817.0044
  -3404218.53044  -2652623.25944  23828083.5324   23828085.2664
 -24945572.26544 -19438075.99544  20426290.5634   20426292.6174
 95  6 15  3 57 30.0000000  0  7G31G23G28G21G17G 9G 1
  -6823700.34344  -5317168.18344  22855282.5174   22855286.0844
 -16778485.11744 -13074112.14944  21952020.7434   21952022.1354
 -16184544.458 4 -12611330.293 4  21488435.942    21488434.036
 -22322168.42344 -17393870.36544  20715665.5634   20715667.8844
 -11234923.05044  -8754466.43144  22945169.7434   22945172.9204
  -3385850.13644  -2638310.21644  23831579.2324   23831580.1654
 -24980470.38744 -19465269.30644  20419649.7504   20419651.7684
 95  6 15  3 58  0.0000000  0  7G31G23G21G28G17G 9G 1
  -6859380.70244  -5344971.04444  22848492.8254   22848497.1684
 -16730820.10744 -13036970.58844  21961090.7874   21961092.9744
 -22326797.56344 -17397477.47744  20714784.5454   20714786.8874
 -16146780.623 4 -12581903.922 4  21495622.005    21495620.221
 -11148761.54144  -8687327.57244  22961565.6204   22961568.0034
  -3366994.48844  -2623617.51444  23835166.3374   23835169.6674
 -25014906.90544 -19492102.92244  20413096.6204   20413098.6794
 95  6 15  3 58 30.0000000  0  7G31G23G21G28G17G 9G 1
  -6894497.52344  -5372334.80544  22841811.3344   22841814.9924
 -16683074.04844 -12999765.87444  21970176.4874   21970178.3754
 -22331234.64644 -17400934.94144  20713940.3914   20713942.4464
 -16108465.754 4 -12552048.181 4  21502913.219    21502911.281
 -11062337.92844  -8619984.48444  22978011.0924   22978014.1324
  -3347620.86444  -2608521.18044  23838853.8074   23838854.9804
 -25048829.84844 -19518536.34544  20406641.2404   20406643.3214
 95  6 15  3 59  0.0000000  0  7G31G23G21G28G17G 9G 1
  -6928939.89244  -5399172.99444  22835257.1834   22835260.3594
 -16635139.89844 -12962414.57744  21979298.3204   21979300.2604
 -22335377.58544 -17404163.19944  20713152.2964   20713154.0414
 -16069494.980 4 -12521681.350 4  21510329.126    21510327.203
 -10975548.97244  -8552356.70744  22994526.4704   22994529.2024
  -3327616.99744  -2592933.78344  23842661.1244   23842661.5684
 -25082142.20944 -19544493.98944  20400302.1934   20400304.1814
 95  6 15  3 59 30.0000000  0  7G31G23G21G28G17G 9G 1
  -6962853.96444  -5425599.51644  22828803.7024   22828806.2364
 -16587166.28944 -12925032.54244  21988427.2704   21988429.7804
 -22339363.20644 -17407268.86844  20712393.7144   20712395.8394
 -16030023.237 4 -12490924.146 4  21517840.500    21517838.386
 -10888541.66444  -8484558.79444  23011083.5864   23011086.6154
  -3307138.42144  -2576976.44644  23846557.8354   23846560.2004
 -25114997.16044 -19570095.21244  20394049.9784   20394052.1074
 95  6 15  4  0  0.0000000  0  7G31G23G21G28G17G 9G 1
  -6996269.71344  -5451637.74044  22822444.6334   22822445.9804
 -16539178.76644 -12887639.67744  21997558.6754   21997561.1314
 -22343204.56144 -17410262.12444  20711662.5064   20711664.6714
 -15990081.098 4 -12459800.411 4  21525441.132    21525439.035
 -10801336.44044  -8416606.66044  23027678.3164   23027680.6484
  -3286221.40944  -2560677.46944  23850537.1024   23850539.3324
 -25147382.91444 -19595330.82144  20387887.0854   20387889.3334
 95  6 15  4  0 30.0000000  0  7G31G23G21G28G17G 9G 1
  -7029127.51244  -5477241.18644  22816191.0864   22816195.1974
 -16491097.93644 -12850174.10144  22006708.4384   22006710.2414
 -22346833.37344 -17413089.76344  20710971.9314   20710974.0604
 -15949597.216 4 -12428254.528 4  21533144.969    21533143.025
 -10713862.67544  -8348445.28144  23044324.2914   23044327.0714
  -3264783.28044  -2543972.41544  23854616.7704   23854620.2484
 -25179217.56444 -19620136.99544  20381829.0044   20381830.9654
 95  6 15  4  1  0.0000000  0  7G31G23G21G28G17G 9G 1
  -7061499.10244  -5502465.74244  22810031.3914   22810034.4904
 -16442966.60444 -12812669.17944  22015867.0204   22015869.5964
 -22350314.34444 -17415802.20244  20710309.4584   20710312.0484
 -15908636.808 4 -12396337.336 4  21540939.542    21540937.593
 -10626183.56544  -8280123.87544  23061008.2634   23061011.3084
  -3242875.82144  -2526901.65344  23858786.2434   23858788.1404
 -25210583.85744 -19644578.22044  20375860.1844   20375862.2944
 95  6 15  4  1 30.0000000  0  7G31G23G21G28G17G 9G 1
  -7093304.90844  -5527249.48444  22803978.6384   22803982.1294
 -16394707.52244 -12775064.69444  22025050.9494   22025052.7474
 -22353563.43944 -17418333.95944  20709690.9454   20709693.2194
 -15867116.170 4 -12363983.597 4  21548840.430    21548838.746
 -10538220.18744  -8211580.96744  23077747.5364   23077750.6154
  -3220410.67144  -2509396.36644  23863061.7384   23863062.3864
 -25241397.29244 -19668588.64944  20369996.5904   20369998.5044
 95  6 15  4  2  0.0000000  0  7G31G23G21G28G17G 9G 1
  -7124513.26444  -5551567.66844  22798040.1924   22798044.0454
 -16346283.58644 -12737331.75244  22034265.6024   22034267.4004
 -22356548.64744 -17420660.09144  20709123.0844   20709125.2664
 -15824988.768 4 -12331157.051 4  21556857.247    21556855.226
 -10449942.64444  -8142793.26944  23094546.7414   23094549.1374
  -3197335.31244  -2491415.62444  23867452.4454   23867453.5464
 -25271632.05744 -19692148.16644  20364242.9824   20364245.1574
 95  6 15  4  2 30.0000000  0  7G31G23G21G28G17G 9G 1
  -7155147.32544  -5575438.34444  22792210.9174   22792213.8244
 -16297705.83144 -12699478.95344  22043510.1284   22043512.1224
 -22359306.27744 -17422808.87944  20708598.3494   20708600.3374
 -15782274.825 4 -12297873.458 4  21564985.463    21564983.633
 -10361375.13544  -8073779.61744  23111400.2434   23111402.7594
  -3173663.56344  -2472970.14444  23871956.7334   23871958.0944
 -25301349.71544 -19715304.74644  20358587.8664   20358589.9054
 95  6 15  4  3  0.0000000  0  7G31G23G21G28G17G 9G 1
  -7185245.97744  -5598891.81844  22786483.5924   22786486.4434
 -16249040.41144 -12661557.83844  22052770.6214   22052773.1964
 -22361895.28344 -17424826.27044  20708105.7724   20708107.8214
 -15739029.836 4 -12264176.059 4  21573214.569    21573212.809
 -10272564.06844  -8004576.20044  23128299.9604   23128302.1194
  -3149457.88844  -2454108.53744  23876562.2714   23876565.4934
 -25330607.56544 -19738103.03444  20353020.4824   20353022.5244
 95  6 15  4  3 30.0000000  0  7G31G23G21G28G17G 9G 1
  -7214776.67044  -5621902.75544  22780863.7914   22780866.9524
 -16200281.92444 -12623564.21744  22062048.7424   22062051.1674
 -22364279.97444 -17426684.45444  20707652.1334   20707654.0114
 -15695227.806 4 -12230044.593 4  21581549.889    21581547.871
 -10183486.93844  -7935165.43844  23145251.6754   23145254.8724
  -3124700.83244  -2434817.28344  23881272.7544   23881275.1634
 -25359363.28344 -19760510.05244  20347548.2754   20347550.3634
 95  6 15  4  4  0.0000000  0  7G31G23G21G28G17G 9G 1
  -7243778.06844  -5644501.26444  22775344.7524   22775347.6554
 -16151466.83644 -12585526.48544  22071338.3144   22071340.2134
 -22366500.16644 -17428414.45944  20707229.5324   20707231.5054
 -15650920.379 4 -12195519.309 4  21589981.139    21589979.225
 -10094182.52444  -7865577.58044  23162245.2004   23162248.2564
  -3099454.12044  -2415144.49644  23886078.7034   23886080.0434
 -25387650.76644 -19782552.21344  20342165.3994   20342167.4564
 95  6 15  4  4 30.0000000  0  7G31G23G21G28G17G 9G 1
  -7272220.94044  -5666664.52644  22769932.1734   22769935.9824
 -16102566.39544 -12547422.23644  22080643.8004   22080645.6594
 -22368532.19044 -17429997.84244  20706842.5894   20706844.7054
 -15606095.374 4 -12160590.720 4  21598511.289    21598509.248
 -10004621.27444  -7795789.58344  23179287.8994   23179291.0654
  -3073712.40544  -2395086.01244  23890977.2104   23890979.2474
 -25415435.13444 -19804202.33944  20336878.1094   20336880.0514
 95  6 15  4  5  0.0000000  0  7G31G23G21G28G17G 9G 1
  -7300100.09744  -5688388.50244  22764626.8774   22764630.4474
 -16053592.87944 -12509261.04744  22089962.7244   22089964.1244
 -22370384.64444 -17431441.29444  20706490.1574   20706492.1494
 -15560763.265 4 -12125266.982 4  21607137.550    21607135.521
  -9914809.98844  -7725806.76244  23196378.6794   23196380.7194
  -3047480.33244  -2374645.45944  23895969.3054   23895968.8024
 -25442700.81044 -19825448.28544  20331689.6504   20331691.6764
 95  6 15  4  5 30.0000000  0  7G31G23G21G28G17G 9G 1
  -7327399.13344  -5709660.47544  22759432.7124   22759435.6344
 -16004523.57844 -12471025.21144  22099300.5704   22099302.1674
 -22372040.12344 -17432731.26544  20706175.3224   20706177.3204
 -15514910.871 4 -12089537.832 4  21615862.933    21615860.834
  -9824739.04144  -7655621.61144  23213518.6524   23213521.8594
  -3020732.82744  -2353803.27844  23901057.7024   23901060.7084
 -25469421.51644 -19846269.57644  20326604.7434   20326606.9324
 95  6 15  4  6  0.0000000  0  7G31G23G21G28G17G 9G 1
  -7354141.64944  -5730498.78444  22754344.4644   22754346.9714
 -15955370.74444 -12432724.29344  22108654.2484   22108656.0224
 -22373542.69444 -17433902.08344  20705889.4744   20705891.5434
 -15468568.255 4 -12053426.701 4  21624681.669    21624679.785
  -9734431.54744  -7585252.13444  23230703.3244   23230706.6034
  -2993492.33444  -2332576.90444  23906242.2224   23906243.8694
 -25495624.26144 -19866687.26444  20321618.6374   20321620.4154
 95  6 15  4  6 30.0000000  0  7G31G23G21G28G17G 9G 1
  -7380313.69344  -5750892.56844  22749363.4504   22749366.4654
 -15906121.50644 -12394348.24444  22118025.8484   22118027.8084
 -22374884.73744 -17434947.81644  20705633.9114   20705635.9614
 -15421716.496 4 -12016918.832 4  21633597.305    21633595.559
  -9643875.99144  -7514689.36344  23247935.1134   23247937.5344
  -2965729.21744  -2310943.32344  23911524.8434   23911527.0274
 -25521295.54744 -19886690.82344  20316733.4674   20316735.4694
 95  6 15  4  7  0.0000000  0  7G31G23G21G28G17G 9G 1
  -7405899.26044  -5770829.34444  22744494.3354   22744498.2054
 -15856768.84544 -12355891.60844  22127417.3024   22127419.7854
 -22376031.74144 -17435841.57044  20705415.6154   20705417.7364
 -15374334.507 4 -11979997.782 4  21642613.979    21642612.067
  -9553060.27944  -7443923.85644  23265217.0144   23265220.6584
  -2937411.79044  -2288877.77244  23916914.7774   23916916.4464
 -25546405.85444 -19906257.25944  20311955.1024   20311957.0344
 95  6 15  4  7 30.0000000  0  7G31G23G21G28G17G 9G 1
  -7430931.67344  -5790335.10944  22739730.6854   22739734.1144
 -15807341.63844 -12317376.89044  22136822.9834   22136825.1574
 -22376993.14044 -17436590.69544  20705232.5174   20705234.6884
 -15326447.540 4 -11942683.244 4  21651726.428    21651724.184
  -9462015.43044  -7372979.84144  23282542.3504   23282544.1854
  -2908579.32144  -2266410.87044  23922400.9154   23922401.3634
 -25570990.81244 -19925414.33344  20307276.6494   20307278.6184
 95  6 15  4  8  0.0000000  0  7G31G23G21G28G17G 9G 1
  -7455370.49044  -5809378.32844  22735080.1074   22735084.5604
 -15757771.21544 -12278750.58144  22146255.7184   22146257.9494
 -22377711.27644 -17437150.26544  20705095.7684   20705097.8534
 -15277999.470 4 -11904931.492 4  21660945.827    21660943.564
  -9370684.88944  -7301813.17244  23299921.7294   23299924.8434
  -2879180.64544  -2243502.84944  23927994.8254   23927996.9284
 -25595013.49644 -19944133.27144  20302705.3754   20302707.1514
 95  6 15  4  8 30.0000000  0  7G31G23G21G28G17G 9G 1
  -7479250.09944  -5827985.82344  22730535.3404   22730540.1804
 -15708088.84644 -12240037.04044  22155710.5114   22155711.5254
 -22378194.00244 -17437526.40444  20705003.9324   20705006.1964
 -15229014.333 4 -11866761.249 4  21670267.523    21670265.155
  -9279092.90244  -7230442.78744  23317351.0214   23317354.0584
  -2849237.66044  -2220170.65744  23933692.1074   23933695.5884
 -25618500.35244 -19962434.68944  20298235.8644   20298237.8264
 95  6 15  4  9  0.0000000  0  7G31G23G21G28G17G 9G 1
  -7502654.47044  -5846222.93944  22726082.5754   22726084.7154
 -15658384.86644 -12201306.65644  22165168.6614   22165170.5954
 -22378528.04744 -17437786.68144  20704940.4474   20704942.7424
 -15179590.388 4 -11828249.078 4  21679672.871    21679670.342
  -9187335.42844  -7158943.43744  23334812.1234   23334813.6454
  -2818841.91644  -2196485.70044  23939476.9464   23939481.0024
 -25641549.34244 -19980394.90844  20293849.6674   20293851.7144
 95  6 15  4  9 30.0000000  0  7G31G23G21G28G17G 9G 1
  -7525528.92644  -5864047.19144  22721729.9774   22721733.1514
 -15608599.14044 -12162512.59344  22174642.4004   22174644.1374
 -22378687.96344 -17437911.28344  20704909.7154   20704911.9644
 -15129680.081 4 -11789357.922 4  21689170.044    21689168.056
  -9095357.67444  -7087272.45444  23352315.6934   23352316.1484
  -2787951.67044  -2172415.43044  23945355.7164   23945358.2604
 -25664132.40344 -19997992.07044  20289552.3424   20289554.1844
 95  6 15  4 10  0.0000000  0  7G31G23G21G28G17G 9G 1
  -7547846.43444  -5881437.49844  22717483.0654   22717492.9944
 -15558707.48244 -12123635.97044  22184136.0974   22184138.2984
 -22378654.54744 -17437885.23444  20704916.3294   20704918.4844
 -15079261.286 4 -11750070.539 4  21698763.941    21698762.463
  -9003128.56444  -7015405.60244  23369865.4874   23369867.7214
  -2756535.04044  -2147934.91244  23951333.9004   23951334.4524
 -25686214.74444 -20015199.06544  20285350.1834   20285352.0754
 95  6 15  4 10 30.0000000  0  7G31G23G21G28G17G 9G 1
  -7569558.49844  -5898356.56944  22713351.5054   22713353.3314
 -15508700.42944 -12084669.43144  22193652.2694   22193654.6114
 -22378397.60144 -17437685.01244  20704965.2804   20704967.3144
 -15028311.255 4 -11710369.205 4  21708459.477    21708457.795
  -8910625.62444  -6943325.38344  23387468.3184   23387470.1764
  -2724570.39344  -2123027.41044  23957416.3874   23957417.9614
 -25707756.73944 -20031985.00444  20281250.8924   20281252.9004
 95  6 15  4 11  0.0000000  0  7G31G23G21G28G17G 9G 1
  -7590684.79944  -5914823.71644  22709330.6414   22709332.4724
 -15458592.69844 -12045624.44244  22203187.3874   22203189.3854
 -22377951.84744 -17437337.66344  20705050.1044   20705052.2404
 -14976857.994 4 -11670275.754 4  21718250.817    21718249.013
  -8817869.18344  -6871047.62744  23405118.7994   23405123.5624
  -2692099.95244  -2097725.70144  23963594.3824   23963595.2974
 -25728790.11044 -20048374.61444  20277248.5034   20277250.3104
 95  6 15  4 11 30.0000000  0  7G31G23G21G28G17G 9G 1
  -7611270.80044  -5930871.39144  22705412.8544   22705414.6534
 -15408410.93844 -12006521.76244  22212736.7384   22212738.6464
 -22377341.39644 -17436861.98044  20705166.2784   20705168.4884
 -14924929.567 4 -11629812.027 4  21728132.549    21728130.600
  -8724877.16944  -6798586.29444  23422814.5324   23422816.3354
  -2659157.30344  -2072055.94444  23969863.7924   23969864.3454
 -25749343.33644 -20064390.08844  20273337.3034   20273339.0614
 95  6 15  4 12  0.0000000  0  7G31G23G21G28G17G 9G 1
  -7631331.17344  -5946504.25144  22701595.5384   22701597.1444
 -15358152.88544 -11967359.63244  22222300.0994   22222302.0814
 -22376555.24944 -17436249.39144  20705315.8694   20705317.7264
 -14872530.886 4 -11588981.875 4  21738103.663    21738102.010
  -8631647.05844  -6725939.44044  23440556.1264   23440557.4254
  -2625734.87744  -2046012.40244  23976223.2914   23976225.1864
 -25769396.04444 -20080015.54844  20269521.4434   20269523.1214
 95  6 15  4 12 30.0000000  0  7G31G23G21G28G17G 9G 1
  -7650831.57444  -5961692.23544  22697884.5924   22697886.4154
 -15307779.88544 -11928107.93744  22231886.3454   22231888.5014
 -22375575.44744 -17435485.90444  20705502.3274   20705504.2474
 -14819634.683 4 -11547764.042 4  21748169.582    21748167.685
  -8538152.10944  -6653086.19944  23458347.9564   23458349.6234
  -2591799.66344  -2019569.35244  23982682.3464   23982681.9784
 -25788928.72244 -20095235.78144  20265804.2784   20265806.1164
 95  6 15  4 13  0.0000000  0  7G31G23G21G28G17G 9G 1
  -7669763.71744  -5976434.88044  22694282.3844   22694284.1374
 -15257272.98744 -11888751.91444  22241496.9644   22241499.7494
 -22374385.75544 -17434558.86844  20705728.6914   20705730.7374
 -14766225.677 4 -11506146.632 4  21758333.036    21758330.994
  -8444375.18244  -6580013.26944  23476192.2544   23476196.0234
  -2557317.81844  -1992700.37044  23989242.8884   23989242.9964
 -25807933.30344 -20110044.51344  20262187.7634   20262189.5904
 95  6 15  4 13 30.0000000  0  7G31G23G21G28G17G 9G 1
  -7688130.58444  -5990743.30044  22690787.3394   22690788.8504
 -15206654.54844 -11849308.97744  22251128.9574   22251130.8634
 -22372987.59744 -17433469.38644  20705994.9294   20705996.9444
 -14712318.727 4 -11464141.212 4  21768591.152    21768588.947
  -8350342.92344  -6506741.35444  23494086.3994   23494088.6684
  -2522285.93944  -1965402.76544  23995908.6554   23995913.3144
 -25826410.66044 -20124442.42344  20258671.5544   20258673.4364
 95  6 15  4 14  0.0000000  0  7G31G23G21G28G17G 9G 1
  -7705952.27444  -6004629.17844  22687395.9804   22687399.0604
 -15155962.63844 -11809808.79244  22260776.3074   22260777.4664
 -22371430.47844 -17432256.04644  20706291.3224   20706293.2254
 -14657959.314 4 -11421783.235 4  21778935.690    21778933.327
  -8256102.97144  -6433307.61344  23512020.0474   23512022.4624
  -2486743.91544  -1937707.59944  24002671.9674   24002674.3584
 -25844395.91844 -20138456.87544  20255248.9024   20255250.8174
 95  6 15  4 14 30.0000000  0  7G31G23G21G28G17G 9G 1
  -7723180.82644  -6018054.10644  22684117.8094   22684119.1024
 -15105166.57144 -11770227.43844  22270442.4434   22270443.9124
 -22369676.89944 -17430889.61344  20706624.9504   20706626.8414
 -14603119.124 4 -11379050.624 4  21789371.479    21789369.113
  -8161641.31044  -6359701.11944  23529995.6134   23529997.9544
  -2450671.29944  -1909599.10544  24009536.9074   24009538.8844
 -25861871.20044 -20152073.94844  20251923.6124   20251925.3764
 95  6 15  4 15  0.0000000  0  7G31G23G21G28G17G 9G 1
  -7739790.75744  -6030996.91144  22680957.2374   22680958.7414
 -15054241.16344 -11730545.30844  22280132.9864   22280134.5774
 -22367678.05944 -17429332.06344  20707005.2054   20707007.0894
 -14547775.292 4 -11335925.559 4  21799903.061    21799900.723
  -8066934.78744  -6285903.83144  23548016.7874   23548019.2344
  -2414048.40344  -1881061.79544  24016506.8644   24016508.6184
 -25878795.20044 -20165261.45444  20248703.0574   20248704.7394
 95  6 15  4 15 30.0000000  0  7G31G23G21G28G17G 9G 1
  -7755804.63044  -6043475.20944  22677909.4094   22677912.2044
 -15003205.11944 -11690777.00244  22289844.7794   22289845.9074
 -22365466.86044 -17427609.05044  20707426.1094   20707428.1154
 -14491953.284 4 -11292427.895 4  21810525.509    21810523.159
  -7971996.19544  -6211925.67944  23566083.2894   23566086.5324
  -2376917.69644  -1852128.80144  24023572.4334   24023573.7364
 -25895179.41544 -20178028.34744  20245585.2874   20245587.0334
 95  6 15  4 16  0.0000000  0  7G31G23G21G28G17G 9G 1
  -7771281.55444  -6055535.11044  22674963.8204   22674967.0024
 -14952113.13344 -11650965.07544  22299567.6074   22299569.3714
 -22363104.43044 -17425768.19344  20707875.7214   20707877.5074
 -14435702.758 4 -11248596.318 4  21821229.535    21821227.642
  -7876872.30244  -6137803.14244  23584184.9924   23584189.4584
  -2339331.03144  -1822840.52344  24030724.2294   24030726.2454
 -25911074.20644 -20190413.87344  20242560.6414   20242562.3224
 95  6 15  4 16 30.0000000  0  6G31G23G28G17G21G 1
  -7786202.49344  -6067161.80644  22672124.4054   22672127.5554
 -14900948.39844 -11611096.45744  22309303.9574   22309305.7204
 -14378994.188 4 -11204407.815 4  21832020.402    21832018.865
  -7781542.42244  -6063520.06644  23602324.7794   23602330.1704
 -22360559.08944 -17423784.81644  20708360.1554   20708362.0004
 -25926456.08044 -20202399.72444  20239633.5224   20239635.1934
 95  6 15  4 17  0.0000000  0  6G31G23G21G28G17G 1
  -7800570.93344  -6078357.96944  22669390.0464   22669393.0884
 -14849721.95844 -11571179.76544  22319051.8774   22319053.2354
 -22357839.68144 -17421665.78944  20708877.7524   20708879.6554
 -14321817.789 4 -11159854.781 4  21842900.744    21842898.988
  -7685989.69344  -5989063.37844  23620508.6104   23620511.0464
 -25941316.62044 -20213979.33944  20236805.5654   20236807.2664
 95  6 15  4 17 30.0000000  0  7G31G23G21G28G17G15G 1
  -7814377.26744  -6089116.12044  22666762.4074   22666766.1774
 -14798424.23344 -11531207.50944  22328813.5344   22328815.6644
 -22354951.10844 -17419414.93744  20709427.1244   20709429.1554
 -14264158.011 4 -11114925.105 4  21853873.258    21853871.295
  -7590199.39044  -5914421.56944  23638737.8264   23638739.5844
        -0.31854                  25128709.2864
 -25955652.46044 -20225150.09644  20234077.7164   20234079.4114
 95  6 15  4 18  0.0000000  0  7G31G23G21G28G17G15G 1
  -7827669.40044  -6099473.61644  22664233.1224   22664236.3004
 -14747105.42044 -11491218.83244  22338579.1844   22338581.1124
 -22351934.21644 -17417064.09844  20710000.8514   20710003.1504
 -14206067.296 4 -11069659.624 4  21864927.699    21864925.687
  -7494235.69144  -5839644.63944  23656998.0744   23657001.6544
   -105891.67744                  25108559.6184
 -25969523.75244 -20235958.87544  20231437.9784   20231439.7054
 95  6 15  4 18 30.0000000  0  6G31G23G28G21G17G 1
  -7840375.11244  -6109374.16244  22661815.5584   22661818.9684
 -14695700.60544 -11451163.14044  22348361.1304   22348362.8364
 -14147486.191 4 -11024012.012 4  21876075.272    21876073.344
 -22348718.81744 -17414558.58544  20710612.7504   20710614.9204
  -7398035.16144  -5764683.18144  23675305.4684   23675307.4364
 -25982873.41044 -20246361.18344  20228897.6204   20228899.5634
 95  6 15  4 19  0.0000000  0  6G31G23G21G28G17G 1
  -7852527.26044  -6118843.35744  22659503.4774   22659506.6844
 -14644240.82644 -11411064.62244  22358153.5124   22358155.5294
 -22345333.09544 -17411920.36044  20711257.0734   20711259.1594
 -14088453.528 4 -10978012.536 4  21887308.792    21887306.814
  -7301626.58244  -5689559.62044  23693650.7604   23693652.3914
 -25995729.65644 -20256379.02044  20226451.0974   20226452.6584
 95  6 15  4 19 30.0000000  0  7G31G23G21G28G17G15G 1
  -7864071.38044  -6127838.75344  22657306.3244   22657309.3444
 -14592652.03444 -11370865.56844  22367970.7254   22367972.8054
 -22341712.76344 -17409099.32344  20711946.1564   20711948.1524
 -14028929.746 4 -10931630.374 4  21898635.950    21898633.883
  -7204956.51244  -5614232.27544  23712044.7894
        -0.63254                  25048093.3844
 -26008040.50144 -20265971.86344  20224108.3084   20224110.1924
 95  6 15  4 20  0.0000000  0  7G31G23G21G28G17G15G 1
  -7875054.20844  -6136396.78144  22655216.5684   22655219.6854
 -14540988.30844 -11330608.11944  22377802.1204   22377803.5474
 -22337900.55744 -17406128.77444  20712671.6074   20712673.8864
 -13968970.293 4 -10884908.729 4  21910046.063    21910043.702
  -7108072.51844  -5538738.28344  23730482.6694
   -105981.15444                  25027924.4254
 -26019845.86244 -20275170.81744  20221861.8334   20221863.5114
 95  6 15  4 20 30.0000000  0  7G31G23G21G28G17G15G 1
  -7885508.15044  -6144542.69444  22653227.1824   22653230.3884
 -14489266.43344 -11290305.36044  22387644.1934   22387645.9924
 -22333915.08344 -17403023.21144  20713430.1034   20713432.3454
 -13908598.442 4 -10837865.739 4  21921534.379    21921532.036
  -7010986.06144                  23748958.3084
   -212027.93544   -165215.98144  25007747.8204
 -26031160.14844 -20283987.11644  20219708.8274   20219710.7254
 95  6 15  4 21  0.0000000  0  7G31G23G21G28G17G15G 1
  -7895366.92844  -6152224.85044  22651350.8344   22651354.0464
 -14437397.57644 -11249888.05944  22397514.5794   22397516.5214
 -22329685.09944 -17399727.11844  20714234.8854   20714237.1204
 -13847743.157 4 -10790446.061 4  21933114.481    21933112.443
  -6913623.23944  -5387219.31744  23767485.7004
   -318065.36644                  24987570.1664
 -26041902.51844 -20292357.76344  20217664.6374   20217666.1974
 95  6 15  4 21 30.0000000  0  7G31G23G21G28G17G15G 1
  -7904625.39044  -6159439.23844  22649589.4674   22649592.4164
 -14385375.42744 -11209351.30644  22407414.0674   22407416.3974
 -22325211.74944 -17396241.38344  20715085.9774   20715088.1004
 -13786401.061 4 -10742647.037 4  21944787.465    21944785.584
  -6815984.53744                  23786065.0014
   -424085.68844   -330455.77544  24967394.1574
 -26052077.94044 -20300286.63444  20215728.2684   20215730.1294
 95  6 15  4 22  0.0000000  0  7G31G23G21G28G17G15G 1
  -7913313.19244  -6166208.94844  22647936.5804   22647939.6634
 -14333247.45444 -11168732.11444  22417333.8964   22417335.2984
 -22320526.29344 -17392590.37244  20715977.7784   20715979.9434
 -13724604.013 4 -10694493.503 4  21956547.012    21956545.226
  -6718125.80944                  23804688.4704
   -530116.20144   -413076.98244  24947216.7284
 -26061728.48144 -20307806.51044  20213891.7524   20213893.5064
 95  6 15  4 22 30.0000000  0  7G31G23G21G28G17G15G 1
  -7921415.66144  -6172522.55544  22646393.7524   22646397.2134
 -14280996.08444 -11128016.75644  22427276.6914   22427278.2864
 -22315608.79344 -17388758.55944  20716913.5454   20716915.6054
 -13662349.576 4 -10645983.572 4  21968393.417    21968391.377
  -6620055.77444                  23823348.8684
   -636149.74044                  24927036.1214
 -26070863.14944 -20314924.40244  20212153.5014   20212155.3554
 95  6 15  4 23  0.0000000  0  7G31G23G21G28G17G15G 1
  -7928924.08144  -6178373.27844  22644965.1974   22644968.1394
 -14228635.76144 -11087216.50344  22437240.6714   22437242.6614
 -22310474.64944 -17384757.93044  20717890.4614   20717892.5694
 -13599654.392 4 -10597130.199 4  21980324.019    21980321.825
  -6521790.72044                  23842048.5914
   -742198.51344                  24906856.8734
 -26079506.79744 -20321659.67644  20210508.6934   20210510.4774
 95  6 15  4 23 30.0000000  0  7G31G23G21G28G17G15G 1
  -7935821.66544  -6183748.01944  22643652.0554   22643655.1304
 -14176162.96744 -11046328.59444  22447225.8494   22447227.7934
 -22305117.00544 -17380583.13844  20718910.0494   20718911.7674
 -13536511.071 4 -10547927.624 4  21992340.006    21992338.077
  -6423324.00344                  23860785.2714
   -848250.95744   -660974.32844  24886674.4384   24886677.0524
 -26087655.65744 -20328009.40144  20208957.9634   20208959.7244
 95  6 15  4 24  0.0000000  0  7G31G23G21G28G17G15G 1
  -7942162.97444  -6188689.28544  22642445.2304   22642447.6744
 -14123631.91544 -11005395.33144  22457221.9694   22457223.9604
 -22299590.90844 -17376277.08144  20719961.5644   20719963.3944
 -13472975.612 4 -10498419.478 4  22004430.206    22004428.852
  -6324699.81344                  23879553.0884
   -954358.17644   -743655.31344  24866481.3374   24866485.5304
 -26095348.47944 -20334003.77344  20207494.1594   20207495.7684
 95  6 15  4 24 30.0000000  0  7G31G23G21G28G17G15G 1
  -7947912.56044  -6193169.47044  22641351.8384   22641354.1364
 -14070991.11844 -10964376.53244  22467239.2074   22467240.9634
 -22293864.83144 -17371815.18744  20721051.1654   20721053.0484
 -13409004.357 4 -10448571.751 4  22016603.669    22016601.938
  -6225851.90844                  23898363.3964
  -1060472.04244   -826341.45644  24846287.2094
 -26102524.84344 -20339595.71844  20206128.3214   20206129.8984
 95  6 15  4 25  0.0000000  0  7G31G23G21G28G17G15G 1
  -7953102.08644  -6197213.25544  22640363.9504   22640367.0514
 -14018265.68244 -10923291.76544  22477272.4534   22477274.6214
 -22287980.02844 -17367229.61344  20722171.2504   20722173.1994
 -13344611.595 4 -10398395.585 4  22028857.214    22028855.027
  -6126780.39144                  23917216.5034
  -1166602.18344                  24826102.1044
 -26109190.12544 -20344789.41344  20204859.9784   20204861.5924
 95  6 15  4 25 30.0000000  0  6G31G23G28G21G15G 1
  -7957764.81244  -6200846.53344  22639477.2754   22639479.9424
 -13965471.26844 -10882153.25644  22487319.3404   22487320.8864
 -13279807.509 4 -10347898.903 4  22041189.239    22041187.010
 -22281947.21844 -17362528.71544  20723319.4534   20723321.2484
  -1272753.98544   -991756.04244  24805896.0874   24805898.4444
 -26115341.14344 -20349582.39244  20203689.4604   20203691.2584
 95  6 15  4 26  0.0000000  0  6G31G23G28G21G15G 1
  -7961974.96544  -6204127.15144  22638676.2004   22638678.9444
 -13912671.57444 -10841010.62544  22497366.4834   22497368.3294
 -13214662.139 4 -10297136.277 4  22053585.733    22053583.822
 -22275818.97244 -17357753.44344  20724485.4774   20724487.2414
  -1378992.88344  -1074539.62744  24785673.6994   24785679.5644
 -26121054.38744 -20354034.24444  20202602.1924   20202603.9704
 95  6 15  4 26 30.0000000  0  5G31G23G28G21G 1
  -7965577.97144  -6206934.67944  22637990.0794   22637992.9864
 -13859709.40244 -10799741.39844  22507445.0724   22507447.8364
 -13149034.030 4 -10245997.488 4  22066074.226    22066072.527
 -22269440.67944 -17352783.32444  20725699.0234   20725700.9534
 -26126200.40044 -20358044.10044  20201623.1204   20201624.8674
 95  6 15  4 27  0.0000000  0  5G31G23G21G28G 1
  -7968623.13544  -6209307.52444  22637410.7334   22637414.5874
 -13806644.93344 -10758392.47744  22517543.3864   22517544.5834
 -22262860.15944 -17347655.62744  20726951.4714   20726953.0364
 -13082988.711 4 -10194533.605 4  22078642.531    22078640.482
 -26130844.54044 -20361662.89144  20200739.1764   20200740.9644
 95  6 15  4 27 30.0000000  0  6G31G23G21G28G 9G 1
  -7971107.88344  -6211243.66844  22636938.0674   22636940.4434
 -13753478.23744 -10716963.88544  22527660.1084   22527661.8234
 -22256061.97544 -17342358.32344  20728245.0044   20728246.6884
 -13016544.189 4 -10142758.659 4  22091286.377    22091284.446
        -0.04854         1.15254  24221525.0104   24221527.9634
 -26135005.60544 -20364905.24944  20199947.2564   20199948.8894
 95  6 15  4 28  0.0000000  0  6G31G23G21G28G 9G 1
  -7972975.66644  -6212699.06744  22636582.5334   22636585.1744
 -13700173.58544 -10675427.81244  22537803.7844   22537805.2744
 -22249007.33544 -17336861.19244  20729587.2104   20729589.2974
 -12949669.697 4 -10090648.651 4  22104012.057    22104010.447
     49513.09844     38582.80644  24230947.6014   24230948.6574
 -26138659.00044 -20367752.02444  20199252.2014   20199253.7374
 95  6 15  4 28 30.0000000  0  7G31G23G21G28G 9G15G 1
  -7974230.47044  -6213676.80844  22636344.1204   22636346.8884
 -13646754.51144 -10633802.56844  22547969.1124   22547970.4724
 -22241721.10044 -17331183.59044  20730973.8824   20730975.8804
 -12882377.117 4 -10038212.866 4  22116817.490    22116815.559
     99538.76644     77563.84944  24240467.5024   24240468.6634
         0.20554         0.18654  24684644.8574   24684648.7914
 -26141801.19144 -20370200.45844  20198654.1154   20198655.8534
 95  6 15  4 29  0.0000000  0  7G31G23G21G28G 9G15G 1
  -7974910.86944  -6214206.97544  22636213.9344   22636216.6734
 -13593255.28844 -10592114.86044  22558149.8994   22558151.2664
 -22234232.67344 -17325348.43744  20732398.8704   20732400.8224
 -12814685.737 4  -9985466.326 4  22129699.146    22129696.681
    150067.94044    116937.22144  24250082.3094   24250084.2884
   -106162.90744    -82724.21144  24664441.3074
 -26144451.30044 -20372265.45144  20198149.8504   20198151.4844
 95  6 15  4 29 30.0000000  0  7G31G23G21G28G 9G15G 1
  -7975046.89844  -6214312.94944  22636187.9234   22636191.0604
 -13539699.02744 -10550382.71144  22568341.6544   22568343.3414
 -22226571.69044 -17319378.81944  20733856.6244   20733858.6534
 -12746618.396 4  -9932426.844 4  22142651.767    22142649.806
    201084.68344    156690.53244  24259789.8924   24259791.8034
   -212344.71544   -165463.24844  24644236.3854   24644239.4964
 -26146643.32844 -20373973.50244  20197732.6894   20197734.2654
 95  6 15  4 30  0.0000000  0  7G31G23G21G28G 9G15G 1
  -7974667.24344  -6214017.08944  22636260.6054   22636263.0604
 -13486110.66144 -10508625.55844  22578538.8384   22578540.5134
 -22218773.88644 -17313302.58744  20735340.7644   20735342.7014
 -12678193.899 4  -9879109.056 4  22155672.555    22155670.612
    252559.17144    196800.53044  24269585.0944   24269587.6934
   -318559.51044   -248228.03744  24624028.3294   24624029.8404
 -26148393.35744 -20375337.13544  20197399.6534   20197401.3304
 95  6 15  4 30 30.0000000  0  7G31G23G21G28G 9G15G 1
  -7973761.96144  -6213311.65344  22636432.4554   22636435.5924
 -13432454.62544 -10466815.66944  22588748.7864   22588751.2384
 -22210807.99744 -17307095.37844  20736856.2754   20736858.2414
 -12609384.931 4  -9825491.682 4  22168766.185    22168764.164
    304504.54344    237277.44144  24279471.1484   24279474.1574
   -424774.93944   -330993.31344  24603815.8854
 -26149664.60044 -20376327.68944  20197157.7464   20197159.5324
 95  6 15  4 31  0.0000000  0  7G31G23G21G28G 9G15G 1
  -7972314.96044  -6212184.11244  22636708.0584   22636710.0004
 -13378698.36644 -10424927.68044  22598978.7324   22598980.1464
 -22202644.50244 -17300734.19644  20738409.8734   20738411.8934
 -12540173.245 4  -9771560.511 4  22181936.522    22181934.694
    356937.21644    278134.05344  24289449.1274   24289450.2154
   -530967.74944   -413740.92544  24583610.1734   24583611.1364
 -26150444.31444 -20376935.23344  20197009.4454   20197010.8874
 95  6 15  4 31 30.0000000  0  7G31G23G21G28G 9G15G 1
  -7970326.09844  -6210634.34744  22637087.1244   22637088.8644
 -13324859.68044 -10382975.46344  22609223.4304   22609224.9374
 -22194295.50844 -17294228.47544  20739998.8794   20740000.8004
 -12470587.291 4  -9717337.689 4  22195178.100    22195176.624
    409825.96544    319346.07744  24299511.6164   24299513.1454
   -637161.43144   -496489.19744  24563400.7654   24563404.7394
 -26150749.07944 -20377172.68544  20196951.4614   20196953.0314
 95  6 15  4 32  0.0000000  0  7G31G23G21G28G 9G15G 1
  -7967776.92244  -6208647.94944  22637572.1464   22637574.4874
 -13270921.12644 -10340945.43144  22619487.3914   22619488.5514
 -22185738.62244 -17287560.76344  20741626.8034   20741628.7374
 -12400611.951 4  -9662811.447 4  22208494.202    22208492.797
    463170.98744    360913.64544  24309662.9784   24309664.3714
   -743336.41744   -579222.92244  24543196.8734   24543198.9124
 -26150551.84944 -20377018.97544  20196988.8264   20196990.3024
 95  6 15  4 32 30.0000000  0  7G31G23G21G28G 9G15G 1
  -7964699.69744  -6206250.08044  22638157.7074   22638159.7894
 -13216915.20944 -10298862.91544  22629765.0904   22629766.1554
 -22176999.11544 -17280750.73944  20743290.1064   20743292.0374
 -12330282.702 4  -9608009.428 4  22221877.691    22221875.787
    516940.73944    402811.96044  24319895.0944   24319895.3954
   -849522.89444   -661965.66044  24522991.8744   24522992.8584
 -26149882.43044 -20376497.32844  20197116.3134   20197117.6014
 95  6 15  4 33  0.0000000  0  7G31G23G21G28G 9G15G 1
  -7961065.65244  -6203418.35144  22638848.8534   22638850.8704
 -13162830.04544 -10256718.63144  22640056.8064   22640059.3374
 -22168062.97644 -17273787.49744  20744990.4654   20744992.0744
 -12259586.669 4  -9552921.586 4  22235330.391    22235328.838
    571155.29744    445057.28844  24330212.2034   24330215.1754
   -955702.82244   -744703.25244  24502786.4614   24502790.8494
 -26148723.69944 -20375594.40444  20197336.7584   20197338.2254
 95  6 15  4 33 30.0000000  0  7G31G23G21G28G 9G15G 1
  -7956901.67744  -6200173.69044  22639640.6024   22639642.6974
 -13108688.01144 -10214530.04944  22650359.6534   22650361.7034
 -22158940.77144 -17266679.27144  20746726.3454   20746728.1534
 -12188542.028 4  -9497562.080 4  22248849.912    22248847.716
    625789.00844    487628.98544  24340609.3264   24340610.7404
  -1061889.80044   -827446.33644  24482577.3214   24482584.6194
 -26147079.00544 -20374312.80544  20197649.7254   20197651.2034
 95  6 15  4 34  0.0000000  0  7G31G23G21G28G 9G15G 1
  -7952153.96044  -6196474.18544  22640544.5784   22640547.2914
 -13054410.02344 -10172235.54344  22660688.5134   22660690.8564
 -22149559.76944 -17259369.38844  20748511.7594   20748513.4704
 -12117074.282 4  -9441872.914 4  22262450.062    22262447.815
    680921.01744    530589.00144  24351100.6564   24351101.4594
  -1168003.63644   -910132.39444  24462382.7744   24462388.8784
 -26144867.84144 -20372589.80944  20198070.4804   20198072.0414
 95  6 15  4 34 30.0000000  0  7G31G23G21G28G 9G15G 1
  -7946838.14044  -6192332.00644  22641556.3764   22641558.6874
 -13000006.17044 -10129842.95544  22671041.3664   22671043.2634
 -22139940.62344 -17251873.94544  20750341.9754   20750343.7564
 -12045204.499 4  -9385870.475 4  22276126.446    22276124.185
    736555.03144    573940.17744  24361686.9754   24361688.0934
  -1274060.79844   -992774.40544  24442200.1644   24442204.2364
 -26142107.48144 -20370438.86744  20198595.7914   20198597.3144
 95  6 15  4 35  0.0000000  0  7G31G23G21G28G 9G15G 1
  -7940976.18244  -6187764.25444  22642671.5314   22642674.0044
 -12945494.39244 -10087366.28044  22681414.8034   22681416.6244
 -22130111.56844 -17244214.93244  20752212.3844   20752214.0434
 -11972958.395 4  -9329574.798 4  22289874.448    22289872.020
    792661.42144    617659.49344  24372363.3154   24372364.2884
  -1380081.97544  -1075388.27444  24422023.5034
 -26138817.54444 -20367875.26844  20199221.6714   20199223.3684
 95  6 15  4 35 30.0000000  0  7G31G23G21G28G 9G15G 1
  -7934568.40044  -6182771.16544  22643890.8644   22643893.1904
 -12890869.96744 -10044801.81144  22691809.4344   22691811.0504
 -22120078.73544 -17236397.13744  20754121.5114   20754123.5524
 -11900336.890 4  -9272986.612 4  22303693.743    22303691.629
    849240.67744    661747.24844  24383129.0314   24383131.8514
  -1486063.01144  -1157970.94244  24401855.1704
 -26135010.60344 -20364908.80544  20199946.1154   20199947.5634
 95  6 15  4 36  0.0000000  0  8G31G23G21G28G 9G25G15G 1
  -7927584.45344  -6177329.12544  22645219.9474   22645222.1504
 -12836115.67644 -10002136.16144  22702229.2594   22702231.0484
 -22109853.95344 -17228429.76044  20756067.1254   20756068.8354
 -11827336.566 4  -9216103.246 4  22317585.478    22317583.486
    906302.67644    706211.15144  24393989.0004   24393989.0174
        -0.24854                  24379710.5654
  -1591995.02844  -1240515.39944  24381698.2054   24381701.1584
 -26130700.91444 -20361550.60344  20200766.2664   20200767.9564
 95  6 15  4 36 30.0000000  0  8G31G23G21G28G 9G25G15G 1
  -7920064.42644  -6171469.35344  22646650.6774   22646653.3444
 -12781282.14344  -9959408.75444  22712663.2064   22712664.8474
 -22099486.09144 -17220350.90044  20758040.2824   20758041.7744
 -11754006.751 4  -9158963.134 4  22331539.093    22331537.779
    963797.19444    751012.08444  24404929.5544   24404933.5424
    -99928.32944                  24360693.3194
  -1697922.04344  -1323055.93444  24361542.8354   24361545.9184
 -26125956.33544 -20357853.51544  20201669.0584   20201670.5784
 95  6 15  4 37  0.0000000  0  8G31G23G21G28G 9G25G15G 1
  -7911982.02144  -6165171.37344  22648188.8234   22648191.6514
 -12726377.99944  -9916626.31644  22723111.0734   22723113.0194
 -22088962.52644 -17212150.71144  20760042.7634   20760044.5964
 -11680337.465 4  -9101558.491 4  22345557.980    22345556.273
   1021728.68644    796153.51944  24415953.4744   24415955.0594
   -199896.25844                  24341671.1114
  -1803829.33544  -1405580.98444  24341388.3694   24341390.5154
 -26120779.60944 -20353819.69544  20202654.2134   20202655.9454
 95  6 15  4 37 30.0000000  0  8G31G23G21G28G 9G25G15G 1
  -7903296.79844  -6158403.67744  22649841.7444   22649844.1764
 -12671367.36544  -9873760.89244  22733579.6914   22733581.7034
 -22078240.62344 -17203795.98344  20762083.0604   20762085.1994
 -11606296.241 4  -9043864.023 4  22359647.059    22359645.963
   1080148.76044    841675.67444  24427070.3294   24427073.3614
   -299863.39544                  24322647.0974
  -1909679.11844  -1488061.21144  24321246.7664   24321248.3214
 -26115153.45044 -20349435.65744  20203724.9004   20203726.4944
 95  6 15  4 38  0.0000000  0  8G31G23G21G28G 9G25G15G 1
  -7894046.37944  -6151195.56144  22651602.2234   22651604.5724
 -12616262.89244  -9830822.33444  22744065.8954   22744067.1194
 -22067336.91044 -17195299.59144  20764158.1144   20764159.9574
 -11531912.859 4  -8985902.943 4  22373801.734    22373800.343
   1139031.61144    887558.41444  24438275.3574   24438278.2994
   -399851.59844                  24303620.1334
  -2015496.08044  -1570515.87144  24301110.7304   24301113.3594
 -26109092.38644 -20344712.73544  20204878.3994   20204879.7914
 95  6 15  4 38 30.0000000  0  8G31G23G21G28G 9G25G15G 1
  -7884247.68944  -6143560.20844  22653466.5754   22653468.9974
 -12561076.03344  -9787819.56444  22754567.0664   22754568.5044
 -22056231.70544 -17186646.18344  20766271.0804   20766272.7484
 -11457193.528 4  -8927680.077 4  22388020.551    22388018.690
   1198376.85844    933801.51344  24449568.8444   24449570.2144
   -499879.89644                  24284586.6744
  -2121281.35744  -1652945.84444  24280981.1124   24280984.0114
 -26102593.12044 -20339648.35844  20206114.8884   20206116.4504
 95  6 15  4 39  0.0000000  0  8G31G23G21G28G 9G25G15G 1
  -7873878.94344  -6135480.65144  22655440.1424   22655442.7924
 -12505779.26044  -9744731.14044  22765089.3574   22765092.2734
 -22044901.95544 -17177817.77644  20768427.1464   20768428.9474
 -11382122.655 4  -8869183.277 4  22402306.168    22402304.230
   1258196.49244    980414.28444  24460951.4094   24460952.5874
   -599933.38744                  24265544.4184
  -2227013.89044  -1735334.73144  24260860.0394   24260862.7804
 -26095614.00444 -20334210.07544  20207443.1184   20207444.7194
 95  6 15  4 39 30.0000000  0  8G31G23G21G28G 9G25G15G 1
  -7862983.37044  -6126990.58544  22657513.4324   22657515.5814
 -12450363.56244  -9701550.04944  22775634.7534   22775636.8994
 -22033352.29644 -17168818.01444  20770624.8454   20770626.6364
 -11306716.620 4  -8810425.323 4  22416655.957    22416653.834
   1318465.05944   1027376.80844  24472421.4524   24472420.3424
   -700005.49644   -545458.60844  24246501.4454
  -2332704.81344  -1817691.24844  24240749.0834   24240750.7544
 -26088158.95444 -20328400.94444  20208861.7544   20208863.2614
 95  6 15  4 40  0.0000000  0  8G31G23G21G28G 9G25G15G 1
  -7851580.58844  -6118105.32644  22659683.4834   22659685.4874
 -12394858.83044  -9658299.60144  22786196.8284   22786198.5904
 -22021590.69744 -17159653.12044  20772862.9724   20772864.7694
 -11230993.357 4  -8751420.190 4  22431066.284    22431063.542
   1379142.96944   1074658.28344  24483966.4534   24483967.1844
   -800109.65344   -623461.78344  24227454.0504
  -2438367.06244  -1900025.38844  24220642.9724   24220645.8894
 -26080226.58444 -20322219.87144  20210371.0304   20210372.7844
 95  6 15  4 40 30.0000000  0  8G31G23G21G28G 9G25G15G 1
  -7839673.49844  -6108827.20444  22661949.2364   22661951.5674
 -12339306.90144  -9615012.37544  22796768.4894   22796769.5994
 -22009635.25944 -17150337.18544  20775138.1374   20775139.9154
 -11154971.663 4  -8692182.510 4  22445532.601    22445529.499
   1440208.70044   1122241.96644  24495586.7644   24495588.2744
   -900265.72244   -701505.46644  24208393.1224   24208395.7644
  -2544014.01844  -1982347.60344  24200537.1234   24200542.1834
 -26071840.89444 -20315685.57244  20211967.0114   20211968.3034
 95  6 15  4 41  0.0000000  0  8G31G23G21G28G 9G25G15G 1
  -7827261.18244  -6099155.03944  22664311.0454   22664314.0694
 -12283702.82844  -9571684.51844  22807350.0704   22807351.9004
 -21997505.04644 -17140885.06644  20777446.4434   20777448.3414
 -11078650.256 4  -8632711.287 4  22460055.334    22460052.961
   1501656.56544   1170123.44944  24507281.0714   24507283.4784
  -1000457.25444   -779576.76544  24189327.9414   24189331.1594
  -2649639.15844  -2064652.85244  24180436.1474   24180438.5734
 -26062988.75144 -20308787.79544  20213651.4114   20213652.8224
 95  6 15  4 41 30.0000000  0  8G31G23G21G28G 9G25G15G 1
  -7814319.82144  -6089070.87644  22666773.4824   22666776.0584
 -12228023.88544  -9528298.32544  22817944.9094   22817946.1494
 -21985175.26144 -17131277.44344  20779792.9334   20779794.7034
 -11002005.993 4  -8572988.471 4  22474639.691    22474638.403
   1563520.20944   1218328.91644  24519052.3844   24519053.6854
  -1100657.12044   -857654.56944  24170260.3684   24170261.6524
  -2755214.19444  -2146919.13844  24160344.4194   24160348.9144
 -26053650.70744 -20301511.39644  20215428.5634   20215430.1044
 95  6 15  4 42  0.0000000  0  8G31G23G21G28G 9G25G15G 1
  -7800802.97544  -6078538.27644  22669345.8904   22669348.0244
 -12172252.39144  -9484840.01844  22828557.4194   22828558.5844
 -21972633.77544 -17121504.85744  20782179.0134   20782181.0034
 -10925021.942 4  -8513000.883 4  22489289.189    22489288.001
   1625825.81844   1266878.76444  24530909.2424   24530910.3144
  -1200855.06144   -935730.85344  24151193.8214   24151193.2904
  -2860716.51044  -2229128.69744  24140265.5134   24140273.9524
 -26043803.76044 -20293838.45044  20217302.2744   20217303.7204
 95  6 15  4 42 30.0000000  0  8G31G23G21G28G 9G25G15G 1
  -7786743.01344  -6067582.48444  22672021.0664   22672024.2474
 -12116395.86944  -9441315.44144  22839186.2694   22839189.0154
 -21959934.68744 -17111609.44844  20784595.9744   20784597.8224
 -10847734.602 4  -8452776.982 4  22503996.701    22503995.642
   1688556.76644   1315760.06544  24542846.5884   24542848.1944
  -1301094.95844  -1013839.84244  24132118.1964   24132119.8654
  -2966177.43644  -2311305.99144  24120201.3524   24120204.5834
 -26033494.01544 -20285804.88444  20219264.0174   20219265.5934
 95  6 15  4 43  0.0000000  0  8G31G23G21G28G 9G25G15G 1
  -7772111.13244  -6056181.02944  22674805.8584   22674808.0054
 -12060403.92044  -9397685.34044  22849842.0854   22849844.1724
 -21947029.00444 -17101553.05144  20787051.5174   20787053.2904
 -10770107.347 4  -8392288.208 4  22518769.040    22518767.768
   1751755.98144   1365006.22944  24554872.5474   24554873.7684
  -1401332.47244  -1091946.96444  24113043.7804   24113045.1894
  -3071554.68644  -2393418.08244  24100149.1304   24100153.1804
 -26022679.61744 -20277378.08144  20221321.9634   20221323.3494
 95  6 15  4 43 30.0000000  0  8G31G23G21G28G 9G25G15G 1
  -7756925.22344  -6044347.87144  22677695.8254   22677697.3664
 -12004294.25344  -9353963.52044  22860519.2464   22860521.0414
 -21933913.61544 -17091333.25144  20789547.4504   20789549.1894
 -10692158.592 4  -8331548.930 4  22533602.398    22533600.299
   1815405.98144   1414603.70044  24566985.9364   24566987.9894
  -1501584.83444  -1170065.64944  24093966.1044   24093969.2124
  -3176861.52244  -2475475.30544  24080109.8264   24080113.0314
 -26011387.35244 -20268578.91144  20223470.7044   20223472.4004
 95  6 15  4 44  0.0000000  0  8G31G23G21G28G 9G25G15G 1
  -7741159.93944  -6032063.26944  22680695.4944   22680697.9984
 -11948041.87744  -9310130.51344  22871223.6184   22871225.2404
 -21920553.73744 -17080922.96244  20792089.8764   20792091.4934
 -10613858.046 4  -8270535.520 4  22548502.104    22548499.968
   1879536.90944   1464575.96544  24579187.9034   24579189.9994
  -1601815.37044  -1248167.33944  24074892.9134   24074894.4944
  -3282062.11544  -2557449.72944  24060091.3034   24060094.4684
 -25999591.15344 -20259387.05444  20225715.6544   20225717.0094
 95  6 15  4 44 30.0000000  0  8G31G23G21G28G 9G25G15G 1
  -7724881.02544  -6019378.41044  22683793.2794   22683795.8444
 -11891697.70944  -9266225.98544  22881944.9414   22881946.2324
 -21906979.25444 -17070345.45444  20794672.7984   20794674.8354
 -10535248.228 4  -8209281.114 4  22563461.424    22563458.629
   1944113.57344   1514895.52244  24591477.4404   24591476.2004
  -1702051.85044  -1326273.68144  24055818.6324   24055819.2764
  -3387193.73344  -2639370.44044  24040086.1974   24040088.5314
 -25987331.90044 -20249834.37244  20228048.4914   20228049.9264
 95  6 15  4 45  0.0000000  0  8G31G23G21G28G 9G25G15G 1
  -7708122.36644  -6006319.73144  22686982.5234   22686984.7944
 -11835310.19744  -9222287.67044  22892675.3174   22892677.0104
 -21893200.72444 -17059608.96044  20797294.8604   20797296.8784
 -10456361.847 4  -8147811.219 4  22578472.999    22578470.760
   2009092.86944   1565528.78044  24603842.8654   24603844.6324
  -1802308.01844  -1404395.32044  24036740.7334   24036742.6634
  -3492283.79644  -2721258.72944  24020086.7704   24020089.1864
 -25974627.80244 -20239935.06444  20230465.7994   20230467.3504
 95  6 15  4 45 30.0000000  0  8G31G23G21G28G 9G25G15G 1
  -7690852.14044  -5992862.43244  22690268.6584   22690271.5694
 -11778840.72244  -9178285.51344  22903421.1114   22903423.0724
 -21879214.13844 -17048710.32044  20799956.6324   20799958.5674
 -10377181.620 4  -8086112.354 4  22593540.792    22593538.594
   2074494.10344   1616490.81844  24616286.5654   24616287.7444
  -1902569.11944  -1482520.84244  24017661.3984   24017663.4994
  -3597309.51844  -2803096.88944  24000100.0994   24000104.0914
 -25961466.05144 -20229679.14744  20232970.3944   20232971.9204
